[[{"header":{"parameterUnit":"m.s-1","parameterCategory":1,"la1":30.6,"la2":29.2853,"lo1":-89.7004,"lo2":-87.6739,"dy":0.0162,"dx":0.0183,"nx":112,"ny":82,"refTime":"2023-09-13T12:00:00:Z","depth":0,"parameterNumber":2,"parameterNumberName":"U-component_of_WINDS"},"data":[0.0,0.0,0.0,0.0,0.0,0.0,0.0,0.0,0.0,0.0,0.0,0.0,0.0,0.0,0.0,0.0,0.0,0.0,0.0,0.0,0.0,0.0,0.0,0.0,0.0,0.0,0.0,0.0,0.0,0.0,0.0,0.0,0.0,0.0,0.0,0.0,0.0,0.0,0.0,0.0,0.0,0.0,0.0,0.0,0.0,0.0,0.0,0.0,0.0,0.0,0.0,0.0,0.0,0.0,0.0,0.0,0.0,0.0,0.0,0.0,0.0,0.0,0.0,0.0,0.0,0.0,0.0,0.0,0.0,0.0,0.0,0.0,0.0,0.0,0.0,0.0,0.0,0.0,0.0,0.0,0.0,0.0,0.0,0.0,0.0,0.0,0.0,0.0,0.0,0.0,2.1958,2.446,2.7296,2.8608,2.7633,2.7126,2.5669,2.2817,0.0,0.0,0.0,0.0,0.0,0.0,0.0,0.0,0.0,0.0,0.0,0.0,0.0,0.0,0.0,0.0,0.0,0.0,0.0,0.0,0.0,0.0,0.0,0.0,0.0,0.0,0.0,0.0,0.0,0.0,0.0,0.0,0.0,0.0,0.0,0.0,0.0,0.0,0.0,0.0,0.0,0.0,0.0,0.0,0.0,0.0,0.0,0.0,0.0,0.0,0.0,0.0,0.0,0.0,0.0,0.0,0.0,0.0,0.0,0.0,0.0,0.0,0.0,0.0,0.0,0.0,0.0,0.0,0.0,0.0,0.0,0.0,0.0,0.0,0.0,0.0,0.0,0.0,0.0,0.0,0.0,0.0,0.0,0.0,0.0,0.0,0.0,0.0,0.0,0.0,0.0,0.0,0.0,0.0,0.0,0.0,0.0,0.0,0.0,0.0,0.0,0.0,0.0,0.0,2.2102,2.4967,2.7497,2.8283,2.6499,2.5488,2.4182,2.2482,0.0,0.0,0.0,0.0,0.0,0.0,0.0,0.0,0.0,0.0,0.0,0.0,0.0,0.0,0.0,0.0,0.0,0.0,0.0,0.0,0.0,0.0,0.0,0.0,0.0,0.0,0.0,0.0,0.0,0.0,0.0,0.0,0.0,0.0,0.0,0.0,0.0,0.0,0.0,0.0,0.0,0.0,0.0,0.0,0.0,0.0,0.0,0.0,0.0,0.0,0.0,0.0,0.0,0.0,0.0,0.0,0.0,0.0,0.0,0.0,0.0,0.0,0.0,0.0,0.0,0.0,0.0,0.0,0.0,0.0,0.0,0.0,0.0,0.0,0.0,0.0,0.0,0.0,0.0,0.0,0.0,0.0,0.0,0.0,0.0,0.0,0.0,0.0,0.0,0.0,0.0,0.0,0.0,0.0,0.0,0.0,0.0,0.0,0.0,0.0,0.0,0.0,0.0,2.273,2.368,2.5827,2.6885,2.7077,2.6175,2.4935,2.3816,2.2914,2.1936,0.0,0.0,0.0,0.0,0.0,0.0,0.0,0.0,0.0,0.0,0.0,0.0,0.0,0.0,0.0,0.0,0.0,0.0,0.0,0.0,0.0,0.0,0.0,0.0,0.0,0.0,0.0,0.0,0.0,0.0,0.0,0.0,0.0,0.0,0.0,0.0,0.0,0.0,0.0,0.0,0.0,0.0,0.0,0.0,0.0,0.0,0.0,0.0,0.0,0.0,0.0,0.0,0.0,0.0,0.0,0.0,0.0,0.0,0.0,0.0,0.0,0.0,0.0,0.0,0.0,0.0,0.0,0.0,0.0,0.0,0.0,0.0,0.0,0.0,0.0,0.0,0.0,0.0,0.0,0.0,0.0,0.0,0.0,0.0,0.0,0.0,0.0,0.0,0.0,0.0,0.0,0.0,0.0,0.0,0.0,0.0,0.0,0.0,0.0,0.0,0.0,0.0,2.4188,2.4691,2.6289,2.6395,2.6231,2.5888,2.4725,2.3755,2.321,2.1319,0.0,0.0,0.0,0.0,0.0,0.0,0.0,0.0,0.0,0.0,0.0,0.0,0.0,0.0,0.0,0.0,0.0,0.0,0.0,0.0,0.0,0.0,0.0,0.0,0.0,0.0,0.0,0.0,0.0,0.0,0.0,0.0,0.0,0.0,0.0,0.0,0.0,0.0,0.0,0.0,0.0,0.0,0.0,0.0,0.0,0.0,0.0,0.0,0.0,0.0,0.0,0.0,0.0,0.0,0.0,0.0,0.0,0.0,0.0,0.0,0.0,0.0,0.0,0.0,0.0,0.0,0.0,0.0,0.0,0.0,0.0,0.0,0.0,0.0,0.0,0.0,0.0,0.0,0.0,0.0,0.0,0.0,0.0,0.0,0.0,0.0,0.0,0.0,0.0,0.0,0.0,0.0,0.0,0.0,0.0,0.0,0.0,0.0,0.0,0.0,0.0,0.0,2.3258,2.3855,2.5827,2.6706,2.6609,2.5282,2.445,2.3649,2.2877,2.0732,0.0,0.0,0.0,0.0,0.0,0.0,0.0,0.0,0.0,0.0,0.0,0.0,0.0,0.0,0.0,0.0,0.0,0.0,0.0,0.0,0.0,0.0,0.0,0.0,0.0,0.0,0.0,0.0,0.0,0.0,0.0,0.0,0.0,0.0,0.0,0.0,0.0,0.0,0.0,0.0,0.0,0.0,0.0,0.0,0.0,0.0,0.0,0.0,0.0,0.0,0.0,0.0,0.0,0.0,0.0,0.0,0.0,0.0,0.0,0.0,0.0,0.0,0.0,0.0,0.0,0.0,0.0,0.0,0.0,0.0,0.0,0.0,0.0,0.0,0.0,0.0,0.0,0.0,0.0,0.0,0.0,0.0,0.0,0.0,0.0,0.0,0.0,0.0,0.0,0.0,0.0,0.0,0.0,0.0,0.0,0.0,0.0,0.0,0.0,0.0,0.0,0.0,2.329,2.3343,0.0,2.4806,2.4444,2.4433,2.3099,2.2399,2.2773,0.0,0.0,0.0,0.0,0.0,0.0,0.0,0.0,0.0,0.0,0.0,0.0,0.0,0.0,0.0,0.0,0.0,0.0,0.0,0.0,0.0,0.0,0.0,0.0,0.0,0.0,0.0,0.0,0.0,0.0,0.0,0.0,0.0,0.0,0.0,0.0,0.0,0.0,0.0,0.0,0.0,0.0,0.0,0.0,0.0,0.0,0.0,0.0,0.0,0.0,0.0,0.0,0.0,0.0,0.0,0.0,0.0,0.0,0.0,0.0,0.0,0.0,0.0,0.0,0.0,0.0,0.0,0.0,0.0,0.0,0.0,0.0,0.0,0.0,0.0,0.0,0.0,0.0,0.0,0.0,0.0,0.0,0.0,0.0,0.0,0.0,0.0,0.0,0.0,0.0,0.0,0.0,0.0,0.0,0.0,0.0,0.0,0.0,0.0,0.0,0.0,0.0,2.4253,2.3325,2.3027,0.0,2.3708,2.3327,2.3764,2.2214,2.1659,2.2712,0.0,0.0,0.0,0.0,0.0,0.0,0.0,0.0,0.0,0.0,0.0,0.0,0.0,0.0,0.0,0.0,0.0,0.0,0.0,0.0,0.0,0.0,0.0,0.0,0.0,0.0,0.0,0.0,0.0,0.0,0.0,0.0,0.0,0.0,0.0,0.0,0.0,0.0,0.0,0.0,0.0,0.0,0.0,0.0,0.0,0.0,0.0,0.0,0.0,0.0,0.0,0.0,0.0,0.0,0.0,0.0,0.0,0.0,0.0,0.0,0.0,0.0,0.0,0.0,0.0,0.0,0.0,0.0,0.0,0.0,0.0,0.0,0.0,0.0,0.0,0.0,0.0,0.0,0.0,0.0,0.0,0.0,0.0,0.0,0.0,0.0,0.0,0.0,0.0,0.0,0.0,0.0,0.0,0.0,0.0,0.0,0.0,0.0,0.0,0.0,0.0,0.0,2.3952,2.3153,2.2856,2.3805,2.388,2.376,2.3422,2.2023,2.1615,0.0,0.0,0.0,0.0,0.0,0.0,0.0,0.0,0.0,0.0,0.0,0.0,0.0,0.0,0.0,0.0,0.0,0.0,0.0,0.0,0.0,0.0,0.0,0.0,0.0,0.0,0.0,0.0,0.0,0.0,0.0,0.0,0.0,0.0,0.0,0.0,0.0,0.0,0.0,0.0,0.0,0.0,0.0,0.0,0.0,0.0,0.0,0.0,0.0,0.0,0.0,0.0,0.0,0.0,0.0,0.0,0.0,0.0,0.0,0.0,0.0,0.0,0.0,0.0,0.0,0.0,0.0,0.0,0.0,0.0,0.0,0.0,0.0,0.0,0.0,0.0,0.0,0.0,0.0,0.0,0.0,0.0,0.0,0.0,0.0,0.0,0.0,0.0,0.0,0.0,0.0,0.0,0.0,0.0,0.0,0.0,0.0,0.0,0.0,0.0,0.0,0.0,0.0,2.3895,2.289,2.2376,2.3007,2.287,2.2728,2.2632,2.1245,2.1011,2.2599,0.0,0.0,0.0,0.0,0.0,0.0,0.0,0.0,0.0,0.0,0.0,0.0,0.0,0.0,0.0,0.0,0.0,0.0,0.0,0.0,0.0,0.0,0.0,0.0,0.0,0.0,0.0,0.0,0.0,0.0,0.0,0.0,0.0,0.0,0.0,0.0,0.0,0.0,0.0,0.0,0.0,0.0,0.0,0.0,0.0,0.0,0.0,0.0,0.0,0.0,0.0,0.0,0.0,0.0,0.0,0.0,0.0,0.0,0.0,0.0,0.0,0.0,0.0,0.0,0.0,0.0,0.0,0.0,0.0,0.0,0.0,0.0,0.0,0.0,0.0,0.0,0.0,0.0,0.0,0.0,0.0,0.0,0.0,0.0,0.0,0.0,0.0,0.0,0.0,0.0,0.0,0.0,0.0,0.0,0.0,0.0,0.0,0.0,0.0,0.0,0.0,0.0,2.3697,2.2718,2.2148,2.2504,2.2415,2.231,2.231,2.088,2.0611,2.2099,0.0,0.0,0.0,0.0,0.0,0.0,0.0,0.0,0.0,0.0,0.0,0.0,0.0,0.0,0.0,0.0,0.0,0.0,0.0,0.0,0.0,0.0,0.0,0.0,0.0,0.0,0.0,0.0,0.0,0.0,0.0,0.0,0.0,0.0,0.0,0.0,0.0,0.0,0.0,0.0,0.0,0.0,0.0,0.0,0.0,0.0,0.0,0.0,0.0,0.0,0.0,0.0,0.0,0.0,0.0,0.0,0.0,0.0,0.0,0.0,0.0,0.0,0.0,0.0,0.0,0.0,0.0,0.0,0.0,0.0,0.0,0.0,0.0,0.0,0.0,0.0,0.0,0.0,0.0,0.0,0.0,0.0,0.0,0.0,0.0,0.0,0.0,0.0,0.0,0.0,0.0,0.0,0.0,0.0,0.0,0.0,0.0,0.0,0.0,0.0,0.0,0.0,2.3408,2.2615,2.2133,2.2281,2.231,2.231,2.231,2.088,2.0399,2.1345,0.0,0.0,0.0,0.0,0.0,0.0,0.0,0.0,0.0,0.0,0.0,0.0,0.0,0.0,0.0,0.0,0.0,0.0,0.0,0.0,0.0,0.0,0.0,0.0,0.0,0.0,0.0,0.0,0.0,0.0,0.0,0.0,0.0,0.0,0.0,0.0,0.0,0.0,0.0,0.0,0.0,0.0,0.0,0.0,0.0,0.0,0.0,0.0,0.0,0.0,0.0,0.0,0.0,0.0,0.0,0.0,0.0,0.0,0.0,0.0,1.9474,0.0,0.0,0.0,0.0,0.0,0.0,0.0,0.0,0.0,0.0,0.0,0.0,0.0,0.0,0.0,0.0,0.0,0.0,0.0,0.0,0.0,0.0,0.0,0.0,0.0,0.0,0.0,0.0,0.0,0.0,0.0,0.0,0.0,0.0,0.0,0.0,0.0,0.0,0.0,0.0,0.0,2.3428,2.2887,2.2505,2.2304,2.231,2.231,2.231,2.088,2.0399,2.1345,2.0137,0.0,0.0,0.0,0.0,0.0,0.0,0.0,0.0,0.0,0.0,0.0,0.0,0.0,0.0,0.0,0.0,0.0,0.0,0.0,0.0,0.0,0.0,0.0,0.0,0.0,0.0,0.0,0.0,0.0,0.0,0.0,0.0,0.0,0.0,0.0,0.0,0.0,0.0,0.0,0.0,0.0,0.0,0.0,0.0,0.0,0.0,0.0,0.0,0.0,0.0,0.0,0.0,0.0,0.0,0.0,0.0,0.0,0.0,0.0,0.0,2.0279,0.0,0.0,0.0,0.0,0.0,0.0,0.0,0.0,0.0,0.0,0.0,0.0,0.0,0.0,0.0,0.0,0.0,0.0,0.0,0.0,0.0,0.0,0.0,0.0,0.0,0.0,0.0,0.0,0.0,0.0,0.0,0.0,0.0,0.0,0.0,0.0,0.0,0.0,0.0,0.0,2.3406,2.2656,2.2177,2.2287,2.231,2.231,2.231,2.1245,2.0611,2.0722,2.004,0.0,0.0,0.0,0.0,0.0,0.0,0.0,0.0,0.0,0.0,0.0,0.0,0.0,0.0,0.0,0.0,0.0,0.0,0.0,0.0,0.0,0.0,0.0,0.0,0.0,0.0,0.0,0.0,0.0,0.0,0.0,0.0,0.0,0.0,0.0,0.0,0.0,0.0,0.0,0.0,0.0,0.0,0.0,0.0,0.0,0.0,0.0,0.0,0.0,0.0,0.0,0.0,0.0,2.3025,2.3959,2.517,2.5089,2.5052,2.5013,2.3851,2.2348,2.0764,2.1786,0.0,0.0,0.0,0.0,0.0,0.0,0.0,0.0,0.0,0.0,0.0,0.0,0.0,0.0,0.0,0.0,0.0,0.0,0.0,0.0,0.0,0.0,0.0,0.0,2.3522,2.4069,2.2868,0.0,0.0,0.0,0.0,0.0,0.0,0.0,0.0,0.0,0.0,0.0,2.3348,2.2356,2.1815,2.2271,2.2237,2.2209,2.2282,2.1545,2.0837,2.0238,2.0179,1.9692,0.0,0.0,0.0,0.0,0.0,0.0,0.0,0.0,0.0,0.0,0.0,0.0,0.0,0.0,0.0,0.0,0.0,0.0,0.0,0.0,0.0,0.0,0.0,0.0,0.0,0.0,0.0,0.0,0.0,0.0,0.0,0.0,1.7371,1.7321,0.0,0.0,0.0,0.0,0.0,0.0,0.0,0.0,0.0,0.0,0.0,0.0,0.0,2.1265,2.3456,2.4465,2.5268,2.5756,2.5971,2.6245,2.6619,2.6246,2.6287,2.6619,2.7063,0.0,2.2919,2.2479,0.0,0.0,0.0,0.0,0.0,0.0,0.0,0.0,0.0,0.0,0.0,0.0,0.0,0.0,0.0,0.0,0.0,0.0,0.0,0.0,0.0,0.0,2.3426,2.3117,2.3117,2.3559,0.0,2.4477,2.3892,2.353,2.3539,0.0,0.0,0.0,0.0,0.0,0.0,0.0,2.3305,2.2678,2.222,2.2293,2.1928,2.1869,2.2282,2.1244,2.0705,2.1025,2.0399,2.0306,2.0934,2.1156,0.0,0.0,0.0,0.0,0.0,0.0,0.0,0.0,0.0,0.0,0.0,0.0,0.0,0.0,0.0,0.0,0.0,0.0,0.0,0.0,0.0,0.0,0.0,0.0,0.0,0.0,0.0,0.0,0.0,1.8174,1.8793,1.8313,1.8929,1.9197,0.0,0.0,0.0,0.0,0.0,0.0,0.0,0.0,0.0,2.1693,2.2161,2.3165,2.4743,2.595,2.6914,2.7671,2.8396,2.9041,2.9465,2.9288,2.9302,2.9448,2.9793,2.8629,2.6515,2.5266,2.4047,2.2907,0.0,0.0,0.0,0.0,2.2246,2.2917,2.3163,2.3345,2.3512,2.3641,0.0,0.0,0.0,0.0,0.0,0.0,0.0,0.0,0.0,0.0,2.4484,2.4226,2.445,2.4778,2.4925,2.4976,2.4826,0.0,2.458,2.4775,2.3901,0.0,0.0,0.0,0.0,2.3259,2.3045,2.2581,2.2209,2.1928,2.1718,2.1598,2.1554,2.1302,2.0862,2.0234,2.0068,2.0001,1.9991,2.0089,2.0577,0.0,0.0,0.0,0.0,0.0,0.0,0.0,0.0,0.0,0.0,0.0,0.0,0.0,0.0,0.0,0.0,0.0,0.0,0.0,0.0,0.0,0.0,0.0,0.0,0.0,0.0,0.0,0.0,1.8894,1.9636,1.8856,1.9662,1.9945,0.0,0.0,0.0,0.0,0.0,0.0,2.0392,2.0961,2.216,2.3987,2.4254,2.5036,2.6342,2.7314,2.834,2.9504,3.045,3.1292,3.2033,3.2033,3.195,3.1925,3.1925,3.1186,2.9785,2.8051,2.6444,2.5029,2.4298,2.3768,2.3421,2.3284,2.3955,2.4979,2.5251,2.5513,2.5762,2.5829,2.5298,2.4391,2.2884,0.0,0.0,0.0,0.0,2.3535,2.3266,2.4348,2.5442,2.5212,2.5708,2.6011,2.5232,2.5522,2.563,0.0,2.5265,2.5476,2.3991,0.0,0.0,0.0,0.0,2.3165,2.2678,2.232,2.1945,2.1491,2.1337,2.1197,2.1023,2.1275,2.1002,2.0024,2.019,2.0061,1.9502,1.959,1.9959,2.0639,0.0,0.0,0.0,0.0,0.0,0.0,0.0,0.0,0.0,0.0,0.0,0.0,0.0,0.0,0.0,0.0,0.0,0.0,0.0,0.0,0.0,0.0,0.0,0.0,0.0,0.0,0.0,0.0,0.0,1.8144,1.9613,0.0,0.0,0.0,0.0,2.0654,2.1655,2.2454,2.29,2.2962,2.3843,2.5744,2.5761,2.7006,2.9481,2.9549,3.0336,3.191,3.1968,3.2484,3.3395,3.3395,3.338,3.3396,3.3396,3.2955,3.2083,2.9879,2.8088,2.663,2.5936,2.6036,2.6446,2.5171,2.5163,2.5847,2.5787,2.5793,2.6013,2.7418,2.7467,2.6736,2.5111,2.4758,0.0,0.0,2.4523,2.4978,2.3991,2.4896,2.5993,2.5637,2.6132,2.6657,2.659,2.6707,2.6463,0.0,2.5269,2.5336,2.4748,0.0,2.4933,2.3779,2.3369,2.2954,2.2235,2.1845,2.146,2.1055,2.0616,2.055,2.0959,2.1023,2.1149,2.1483,2.1262,2.1136,2.1102,2.1085,2.1181,2.1345,2.2133,0.0,0.0,0.0,0.0,0.0,0.0,0.0,0.0,0.0,0.0,0.0,0.0,0.0,0.0,0.0,0.0,0.0,0.0,0.0,0.0,0.0,0.0,0.0,0.0,0.0,0.0,0.0,0.0,2.1356,2.2533,0.0,2.213,2.251,2.2674,2.2286,2.3334,2.4066,2.4175,2.4887,2.5879,2.7271,2.7653,2.8537,3.0041,3.0485,3.1072,3.18,3.2815,3.3498,3.3842,3.45,3.4547,3.4098,3.3679,3.3096,3.2367,3.1125,2.9732,2.8237,2.8044,2.7794,2.7576,2.7557,2.7787,2.8128,2.8522,2.8637,2.8669,2.8662,2.8167,2.7284,2.5788,2.5343,2.5282,2.456,2.4915,2.5398,2.505,2.5732,2.6466,2.6335,2.6505,2.6691,2.6691,2.6742,2.6656,2.6192,2.622,2.5985,2.496,2.495,2.4771,2.3814,2.3222,2.26,2.1874,2.1655,2.1321,2.0616,2.0416,2.0382,2.055,2.04,2.0442,2.0891,2.014,1.9925,2.0416,1.9959,2.023,2.1266,2.1538,2.1962,0.0,0.0,0.0,0.0,0.0,0.0,0.0,0.0,0.0,0.0,0.0,0.0,0.0,0.0,0.0,0.0,0.0,0.0,0.0,0.0,0.0,0.0,0.0,0.0,0.0,0.0,2.267,2.3379,2.415,2.4424,2.4041,2.4319,2.44,2.4275,2.5113,2.5792,2.6163,2.6892,2.772,2.8649,2.9038,2.9504,3.0064,3.0514,3.0995,3.145,3.2555,3.3241,3.3518,3.4192,3.4339,3.3982,3.3554,3.3075,3.2482,3.2048,3.1101,2.9912,2.9663,2.9397,2.9177,2.9259,2.9448,2.9764,3.0164,3.0445,3.0509,2.9631,2.9008,2.8366,2.7114,2.6573,2.6251,2.5744,2.5981,2.6285,2.6048,2.6522,2.7012,2.6759,2.6691,2.6691,2.6691,2.6691,2.6691,2.6691,2.6857,2.6619,2.5436,2.5394,2.529,2.4642,2.394,2.326,2.2635,2.2083,2.1424,2.0547,2.035,2.0314,2.0314,2.0432,2.0608,2.0858,1.9915,1.9662,2.0382,1.9738,1.9991,2.1275,2.1609,2.2228,2.3091,0.0,0.0,0.0,0.0,0.0,0.0,0.0,0.0,0.0,0.0,0.0,0.0,0.0,0.0,0.0,0.0,0.0,0.0,0.0,0.0,0.0,0.0,0.0,2.0427,2.1475,2.258,2.385,2.4087,2.4181,2.4343,2.5214,2.5937,2.6559,2.7042,2.7821,2.89,2.895,2.9214,2.9779,2.9792,2.9792,2.9792,2.9792,3.0279,3.118,3.118,3.1669,3.2522,3.2593,3.2779,3.3068,3.3039,3.2786,3.2452,3.2422,3.2049,3.1407,3.0791,3.0941,3.1317,3.0103,3.0028,3.0493,3.0445,3.0817,3.1215,3.0437,3.0176,3.004,2.9245,2.8484,2.7857,2.7823,2.7823,2.7689,2.6962,2.7283,2.7638,2.6945,2.6742,2.6742,2.6759,2.6759,2.6759,2.6759,2.7105,2.7099,2.626,2.6428,2.6581,2.6231,2.5472,0.0,2.4395,2.3018,2.1739,2.0865,2.0528,2.0361,2.041,2.1197,2.1672,2.1628,2.0723,2.0493,2.117,2.0654,2.0702,2.1515,2.2434,2.3014,2.33,0.0,0.0,0.0,0.0,0.0,0.0,0.0,0.0,0.0,0.0,0.0,0.0,0.0,0.0,0.0,0.0,0.0,0.0,0.0,0.0,0.0,0.0,2.0476,2.0901,2.2024,2.3276,2.4464,2.5648,2.6423,2.6505,2.7372,2.8084,2.8235,2.8775,2.9239,2.9541,2.9553,2.9628,2.9779,2.9792,2.9792,2.9792,2.9792,2.9934,3.0216,3.0908,3.1315,3.1609,3.2321,3.2416,3.2108,3.166,3.1474,3.1518,3.1095,3.1131,3.1452,3.133,3.136,3.1437,3.1135,3.1106,3.1216,3.1187,3.163,3.2141,3.1809,3.1681,3.1444,3.0176,2.9651,2.9364,2.8822,2.867,2.8619,2.8399,2.8095,2.7909,2.8264,2.7926,2.7672,2.823,2.8349,2.8349,2.8349,2.8455,2.81,2.6773,2.6437,2.6207,2.5829,2.4804,0.0,2.35,2.2331,2.1817,2.257,2.1807,2.1663,2.2667,2.2159,2.1882,2.2106,2.082,2.0408,2.117,2.1044,2.1307,2.2055,2.2476,2.2782,0.0,0.0,0.0,0.0,0.0,0.0,0.0,0.0,0.0,0.0,0.0,0.0,0.0,0.0,0.0,0.0,0.0,0.0,0.0,0.0,0.0,0.0,2.0477,2.1396,2.165,2.2467,2.372,2.5327,2.6337,2.7158,2.7553,2.8627,2.9289,2.9289,2.9603,2.9792,2.9792,2.9792,2.9792,2.9792,2.9792,2.9792,2.9792,2.9792,2.9792,2.9792,3.0343,3.062,3.062,3.0929,3.0985,3.0744,3.0133,3.0138,3.0602,3.0391,3.0889,0.0,0.0,0.0,0.0,0.0,3.1482,3.1474,3.1457,3.1702,3.2031,3.1934,3.1849,3.1664,3.0818,3.0362,3.0023,2.9583,2.9448,2.9381,2.9059,2.8873,2.8805,2.8941,2.8636,2.8433,2.889,2.9011,2.9011,2.9011,2.9011,0.0,2.7807,2.7214,2.6838,2.674,2.556,2.4547,2.4217,2.3206,2.2744,2.3359,2.2615,2.2376,2.3227,2.2548,0.0,0.0,0.0,2.0755,2.1266,2.1615,0.0,0.0,0.0,2.2807,2.2773,2.3253,0.0,0.0,2.4855,2.4976,0.0,0.0,0.0,0.0,0.0,0.0,0.0,0.0,0.0,0.0,0.0,0.0,0.0,0.0,0.0,0.0,2.1335,2.1839,2.2565,2.2965,2.3969,2.5964,2.6257,2.6707,2.7844,2.8937,2.9624,2.9792,2.9792,2.9792,2.9792,0.0,0.0,0.0,0.0,2.9767,2.9691,2.9767,2.9767,2.9691,2.9767,2.9792,2.9779,2.9202,2.9043,2.9214,2.8612,2.8825,2.9663,2.9953,3.0831,3.1988,3.1708,3.1541,3.1482,3.1482,3.1482,3.1477,3.1443,0.0,0.0,3.1328,3.1258,3.119,3.119,3.0734,3.0226,3.0226,3.0226,3.0074,2.9397,2.9668,2.9973,2.9364,2.9161,2.9127,2.9211,2.9228,2.9228,2.9228,2.9228,2.9228,2.9228,2.8482,2.7931,2.8218,2.6932,2.5859,2.5711,2.4775,2.3973,2.3631,0.0,0.0,2.2892,2.2656,2.2451,2.231,2.1722,2.1428,2.1507,2.2183,2.2542,2.2487,2.2825,2.2875,2.266,2.2972,2.3165,2.3212,2.3985,2.4302,0.0,0.0,0.0,0.0,0.0,0.0,0.0,0.0,0.0,0.0,0.0,0.0,0.0,0.0,0.0,2.2375,2.2449,2.263,2.3408,2.3644,2.3821,2.4245,2.4771,2.5546,2.6719,2.7775,2.8767,2.9702,2.9792,2.9792,2.9792,2.9792,2.9792,2.9792,2.9792,2.9566,2.9101,2.9566,2.9566,2.9101,0.0,0.0,2.9779,2.9202,2.8698,2.835,2.7779,2.7988,2.8744,2.8826,2.9831,3.1363,3.2034,3.2003,3.1482,3.1482,3.1482,3.1477,3.1443,3.1413,3.139,3.1328,3.1258,3.119,3.119,3.1106,0.0,3.0987,3.0987,3.0954,3.0801,3.0446,3.0226,3.0666,3.0311,3.0057,3.0649,3.0768,3.0768,3.0768,3.0768,3.0768,3.0768,2.9259,2.8048,2.8118,2.6615,2.5498,2.547,2.434,2.3857,2.4602,2.4137,2.3799,2.3991,2.3549,2.3005,2.2344,2.2175,2.2118,2.2118,2.2281,2.2366,2.2338,2.2405,2.2415,2.2388,2.2652,2.2947,2.3189,2.3356,2.3592,0.0,0.0,0.0,0.0,0.0,0.0,0.0,0.0,0.0,0.0,0.0,1.9956,0.0,0.0,2.1891,2.3258,2.3328,2.3379,2.4014,2.373,2.3467,2.3467,2.4268,2.5041,2.5546,2.6625,2.7545,2.8131,2.8131,2.8371,2.8937,2.8937,2.9197,2.9792,2.9792,2.9654,2.9365,2.9641,2.9641,2.9365,2.9654,2.9792,2.9767,2.8913,2.836,2.8059,2.7231,2.7284,2.7958,2.9005,3.0105,3.1219,3.2003,3.1944,3.1482,3.1482,3.1482,3.148,3.1445,3.1219,3.0966,3.0895,3.0635,3.0293,3.0293,3.0293,3.0293,3.0293,3.0293,3.0393,3.0658,3.049,3.0386,3.1027,3.092,3.0751,3.1123,3.119,3.119,3.119,3.119,3.119,3.119,3.0099,2.8968,2.8347,2.6885,2.5723,2.5443,2.4773,2.4449,2.4878,2.4496,2.4152,2.386,2.3274,2.2728,2.2344,2.231,2.231,2.231,2.231,2.231,2.231,2.231,2.231,2.231,2.2409,2.2581,2.2747,2.2747,2.3177,0.0,0.0,0.0,0.0,0.0,0.0,0.0,0.0,1.9552,2.0367,2.0917,2.1534,2.2391,2.297,2.3368,2.389,2.3838,2.3906,2.4248,2.3701,2.3232,2.3154,2.3877,2.4542,2.4787,2.563,2.6224,2.6472,2.6483,2.6883,2.7763,2.7763,2.8187,2.9131,2.9378,2.9406,2.9294,2.9651,2.9729,2.9628,2.9741,2.9729,2.9591,2.8574,2.8047,2.7896,2.7005,2.6866,2.744,2.9529,3.0596,3.0949,3.1667,3.1826,3.1634,3.1498,3.1482,3.1482,3.1482,3.1071,3.049,3.049,2.9988,2.9422,2.9566,2.9614,2.9646,2.9729,2.9761,2.9881,3.0239,3.0434,3.0553,3.0807,3.1036,3.1183,3.1049,3.1112,3.119,3.119,3.1309,3.141,3.141,3.0899,3.0074,2.8812,2.7412,2.6319,2.5675,2.5478,2.5244,2.4835,2.4627,2.412,2.3257,2.2649,2.231,2.231,2.231,2.231,2.231,2.231,2.231,2.231,2.231,2.231,2.231,2.231,2.2349,2.2453,2.2415,2.2925,1.9787,1.8825,1.8368,2.0103,1.9777,1.9981,0.0,0.0,2.1816,2.3243,2.291,2.2482,2.2992,2.3093,2.3369,2.4199,2.4033,2.3809,2.3857,2.3779,2.3574,2.3184,2.3222,2.3724,2.4702,2.4957,2.5378,2.6389,2.6483,2.6554,2.6637,2.6637,2.673,2.6894,2.7775,2.804,2.7562,2.904,2.9528,2.9038,2.9553,2.9528,2.9001,2.8386,2.7846,2.7369,2.7243,2.7218,2.744,2.9529,3.0095,2.9747,3.1089,3.1805,3.2,3.1649,3.1482,3.1482,3.1482,3.1071,3.049,3.049,2.9988,2.9518,3.0112,3.0288,3.0416,3.0991,3.1166,3.107,3.0541,3.0845,3.0989,2.9891,3.0468,3.1127,3.0525,3.0838,3.119,3.119,3.1715,3.2195,3.2195,3.1692,3.0811,2.948,2.8207,2.7098,2.639,2.6178,2.5747,2.4884,2.4627,2.3934,2.2547,2.2361,2.231,2.231,2.231,2.231,2.231,2.231,2.231,2.231,2.231,2.231,2.231,2.231,2.2588,2.3087,2.2772,2.2721,2.1038,2.0845,0.0,0.0,2.1461,2.1935,2.2827,2.2897,2.2846,2.3352,2.3732,2.3975,2.3906,2.4092,2.4297,0.0,2.4062,2.3789,2.3789,2.3359,2.2891,2.2461,2.2412,2.2758,2.375,2.38,2.4049,2.4478,2.4563,2.4808,2.5473,2.5546,2.5797,2.6472,2.6964,2.7348,2.7763,2.8186,2.8516,2.8925,2.885,2.8687,2.8436,2.7871,2.7318,2.6804,2.6804,2.6804,2.6936,2.8132,2.8905,2.9508,2.9736,3.0768,3.204,3.1471,3.1589,3.2048,3.1616,3.1065,3.0509,3.0509,3.0029,2.9566,2.9843,2.9935,2.9997,3.0274,3.0351,3.0377,3.0435,3.066,3.0822,3.0624,3.0987,3.1297,3.0937,3.0789,3.0833,3.1191,3.1209,3.1451,3.2204,3.2139,3.167,3.0712,2.9127,2.8049,2.8019,2.7284,2.6356,2.5363,2.4402,2.3596,2.2987,2.2547,2.231,2.231,2.231,2.231,2.231,2.231,2.231,2.231,2.231,2.231,2.231,2.231,2.2517,2.2923,2.2772,2.2695,2.1779,0.0,0.0,2.1844,2.2409,2.2994,2.2618,2.3244,2.39,2.3781,2.4502,2.4971,2.4658,2.4658,2.4609,2.4297,2.3887,2.3574,2.3457,2.2803,2.2178,2.1758,2.1602,2.1807,2.2539,2.2832,2.3018,2.3125,2.3135,2.3474,2.4296,2.4296,2.4713,2.5557,2.576,2.6341,2.738,2.7191,2.7657,2.8699,2.8298,2.8021,2.7858,2.7306,2.6841,2.6533,2.6533,2.6533,2.6571,2.7055,2.7921,2.8864,2.8508,2.9605,3.1326,3.0913,3.1351,3.2168,3.1704,3.1076,3.0507,3.0507,3.0088,2.9609,2.9789,2.9834,2.9879,3.0058,3.0118,3.0168,3.0426,3.0661,3.0812,3.0873,3.132,3.1598,3.1175,3.1029,3.1029,3.1303,3.1128,3.1293,3.225,3.2425,3.2272,3.1775,3.0272,2.9134,2.8951,2.7772,2.6614,2.5711,2.4458,2.3613,2.341,2.2733,2.231,2.231,2.231,2.231,2.231,2.231,2.231,2.231,2.231,2.231,2.231,2.236,2.2554,2.2848,2.2848,2.2898,2.1429,0.0,2.071,2.1565,2.1834,2.235,2.3987,2.4732,2.5192,2.5566,2.5342,2.5059,2.5049,2.4385,2.3828,2.3809,2.3437,2.3018,2.2607,2.2178,2.1738,2.1309,2.0869,2.0781,0.0,2.2041,2.2705,2.3105,2.3135,2.3135,2.3135,2.3135,2.3135,2.3222,2.3885,2.4701,2.5652,2.6329,2.71,2.8134,2.8109,2.7821,2.7293,2.6741,2.6546,2.6533,2.6533,2.6533,2.6571,2.7055,2.7293,2.7427,2.7943,2.8697,2.9581,2.9791,3.0568,3.1497,3.1482,3.1076,3.0507,3.0507,3.0088,2.9699,3.0298,3.0477,3.0612,3.1285,3.1422,3.133,3.0642,3.0971,3.115,2.9933,3.1104,3.2085,3.0803,3.1486,3.2145,3.1518,3.1981,3.246,3.2476,3.2576,3.2515,3.2397,3.1775,3.054,2.8408,2.732,2.6437,2.5693,2.4915,2.4201,2.346,2.2733,2.231,2.231,2.231,2.231,2.231,2.231,2.231,2.231,2.231,2.231,2.231,2.2563,2.2873,2.3189,2.3189,2.3369,2.2833,0.0,2.256,2.2583,2.3311,2.415,2.4717,2.4961,2.5117,2.5264,2.4623,2.3874,2.3487,2.2792,2.221,2.2139,2.2271,2.2256,2.2119,2.2217,2.1816,2.0508,2.0742,0.0,0.0,0.0,0.0,2.2676,2.2461,2.2549,2.3105,2.2881,2.2852,2.3125,2.3325,2.3852,2.468,2.4505,2.5111,2.6615,2.6884,2.6917,2.6728,2.6609,2.6533,2.6533,2.6533,2.6533,2.6546,2.6653,2.6954,2.7268,2.708,2.7754,2.8847,2.9125,2.9874,3.0777,3.1278,3.1317,3.118,3.118,3.1046,3.0911,3.112,3.118,3.124,3.1407,3.1482,3.1422,3.124,3.1302,3.1362,3.0986,3.1354,3.1844,3.1813,3.1451,3.1332,3.2008,3.1638,3.1474,3.242,3.2228,3.1911,3.1773,3.1033,3.0074,2.885,2.7955,2.6979,2.5744,2.4932,2.4188,2.346,2.2733,2.231,2.231,2.231,2.231,2.231,2.231,2.231,2.231,2.231,2.231,2.231,2.2388,2.2695,2.3189,2.3189,2.3392,2.4096,2.4068,2.3613,2.3719,2.4395,2.5068,2.5068,2.5068,2.4893,2.4287,2.3527,2.2727,2.2186,2.1206,2.075,2.1228,2.1054,2.1046,2.1589,2.1757,2.145,2.0478,2.0742,2.083,0.0,0.0,0.0,2.2217,2.2314,2.25,2.2891,2.2803,2.2861,2.3135,2.2988,2.3198,2.3864,2.3311,2.3688,2.4947,2.529,2.5652,2.5943,2.5943,2.6164,2.6533,2.6533,2.6533,2.6533,2.6533,2.6666,2.6954,2.6603,2.7178,2.8278,2.8821,2.9566,3.0389,3.1219,3.1482,3.1482,3.1482,3.1482,3.1482,3.1482,3.1482,3.1482,3.1482,3.1482,3.1482,3.1482,3.1482,3.1482,3.1482,3.1894,3.2283,3.2473,3.2259,3.2138,3.2774,3.2207,3.1805,3.2435,3.1958,3.1534,3.1686,3.0589,2.9533,2.9042,2.7841,2.6657,2.571,2.4695,2.39,2.3427,2.2733,2.231,2.231,2.231,2.231,2.231,2.231,2.231,2.231,2.231,2.231,2.231,2.2415,2.2643,2.3021,2.3141,2.3392,2.5037,2.4414,2.3849,2.4864,2.5068,2.5068,2.5163,2.5075,2.4526,2.2945,2.2281,2.1814,0.0,0.0,1.94,2.0956,2.0027,1.9685,2.1151,2.0847,2.0668,0.0,0.0,0.0,0.0,0.0,0.0,2.1826,0.0,2.29,2.2568,2.29,2.3115,2.3135,2.2734,2.2695,2.3252,2.2851,2.2928,2.3441,2.3452,2.4036,2.5004,2.5004,2.5523,2.6533,2.6533,2.6533,2.6533,2.6533,2.6533,2.6533,2.6533,2.6973,2.7802,2.8684,2.9566,3.0389,3.1219,3.1482,3.1482,3.1482,3.1482,3.1482,3.1482,3.1482,3.1482,3.1482,3.1482,3.1482,3.1482,3.1482,3.1482,3.1482,3.2555,3.3391,3.2788,3.3633,3.4333,3.3735,3.355,3.3259,3.2522,3.1799,3.1477,3.2049,3.0345,2.9011,2.9011,2.7046,2.5642,2.5558,2.4289,2.3427,2.3342,2.2699,2.231,2.231,2.231,2.231,2.231,2.231,2.231,2.231,2.231,2.231,2.231,2.2563,2.2721,2.2746,2.3069,2.3414,2.4534,2.4708,2.4716,2.5071,2.5068,2.5342,2.6155,2.4859,2.367,2.3981,2.2316,2.06,0.0,0.0,0.0,1.9692,2.0052,0.0,2.1568,2.2158,0.0,2.1318,0.0,2.1807,2.1289,2.1709,0.0,0.0,2.1787,2.209,2.293,2.2783,2.2812,2.3125,2.2734,2.2389,2.2277,2.2169,2.2229,2.2403,2.3147,2.4036,2.5004,2.5004,2.5523,2.6533,2.6533,2.6533,2.6533,2.6533,2.6533,2.6533,2.6533,2.6973,2.7802,2.8684,2.9566,3.0389,3.1219,3.1482,3.1482,3.1482,3.1482,3.1482,3.1482,3.1482,3.1482,3.1482,3.1482,3.1482,3.1482,3.1482,3.1482,3.1482,3.2216,3.2933,3.3287,3.3235,3.3198,3.3547,3.2688,3.1758,3.1103,3.118,3.1001,3.0137,2.9441,2.9011,2.9011,2.7486,2.5998,2.4881,2.4425,2.3765,2.2682,2.2412,2.231,2.231,2.231,2.231,2.231,2.231,2.231,2.231,2.231,2.231,2.231,2.2563,2.2822,2.3069,2.3414,2.3735,2.5135,2.5273,2.5068,2.5068,2.5068,2.5036,2.4898,2.4,2.2885,2.2014,2.0818,0.0,1.8744,1.7771,0.0,0.0,0.0,0.0,2.1392,2.2132,2.2414,0.0,2.25,0.0,2.2119,2.2735,2.3052,0.0,2.2207,2.2305,2.2832,2.2812,2.2891,2.3135,2.291,2.25,2.1894,2.1529,2.1375,2.1364,2.1973,2.301,2.4337,2.4337,2.5146,2.6533,0.0,2.6533,2.6533,2.6533,2.6533,2.6533,2.6533,2.7229,2.8298,2.8812,2.9766,3.0896,3.1351,3.1482,3.1482,3.1482,3.1482,3.1482,3.1482,3.1482,3.1482,3.1482,3.1482,3.1482,3.1482,3.1482,3.1482,3.1482,3.2064,3.2695,3.3093,3.3339,3.3582,3.3987,3.285,3.1787,3.1388,3.1086,3.0665,3.0159,2.9446,2.9011,2.9011,2.7368,2.5896,2.5067,2.4391,2.3663,2.2852,2.2496,2.231,2.231,2.231,2.231,2.231,2.231,2.231,2.231,2.231,2.231,2.231,2.2563,2.2797,2.2996,2.3305,2.3671,2.6198,2.5969,2.5163,2.5342,2.508,2.4345,2.2964,2.2746,2.1973,1.9147,0.0,1.8805,1.7982,1.6572,1.6443,1.9172,0.0,1.8639,2.1353,2.1845,2.2249,2.3238,2.3222,2.3135,2.3135,2.3788,2.3959,2.3193,2.3222,2.3142,2.2617,2.2939,2.3115,2.3057,2.2998,2.2598,2.1807,2.0977,2.0566,2.0566,2.0712,2.1745,2.3514,2.3672,2.4696,2.6533,2.6533,2.6533,2.6533,2.6533,2.6533,2.6533,2.6533,2.755,2.9002,2.9002,3.0072,3.1482,3.1482,3.1482,3.1482,3.1482,3.1482,3.1482,3.1482,3.1482,3.1482,3.1482,3.1482,3.1482,3.1482,3.1482,3.1482,3.1482,3.2064,3.2586,3.2586,3.3479,3.4333,3.4219,3.3188,3.236,3.2285,3.1265,3.0567,3.0977,2.9956,2.9059,2.8856,2.7029,2.571,2.5625,2.4458,2.3646,2.3545,2.2868,2.2462,2.2462,2.2361,2.231,2.231,2.231,2.231,2.231,2.231,2.2338,2.2332,2.2625,2.2797,2.2848,2.3165,2.35,2.6401,2.5979,2.5342,2.6341,2.4785,2.2954,2.3102,2.152,0.0,0.0,1.9029,1.8129,1.7518,1.7628,1.8226,1.9472,2.0075,2.123,2.3853,2.3414,2.3289,0.0,2.3637,2.3135,2.3135,2.4063,0.0,0.0,2.3963,2.4094,2.3027,2.3096,2.2978,2.2627,2.2285,2.1865,2.1357,2.083,2.0566,2.0644,2.1375,2.2403,2.3514,2.4337,2.537,2.6533,2.6533,0.0,2.6533,2.6533,2.6533,2.6533,2.6533,2.755,2.9002,2.9002,3.0072,3.1482,3.1482,3.1482,3.1482,3.1482,3.1482,3.1482,3.1482,3.1482,3.1482,3.1482,3.1482,3.1482,3.1482,3.1482,3.1482,3.1482,3.2064,3.2586,3.2586,3.2788,3.2788,3.2145,3.1804,3.1598,3.1598,3.1265,3.0853,3.0357,3.0074,2.9465,2.818,2.7131,2.6285,2.5676,2.5372,2.4966,2.434,2.363,2.3207,2.3207,2.2649,2.231,2.231,2.231,2.231,2.231,2.231,2.2398,2.2634,2.2947,2.3277,2.3544,2.3876,2.4074,2.7001,2.7131,2.6932,2.6982,2.5455,2.3722,2.2753,0.0,0.0,0.0,1.8235,1.7838,1.7519,1.7666,0.0,1.9538,2.012,2.1231,2.3559,2.3635,0.0,2.5098,2.4987,2.4638,0.0,2.5052,2.4967,2.3222,2.4125,2.4296,2.3135,2.293,2.2725,2.2519,2.21,2.1787,2.1582,2.1357,2.1133,2.0918,2.1875,2.2929,2.3895,2.4681,2.5523,2.6533,2.6533,2.6533,2.6533,2.6533,2.6533,2.6521,2.6973,2.7855,2.9066,2.9504,3.045,3.1482,3.1482,3.1482,3.1482,3.1482,3.1482,3.1482,3.1482,3.1285,3.1076,3.1377,3.127,3.1076,3.1377,3.1482,3.1482,3.1482,3.1796,3.212,3.2547,3.2586,3.2492,3.212,3.1717,3.1438,3.1406,3.1029,3.0721,3.0678,3.0362,2.9837,2.911,2.8349,2.7435,2.6302,2.5828,2.5456,2.5101,2.4036,2.3393,2.3393,2.2716,2.231,2.231,2.231,2.231,2.231,2.2453,2.2573,2.2695,2.3212,2.3544,2.3714,2.4036,2.419,2.8014,2.8203,2.8163,2.7635,2.6125,2.431,2.2225,2.0849,0.0,0.0,1.7373,1.769,1.762,0.0,1.7877,0.0,1.9785,2.0724,2.2935,2.3819,2.4681,0.0,2.6473,0.0,2.5294,2.6213,0.0,2.3973,2.4467,2.4245,2.3008,2.2685,2.251,2.251,2.21,2.1934,2.2021,2.1934,2.1873,2.1669,2.2731,2.3667,2.4544,2.5205,2.5844,2.6533,2.6533,2.6533,2.6533,2.6533,2.6589,2.685,2.7484,2.8363,2.938,3.0072,3.0837,3.1482,3.1482,3.1482,3.1482,3.1482,3.1482,3.1482,3.1482,3.115,3.0836,3.1317,3.1144,3.082,3.1321,3.1456,3.1501,3.1495,3.1482,3.164,3.2216,3.2382,3.2382,3.2382,3.1856,3.1438,3.1406,3.0896,3.0658,3.1151,3.0717,3.0294,3.0125,2.9583,2.8704,2.7334,2.6522,2.6082,2.6082,2.4729,2.3866,2.3866,2.319,2.2699,2.2547,2.2547,2.2462,2.231,2.2563,2.2746,2.2822,2.3414,2.3753,2.3816,2.4074,2.419,2.9332,2.8563,2.7471,2.8468,2.5804,2.2662,2.1609,0.0,1.8173,1.7113,1.7191,1.746,1.7579,1.7724,0.0,0.0,0.0,2.101,2.3716,2.4747,2.5828,2.7273,0.0,0.0,2.6461,2.7279,0.0,2.6307,2.5294,2.4122,2.2673,2.2539,2.251,2.251,2.21,2.207,2.2451,2.207,2.2411,2.328,2.4301,2.5074,2.5668,2.6623,2.6859,2.6533,2.6533,2.6533,0.0,2.6533,2.6905,2.7604,2.767,2.8748,3.0208,3.0269,3.0837,3.1482,3.1482,3.1482,3.1482,3.1482,3.1482,3.1482,3.1482,3.1437,3.1392,3.1452,3.1379,3.1305,3.1366,3.1397,3.1404,3.1489,3.1482,3.1524,3.1582,3.1582,3.1582,3.1582,3.1523,3.1406,3.1406,3.1248,3.1151,3.119,3.114,3.0852,3.0192,3.004,2.9685,2.8892,2.8078,2.7587,2.7587,2.6268,2.5406,2.5406,2.4695,2.3985,2.3325,2.3291,2.2987,2.2327,2.2563,2.2848,2.3141,2.3522,2.3876,2.4151,2.419,2.419,2.9574,2.9628,2.9169,2.8924,2.6367,2.3642,2.2459,0.0,1.8091,1.751,1.7551,1.7743,1.7827,1.8037,1.8232,0.0,0.0,0.0,2.2088,2.2895,2.445,2.7688,2.7945,0.0,0.0,0.0,2.7683,2.6554,2.6058,2.5304,2.4073,2.2847,2.2012,2.1748,2.211,2.2614,2.3063,2.379,2.4401,2.4872,2.5903,2.6499,2.6745,2.7112,2.7155,2.6929,2.6603,2.6533,0.0,2.704,2.7417,2.7802,2.8876,2.969,3.0329,3.0837,3.1219,3.1482,3.1482,3.1482,3.1582,3.2007,3.2176,3.2064,3.164,3.1222,3.1014,3.1357,3.1424,3.1442,3.1407,3.1399,3.1528,3.2048,3.1796,3.1482,3.1482,3.1482,3.164,3.2064,3.1768,3.155,3.1929,3.1539,3.119,3.119,3.119,3.1089,3.0801,3.0768,3.0649,3.0345,2.8822,2.7789,2.7789,2.6454,2.5609,2.5609,2.4492,2.3697,2.341,2.297,2.2598,2.231,2.2755,2.3069,2.3189,2.3735,2.4074,2.4208,2.4685,2.4649,2.9408,3.0391,3.0632,2.9618,2.7223,2.475,0.0,0.0,1.8506,1.8155,1.8125,1.8162,1.8197,1.8291,1.8261,0.0,0.0,1.889,2.0429,2.1539,2.3462,0.0,0.0,2.8042,0.0,2.9189,2.8469,2.7035,2.6964,2.6358,2.5049,2.3594,2.2614,2.2086,2.2955,2.3624,2.4084,2.5286,2.6095,2.6508,2.707,2.7394,2.7533,2.7394,2.7193,2.7017,2.6628,2.6658,0.0,2.7484,2.7986,2.862,2.9827,3.0334,3.044,3.1203,3.1504,3.1494,3.1479,3.1769,3.217,3.2446,3.2598,3.2522,3.2195,3.1643,3.1221,3.1638,3.1575,3.1404,3.139,3.141,3.1545,3.2167,3.1743,3.1285,3.1437,3.1317,3.1498,3.2391,3.1974,3.1598,3.2285,3.1725,3.119,3.119,3.119,3.119,3.119,3.119,3.119,3.119,2.9381,2.8163,2.8163,2.6793,2.593,2.593,2.4746,2.3951,2.3714,2.3021,2.253,2.231,2.2883,2.3189,2.3189,2.3876,2.419,2.4208,2.5035,2.5109,2.8984,3.0403,3.1382,3.0676,2.8307,2.5757,0.0,0.0,1.9389,1.9058,1.8893,1.8771,1.8699,1.8428,1.8027,1.7482,1.7897,0.0,1.9214,2.1556,0.0,0.0,0.0,2.7322,2.901,3.0414,3.0329,2.8243,2.8084,0.0,2.5127,2.4993,2.4692,2.42,2.4658,2.5139,2.5538,2.6214,2.7035,2.8072,2.7561,2.7597,2.8097,2.7532,2.6979,2.6533,2.6533,2.6973,0.0,2.767,2.8748,3.0269,3.0269,3.0368,3.0597,3.1285,3.1541,3.1579,3.1427,3.2374,3.347,3.2748,3.2574,3.272,3.3374,3.3051,3.2458,3.2458,3.1931,3.1324,3.1358,3.1406,3.1426,3.1464,3.1016,3.0702,3.139,3.1001,3.0925,3.2353,3.1974,3.1598,3.2285,3.1725,3.119,3.119,3.119,3.119,3.119,3.119,3.119,3.119,2.9854,2.9011,2.9011,2.7554,2.6674,2.6674,2.5998,2.5253,2.4523,2.3765,2.3054,2.2327,2.2883,2.3189,2.3189,2.3876,2.419,2.4208,2.5035,2.5403,2.6195,2.6872,2.7024,2.6413,2.4665,2.2817,2.1578,1.9782,1.8361,1.8371,1.8346,1.845,1.8888,1.8699,1.834,1.7931,1.78,0.0,0.0,0.0,0.0,2.659,3.0061,3.1886,0.0,0.0,3.0748,2.9138,2.8966,2.8283,2.6664,2.6554,2.5704,2.3772,2.4906,2.5616,2.5779,2.694,2.7748,2.8063,2.7903,2.7953,2.8084,2.7532,2.718,2.7005,2.6697,2.6973,2.7736,2.8363,2.9254,3.0286,3.0397,3.0446,3.0533,3.0715,3.0859,3.098,3.1829,3.245,3.2976,3.373,3.3958,3.4087,3.4781,3.3815,3.2498,3.2381,3.1842,3.1375,3.1958,3.1386,3.0862,3.142,3.0713,2.9939,3.0163,3.0379,3.0911,3.2345,3.2337,3.2479,3.3623,3.3212,3.2527,3.2019,3.1935,3.1749,3.1258,3.119,3.1004,3.0497,2.9567,2.9011,2.9011,2.7571,2.6691,2.6691,2.5524,2.4729,2.4523,2.3308,2.2547,2.231,2.2883,2.3478,2.4027,2.413,2.4777,2.586,2.6098,2.6227,0.0,2.5103,2.5645,2.503,2.3722,0.0,0.0,0.0,1.8594,1.8311,1.8451,1.8666,1.8775,1.8696,1.8553,1.843,1.8141,1.8121,0.0,0.0,0.0,2.7578,0.0,0.0,0.0,3.183,3.1668,3.0351,2.976,2.8935,2.7818,2.7468,2.6498,2.4707,2.5781,2.636,2.636,2.7518,2.8109,2.8109,2.7896,2.7795,2.777,2.7218,2.6967,2.6954,2.6684,2.7162,0.0,2.8812,2.9549,3.0353,3.0488,3.0208,2.9868,3.0308,3.0522,3.0649,3.171,3.2383,3.2927,3.3553,3.4122,3.4535,3.4374,3.3866,3.3111,3.2478,3.1952,3.1678,3.1913,3.1216,3.0513,3.1067,3.037,2.9735,3.0236,3.0624,3.1397,3.3031,3.3059,3.3148,3.4317,3.3897,3.3152,3.2391,3.2313,3.2019,3.1275,3.119,3.1021,3.0565,2.96,2.9011,2.9011,2.7571,2.6691,2.6691,2.5336,2.4506,2.4506,2.3088,2.2349,2.2436,2.294,2.3508,2.4141,2.4483,2.5474,2.7053,2.7053,2.7053,0.0,2.4321,2.6099,2.5506,0.0,0.0,0.0,0.0,0.0,1.8734,1.8967,1.9182,1.8534,1.8515,1.8681,1.894,1.8886,1.9004,0.0,2.1883,0.0,0.0,3.1055,0.0,3.0747,3.2155,3.2759,3.1723,3.0349,2.9249,2.8571,2.7842,2.7189,2.6671,2.7151,2.7359,2.7218,2.7733,2.7996,2.7984,2.7394,2.713,2.7143,2.6628,2.6471,0.0,2.6577,2.7537,2.9115,2.9024,2.9583,3.0492,3.0458,2.9693,2.8809,3.0048,3.0511,3.0596,3.1172,3.2233,3.322,3.256,3.3305,3.4167,3.278,3.3322,3.41,3.2628,3.2205,3.2083,3.145,3.0826,3.0433,3.0557,3.0064,2.9925,3.1249,3.1539,3.2143,3.4069,3.398,3.3769,3.4385,3.3931,3.3203,3.2432,3.2313,3.2019,3.1275,3.119,3.1173,3.1123,2.9837,2.8958,2.8907,2.7537,2.6691,2.6691,2.5387,2.4557,2.4506,2.3122,2.2477,2.2695,2.3098,2.3481,2.3825,2.5006,2.6358,2.7787,2.786,2.7842,1.7868,0.0,2.0133,2.0638,2.0539,2.023,0.0,0.0,0.0,0.0,0.0,1.8428,1.9486,1.9087,1.8833,1.955,1.9982,2.0383,2.0788,0.0,0.0,3.0618,3.4146,3.518,3.1795,3.3152,3.3458,3.146,3.1013,3.0269,2.8886,2.8652,2.8511,2.8441,2.8498,2.8,2.6722,2.6779,2.6854,2.6841,2.5862,2.5611,2.5988,2.5862,2.6187,2.6857,2.7222,2.8427,2.9968,2.9437,2.974,3.0458,2.9953,2.9561,2.9388,3.0092,3.0342,3.0537,3.1683,3.2293,3.2611,3.3,3.3372,3.3592,3.3254,3.3389,3.3355,3.1867,3.1444,3.1443,3.1318,3.0822,3.0461,3.1087,3.0752,3.0338,3.0672,3.156,3.2397,3.2879,3.3684,3.4297,3.4489,3.4353,3.3795,3.2476,3.2313,3.2019,3.1275,3.119,3.097,3.0429,2.9533,2.8738,2.8146,2.7232,2.6691,2.6691,2.5845,2.5084,2.4523,2.3613,2.2988,2.2712,2.3886,2.4679,2.499,2.6499,2.742,2.7805,2.8429,2.8393,1.6049,1.7239,1.8621,1.9075,1.95,1.9807,0.0,0.0,0.0,0.0,0.0,0.0,1.9375,1.9315,1.9332,1.9981,2.1225,0.0,0.0,0.0,0.0,3.2409,3.4713,3.5578,0.0,3.4509,3.4069,3.2396,3.154,3.05,2.9112,2.8722,2.8349,2.8085,2.8085,2.78,2.721,2.7223,2.7013,2.6725,2.6109,2.5965,2.6254,2.6254,2.6651,2.7449,2.7695,2.8588,2.9808,2.9462,2.9601,3.0,2.9612,2.9479,2.9517,3.0082,3.0293,3.0443,3.1453,3.1907,3.2137,3.2547,3.3063,3.3425,3.308,3.3218,3.3244,3.206,3.1698,3.1618,3.1324,3.1007,3.0925,3.1323,3.1424,3.1437,3.1437,3.2463,3.3328,3.2994,3.3748,3.4387,3.4049,3.3998,3.3609,3.2442,3.2313,3.1901,3.0835,3.07,3.0412,2.9668,2.8907,2.8281,2.7823,2.7131,2.6791,2.6954,2.6095,2.5501,2.5309,2.4394,2.3927,2.3972,2.4599,2.5419,2.6484,2.7365,2.7989,2.8356,2.8792,2.8778,1.5542,1.7359,1.9176,1.9048,1.9663,2.0347,0.0,0.0,0.0,0.0,0.0,0.0,0.0,0.0,0.0,0.0,0.0,0.0,2.8032,2.8875,3.0395,3.3645,3.4623,0.0,3.6471,3.5709,3.4737,3.3762,3.2118,3.0701,2.9657,2.8882,2.8195,2.7681,2.7681,2.7907,2.8372,2.7922,2.7473,2.6973,2.684,2.6813,2.6895,2.6895,2.7258,2.795,0.0,0.0,2.9363,2.9262,2.9327,2.9518,2.9508,2.9533,2.9629,3.0208,3.0435,3.0518,3.1078,3.1507,3.1825,3.188,3.2599,3.3333,3.2679,3.2944,3.3284,3.2526,3.2287,3.2072,3.1382,3.129,3.1404,3.1504,3.2017,3.2464,3.2464,3.346,3.4117,3.3372,3.3829,3.41,3.3355,3.3237,3.2983,3.2222,3.2121,3.1664,3.0429,3.0197,2.9949,2.9304,2.8509,2.7964,2.7964,2.7317,2.7051,2.7422,2.6333,2.5794,2.6021,2.5146,2.4902,2.5403,2.5153,2.5896,2.7702,2.7702,2.8146,2.8994,2.8994,2.8994,1.6153,1.7771,1.9095,1.8298,1.874,1.959,2.0336,0.0,0.0,0.0,0.0,0.0,0.0,0.0,0.0,0.0,0.0,2.7599,0.0,0.0,3.5072,3.499,0.0,3.7622,3.5329,3.5742,3.5705,3.4688,3.34,3.2317,3.1546,3.1085,3.0801,3.0751,3.0736,3.0516,3.0047,2.7674,2.6648,2.696,2.6086,2.588,2.6318,2.6318,2.6776,2.7596,0.0,2.8768,2.9506,2.8955,2.904,2.9472,2.9437,2.9726,3.0251,3.0838,3.1055,3.1117,3.1565,3.1752,3.1861,3.2264,3.2521,3.2643,3.2519,3.2573,3.2661,3.2492,3.2178,3.1777,3.1325,3.1235,3.1375,3.1999,3.2276,3.2319,3.2319,3.2992,3.3355,3.2594,3.3051,3.3339,3.2594,3.2459,3.2205,3.1461,3.136,3.1275,3.1055,3.0734,3.0471,3.035,2.944,2.882,2.882,2.8147,2.7851,2.8219,2.6825,2.5781,2.5213,2.5302,2.526,2.5073,2.5297,2.6032,2.7302,2.7302,2.7882,2.8994,2.8994,2.8994,1.5636,1.7142,1.8391,1.7948,1.9585,2.1282,2.1214,0.0,0.0,0.0,0.0,0.0,0.0,0.0,0.0,0.0,0.0,2.9166,3.3012,3.3196,3.3707,0.0,0.0,3.6742,3.6552,3.6686,3.6168,3.4677,3.3794,3.2931,3.2017,3.167,3.1349,3.1018,3.0794,3.0291,2.9578,2.809,2.7497,2.7797,2.7329,2.7211,2.7439,2.7113,2.7712,2.9073,0.0,2.9355,3.0018,2.9707,2.9721,2.9945,2.9891,3.0251,3.0838,3.1112,3.1057,3.0979,3.1578,3.1864,3.2016,3.2684,3.3045,3.3196,3.3196,3.3196,3.3166,3.2952,3.2366,3.1752,3.1565,3.164,3.1867,3.2205,3.2594,3.278,3.2415,3.2882,3.3068,3.1918,3.229,3.256,3.1816,3.1698,3.1579,3.1241,3.119,3.0963,3.0375,3.0144,2.978,2.919,2.8687,2.8428,2.8428,2.8092,2.7982,2.8129,2.7636,2.7116,2.6584,2.6329,2.6402,2.6836,2.6603,2.7036,2.816,2.816,2.8474,2.8994,2.8994,2.8994,1.5254,1.6632,1.7796,1.7771,0.0,2.2361,2.2132,0.0,0.0,0.0,0.0,0.0,0.0,0.0,0.0,2.9368,2.973,3.0501,3.35,3.2579,3.2951,3.6579,3.611,3.6102,3.7724,3.7289,3.6321,3.4874,3.4094,3.3332,3.2523,3.1921,3.1429,3.0952,3.0362,2.975,2.918,2.889,2.8613,2.8451,2.8295,2.8389,2.8685,2.8054,2.862,3.016,2.9658,2.9753,3.016,3.016,3.0218,3.0276,3.0112,3.0292,3.0738,3.0989,3.0754,3.0491,3.1498,3.1909,3.2119,3.2832,3.3277,3.355,3.3733,3.3678,3.3496,3.3364,3.2759,3.2092,3.1861,3.1857,3.189,3.1805,3.207,3.2256,3.185,3.2222,3.2341,3.1376,3.1647,3.185,3.1292,3.119,3.123,3.1329,3.1351,3.1008,3.0023,2.9859,2.9421,2.8408,2.82,2.8147,2.8147,2.8147,2.8147,2.8147,2.8316,2.82,2.7753,2.7361,2.7522,2.8272,2.7653,2.7807,2.8863,2.87,2.87,2.8863,2.8863,2.8863,1.5809,1.6997,1.7761,1.7642,1.9027,0.0,2.2533,2.2908,0.0,0.0,0.0,0.0,0.0,0.0,2.5188,2.7858,2.9576,3.2006,3.6042,0.0,3.6786,3.7796,3.7805,3.7693,3.7546,3.6804,3.6198,3.5819,3.4674,3.3948,3.3863,3.2484,3.1678,3.1631,3.0623,3.0053,3.0001,2.9969,2.943,2.8327,2.7604,2.8013,2.93,2.8586,2.871,2.9486,2.9441,2.9441,2.9486,2.9486,2.981,3.0227,2.9552,2.9226,2.9285,3.035,3.0249,2.9813,3.1439,3.1989,3.2087,3.2492,3.2661,3.2834,3.3568,3.3293,3.2852,3.356,3.3447,3.2903,3.2022,3.1287,3.0713,3.0357,2.977,2.9482,3.0125,3.0311,3.0514,3.1089,3.1241,3.1258,3.1207,3.119,3.1312,3.1696,3.1752,3.162,3.1238,3.0903,3.0402,2.9584,2.9155,2.8929,2.8929,2.8929,2.8929,2.8929,2.859,2.8052,2.727,2.7918,2.8165,2.7954,2.7507,2.7694,2.8446,2.7747,2.7776,2.8446,2.8446,2.8446,1.5109,1.6903,1.8138,1.6952,0.0,0.0,0.0,0.0,0.0,0.0,0.0,0.0,0.0,0.0,2.7156,2.8769,3.0385,3.258,3.5831,3.5785,3.607,3.7849,3.7618,3.7224,3.7022,3.6734,3.6071,3.4939,3.4242,3.3639,3.311,3.2353,3.1945,3.1945,3.1317,3.0739,3.0234,2.9809,2.9372,2.8918,2.8588,2.8732,2.9252,2.8338,2.8467,2.9425,2.8845,2.8796,2.9175,2.9175,2.9309,2.9499,2.9683,2.9583,2.942,3.03,3.0184,2.9787,3.1445,3.1519,3.1151,3.28,3.3018,3.2761,3.3568,3.3587,3.3421,3.3715,3.368,3.331,3.2201,3.1333,3.0525,2.9901,2.9361,2.9194,2.9939,2.9736,2.977,3.097,3.0835,3.0764,3.1459,3.1565,3.1733,3.2179,3.1826,3.1379,3.1041,3.0445,2.9836,2.9289,2.9088,2.8994,2.8994,2.8994,2.8994,2.8994,2.8863,2.8646,2.8336,2.8377,2.8342,2.821,2.7851,2.7823,2.8075,2.7794,2.7918,2.8394,2.8394,2.854,1.465,1.6384,1.7671,0.0,0.0,0.0,0.0,0.0,0.0,0.0,0.0,0.0,0.0,0.0,0.0,0.0,3.0878,3.2652,3.4746,3.4514,3.4739,3.6354,3.6074,3.5685,3.5595,3.5595,3.5114,3.3961,3.3446,3.2932,3.234,3.1542,3.112,3.112,3.0509,3.0036,2.9738,2.9267,2.9143,2.9441,2.9377,2.9412,2.9433,2.8523,2.8608,2.9454,2.882,2.8723,2.9011,2.9011,2.8839,2.867,2.9323,2.9265,2.8932,2.9924,2.9834,2.9422,3.0912,3.0907,3.0467,3.2137,3.2467,3.2375,3.3183,3.3421,3.3476,3.3733,3.3807,3.3496,3.2147,3.1303,3.0495,2.9415,2.8785,2.8628,2.9248,2.8991,2.8975,3.0243,3.0091,3.0105,3.1268,3.1461,3.1673,3.2243,3.1862,3.1303,3.0686,3.0124,2.9591,2.9062,2.8994,2.8994,2.8994,2.8994,2.8994,2.8994,2.8994,2.8994,2.8994,2.8749,2.854,2.8394,2.8075,2.7897,2.7897,2.7666,2.7747,2.8237,2.8515,2.8699,1.4625,1.5489,0.0,0.0,0.0,0.0,0.0,0.0,0.0,0.0,0.0,0.0,0.0,0.0,0.0,2.9016,3.0794,3.2246,3.3064,3.3242,3.3252,3.32,3.3205,3.321,3.3196,3.3177,3.3177,3.3177,3.2372,3.1866,3.1866,3.0037,2.8983,2.8983,2.7899,2.7702,2.8483,2.8445,2.8829,2.9695,2.9677,2.9828,3.0084,2.9336,2.9193,2.9487,2.9487,2.9282,2.8977,2.8994,2.8501,2.7842,2.825,2.7947,2.7496,2.9024,2.9088,2.858,2.9777,3.0191,3.0191,3.021,3.0742,3.1549,3.2375,3.2614,3.2797,3.3587,3.3788,3.3421,3.1806,3.1154,3.0453,2.8795,2.7809,2.7385,2.7725,2.7772,2.8044,2.8822,2.9011,2.936,3.0508,3.0699,3.1005,3.1858,3.1993,3.1546,3.0345,3.0191,2.9879,2.9085,2.8994,2.8994,2.8994,2.8994,2.8994,2.8994,2.8994,2.8994,2.8994,2.8994,2.8815,2.8394,2.8075,2.7897,2.7897,2.7083,2.7115,2.7915,2.8734,2.8834,1.461,0.0,0.0,0.0,0.0,0.0,0.0,0.0,0.0,0.0,0.0,0.0,0.0,0.0,0.0,2.8385,2.9298,3.0366,3.1308,3.1992,3.2382,3.2352,3.2895,3.3248,3.3206,3.2637,3.2027,3.1418,3.0565,2.9818,2.9264,2.8675,2.8365,2.8365,2.8042,2.7991,2.821,2.8581,2.8867,2.9134,2.8942,2.9193,2.9786,2.9296,2.8748,2.8149,2.787,2.742,2.6985,2.725,2.7232,2.7114,2.8044,2.8136,2.7853,2.9133,2.9272,2.8949,2.9868,2.9843,2.9549,3.0687,3.1201,3.1549,3.2375,3.2999,3.3495,3.3733,3.3385,3.2724,3.1659,3.0906,3.002,2.8411,2.7674,2.7385,2.7725,2.7402,2.7418,2.8721,2.8766,2.8969,3.0159,3.0566,3.0944,3.15,3.1104,3.0399,2.947,2.9365,2.925,2.9012,2.8994,2.8994,2.8994,2.8994,2.8994,2.8994,2.8994,2.8994,2.8994,2.8725,2.8394,2.8047,2.7678,2.7317,2.7051,2.6825,2.7115,2.7897,2.8156,2.8443,1.4474,0.0,0.0,0.0,0.0,0.0,0.0,0.0,0.0,0.0,0.0,0.0,0.0,2.9473,0.0,2.8818,2.8956,2.9439,3.0492,3.0847,3.1133,3.1445,3.1699,3.1813,3.1769,3.0977,3.0256,2.9725,2.8883,2.8166,2.7686,2.7335,2.716,2.716,2.7121,2.7268,2.7615,2.7915,2.8251,2.8572,2.8411,2.8586,2.904,2.8596,2.796,2.7177,2.668,2.6258,2.5912,2.645,2.6495,2.6354,2.7822,2.7886,2.7344,2.8815,2.901,2.865,2.9439,2.9471,2.9304,3.0305,3.0822,3.1172,3.1647,3.2532,3.3256,3.2944,3.2724,3.2357,3.1219,3.0338,2.9418,2.82,2.7478,2.7065,2.6961,2.659,2.6605,2.7691,2.7923,2.838,2.9745,3.0148,3.0459,3.0858,3.0246,2.9549,2.9049,2.8994,2.8994,2.8994,2.8994,2.8994,2.8994,2.8994,2.8994,2.8994,2.8994,2.8994,2.8994,2.8773,2.8464,2.8102,2.7736,2.7317,2.6939,2.6791,2.7115,2.7915,2.8563,2.908,1.4242,0.0,0.0,0.0,0.0,0.0,0.0,0.0,0.0,0.0,0.0,0.0,3.0676,2.9865,2.9089,2.9755,2.9302,2.9164,3.0013,2.9677,2.9587,3.0253,2.9824,2.9473,2.9473,2.8691,2.8184,2.8184,2.7362,2.6872,2.6872,2.6113,2.5683,2.5683,2.5623,2.5974,2.6757,2.6771,2.7194,2.7969,2.7978,2.798,2.7957,2.7558,2.7072,2.6544,2.5918,2.5564,2.5508,2.6268,2.618,2.5694,2.7564,2.7349,2.6237,2.8278,2.8503,2.7915,2.8746,2.92,2.9412,2.9414,2.9953,3.0602,3.0602,3.1552,3.243,3.1623,3.1935,3.2155,3.0595,2.9549,2.8706,2.8013,2.7315,2.6637,2.586,2.5756,2.59,2.6194,2.6874,2.7859,2.926,2.952,2.966,3.0033,2.9475,2.8994,2.8994,2.8994,2.8994,2.8994,2.8994,2.8994,2.8994,2.8994,2.8994,2.8994,2.8994,2.8994,2.8994,2.8994,2.8815,2.842,2.8102,2.7736,2.7348,2.7004,2.721,2.7989,2.9538,3.0232,0.0,1.5072,0.0,0.0,0.0,0.0,0.0,0.0,0.0,0.0,0.0,2.8706,2.9049,2.9377,2.9415,2.8906,2.8692,2.828,2.7393,2.7759,2.7973,2.7667,2.8156,2.8496,2.8496,2.7754,2.7285,2.7285,2.6413,2.5894,2.5894,2.5729,2.56,2.5551,2.5577,2.5654,2.58,2.6412,2.6815,2.6991,2.6993,2.7004,2.7011,2.7634,2.7374,2.6403,2.5579,2.5211,2.5212,2.56,2.5659,2.5641,2.6954,2.6862,2.6237,2.8278,2.8503,2.7959,2.8968,2.9351,2.9433,2.9589,3.0075,3.0602,3.0602,3.1552,3.243,3.1623,3.1513,3.1421,3.0448,2.9127,2.7935,2.7457,2.7212,2.7002,2.6553,2.697,2.7227,2.6704,2.7459,2.8273,2.8611,2.8912,2.9161,2.925,2.9104,2.8994,2.8994,2.8994,2.8994,2.8994,2.8994,2.8994,2.8994,2.8994,2.8994,2.8994,2.8994,2.8994,2.8994,2.8994,2.8815,2.842,2.8342,2.8129,2.7783,2.7678,2.788,2.8308,2.9287,2.9906,0.0,0.0,0.0,0.0,0.0,0.0,0.0,0.0,0.0,0.0,0.0,2.7532,2.7706,2.8104,2.8255,2.7805,2.7411,2.7078,2.686,2.6964,2.7113,2.7207,2.7406,2.7535,2.7535,2.6794,2.6328,2.6328,2.5886,2.5601,2.5601,2.5564,2.5532,2.5493,2.5534,2.5551,2.551,2.5926,2.612,2.6126,2.6136,2.6139,2.6133,2.6626,2.6455,2.5753,2.5305,2.5057,2.4985,2.5424,2.5426,2.528,2.6567,2.6395,2.5706,2.7899,2.82,2.7717,2.9083,2.9607,2.9713,2.9813,3.0065,3.0319,3.0319,3.0949,3.1473,3.066,3.0641,3.0632,2.9843,2.8429,2.7266,2.7455,2.6789,2.5997,2.564,2.6189,2.6588,2.5954,2.69,2.7741,2.7585,2.8099,2.8746,2.926,2.9249,2.9181,2.9181,2.9067,2.8994,2.8994,2.8994,2.8994,2.8994,2.865,2.8594,2.8975,2.865,2.8613,2.8975,2.8994,2.8905,2.8682,2.8496,2.8316,2.8129,2.7982,2.8075,2.8438,2.9656,3.042,0.0,0.0,0.0,0.0,0.0,0.0,0.0,0.0,0.0,0.0,2.4783,2.5925,2.6525,2.6637,2.6637,2.6637,2.608,2.591,2.6704,2.6384,2.6354,2.7105,2.6762,2.6458,2.6456,2.5889,2.5538,2.5524,2.5557,2.5563,2.5563,2.537,2.5269,2.5257,2.5112,2.5043,2.5024,2.5158,2.5216,2.5255,2.5409,2.5479,2.5482,2.5488,2.539,2.517,2.5129,2.5023,2.4893,2.5351,2.5255,2.4926,2.624,2.5953,2.5087,2.7358,2.7679,2.7223,2.8785,2.9425,2.9594,2.9622,2.9608,2.956,2.956,2.9959,3.0211,2.9392,2.9684,3.0008,2.9195,2.7915,2.6943,2.7521,2.6304,2.495,2.4569,2.5234,2.5707,2.5109,2.6126,2.6999,2.6707,2.734,2.826,2.9303,2.9308,2.9225,2.9394,2.9178,2.8938,2.8815,2.8796,2.8741,2.859,2.7989,2.7934,2.8741,2.8172,2.8154,2.8957,2.8994,2.8994,2.8994,2.8682,2.8496,2.8496,2.8228,2.821,2.8551,3.0079,3.0927,0.0,0.0,0.0,0.0,0.0,0.0,0.0,0.0,0.0,0.0,2.4228,2.4887,2.5483,2.561,2.561,2.561,2.5498,2.5318,2.4939,2.4797,2.4854,2.5144,2.512,2.5082,2.5061,2.5187,2.5251,2.5254,2.5364,2.5428,2.5428,2.4764,2.4359,2.4289,2.3617,2.3214,2.3158,2.3732,2.4107,2.4302,2.5043,2.5409,2.5418,2.5459,2.5483,2.5439,2.5263,2.5148,2.5039,2.4956,2.4861,2.4884,2.5766,2.5574,2.4997,2.6739,2.6836,2.6318,2.7424,2.7818,2.7872,2.8099,2.8032,2.7831,2.7831,2.8604,2.9314,2.8497,2.92,3.0008,2.9195,2.8319,2.754,2.7117,2.6302,2.5523,2.5305,2.6432,2.7076,2.5617,2.6054,2.6725,2.684,2.6972,2.7401,2.8418,2.8409,2.8554,2.9299,2.9178,2.8741,2.8026,2.7952,2.7677,2.6979,2.6833,2.7108,2.7915,2.786,2.8154,2.8957,2.8994,2.8994,2.8994,2.8952,2.8929,2.8929,2.8863,2.8881,2.8947,2.9862,3.0308,0.0,0.0,0.0,0.0,0.0,0.0,0.0,0.0,0.0,2.2463,2.2844,2.3426,2.4281,2.4302,2.4176,2.4176,2.4176,2.4136,2.4057,2.4155,2.4317,2.4607,2.4299,2.4263,2.4742,2.4509,2.4486,2.4937,2.5022,2.5061,2.5061,2.4727,2.4288,2.3786,2.3888,2.35,2.2539,2.3739,2.4404,2.4498,2.4506,2.473,2.5179,2.536,2.5466,2.5508,2.5411,2.5351,2.5309,2.511,2.5088,2.5213,2.5416,2.5348,2.5271,2.6441,2.6651,2.6473,2.7433,2.7783,2.7814,2.7964,2.7923,2.7846,2.7846,2.8095,2.8271,2.7907,2.8147,2.8424,2.807,2.7401,2.6729,2.6461,2.5783,2.5166,2.5084,2.5894,2.6371,2.5551,2.5409,2.5634,2.6274,2.6497,2.6919,2.7973,2.8196,2.8239,2.8164,2.8246,2.8026,2.7218,2.7126,2.7043,2.6779,2.6763,2.7096,2.7908,2.7966,2.8273,2.898,2.8994,2.8994,2.8994,2.8994,2.8994,2.8994,2.8994,2.8994,2.9012,2.9843,3.021,0.0,0.0,0.0,0.0,0.0,0.0,0.0,0.0,2.0868,0.0,2.162,2.2038,2.2758,2.3056,2.3088,2.2698,2.2805,2.2927,2.3009,2.3148,2.3325,2.3565,2.318,2.3126,2.3761,2.3347,2.3249,2.3865,2.3952,2.4078,2.4267,2.3892,2.3431,2.298,2.3267,2.2825,2.1576,2.3092,2.404,2.4411,2.3955,2.4029,2.4626,2.482,2.4873,2.4803,2.5283,2.5506,2.5488,2.5344,2.5356,2.5473,2.5273,2.5301,2.5505,2.6101,2.6313,2.6428,2.7119,2.7353,2.7374,2.7431,2.7431,2.7431,2.7431,2.7382,2.7297,2.7281,2.7247,2.7223,2.7194,2.6742,2.6249,2.6084,2.5603,2.5168,2.5125,2.5292,2.5481,2.5542,2.5019,2.4826,2.5622,2.5874,2.6319,2.7407,2.788,2.7945,2.7547,2.7863,2.7714,2.6722,2.6822,2.6871,2.6619,2.684,2.7343,2.8147,2.8185,2.8501,2.9148,2.9115,2.9089,2.9089,2.9021,2.8994,2.8994,2.8905,2.8839,2.8858,2.9368,2.9617,0.0,0.0,0.0,0.0,0.0,0.0,0.0,0.0,0.0,0.0,2.0941,2.0894,2.0702,2.2054,2.2734,2.1327,2.1697,2.1927,2.1245,2.1159,2.1161,2.1179,2.1146,2.1146,2.1202,2.133,2.1425,2.148,2.1654,2.2085,2.2772,2.1353,2.0839,2.1489,2.0311,1.9641,1.9548,2.0703,2.1988,2.3372,2.347,2.3547,2.3585,2.3599,2.3324,2.2934,2.4721,2.5498,2.5508,2.5487,2.5486,2.5498,2.5473,2.5498,2.5505,2.5543,2.5563,2.5563,2.562,2.5627,2.5634,2.5634,2.5634,2.5634,2.5634,2.6028,2.6448,2.639,2.6809,2.7281,2.7207,2.7175,2.6978,2.6336,2.6205,2.6165,2.5993,2.5359,2.5077,2.5822,2.5326,2.4847,2.5019,2.5056,2.5421,2.6504,2.701,2.7514,2.8244,2.8678,2.8333,2.6778,2.7449,2.7419,2.5889,2.6691,2.7633,2.8428,2.8485,2.8846,2.9623,2.9474,2.9392,2.9392,2.9134,2.8994,2.8994,2.8633,2.842,2.842,2.8156,2.8007,0.0,0.0,0.0,0.0,0.0,0.0,0.0,1.8489,1.9459,1.9786,1.987,1.9848,1.9755,2.0511,2.0963,2.0429,2.0584,2.0725,2.0678,2.0688,2.0758,2.0972,2.0121,1.9907,2.0904,2.0183,2.0044,2.103,2.1182,2.1329,2.1599,2.1057,2.0641,2.037,2.0409,2.0427,2.0427,1.9977,2.0535,2.2081,2.1872,2.2032,2.2539,2.2682,2.2615,2.2475,2.3158,2.3923,2.4774,2.534,2.5564,2.5554,2.5554,2.5562,2.5566,2.5523,2.5506,2.5505,2.5542,2.5562,2.5561,2.5606,2.5633,2.5621,2.558,2.5712,2.5863,2.5818,2.5955,2.6136,2.6128,2.6116,2.6032,2.5746,2.5661,2.565,2.5573,2.5164,2.4898,2.5167,2.5059,2.4937,2.4998,2.5099,2.545,2.6235,2.6616,2.6749,2.656,2.7103,2.7112,2.6064,2.6617,2.7036,2.7002,2.7846,2.8503,2.874,2.9203,2.9523,2.9695,2.9513,2.9412,2.9412,2.9134,2.8994,2.8994,2.8608,2.8394,2.8394,2.8047,2.7897,0.0,0.0,0.0,0.0,0.0,0.0,0.0,0.0,1.7994,1.8776,1.9017,1.9017,1.8822,1.9138,1.9362,1.9283,1.9461,1.9627,1.959,1.9579,1.9589,1.957,1.8886,1.8603,1.9134,1.8483,1.8448,1.9486,1.9556,0.0,2.0271,1.9837,1.9225,1.8547,1.9043,1.9367,1.9445,1.8574,1.8966,2.0608,2.0349,2.0667,2.1495,2.1625,2.1591,2.1399,2.161,2.259,2.4117,2.4758,2.5217,2.5508,2.5566,2.5605,2.5625,2.5581,2.5564,2.5574,2.5626,2.5628,2.5643,2.5659,2.5678,2.564,2.5594,2.5562,2.5554,2.5506,2.5506,2.5492,2.5511,2.5487,2.547,2.5428,2.537,2.5322,2.5322,2.5164,2.5,2.5,2.5087,2.5157,2.5138,2.5252,2.5521,2.6111,2.6432,2.6499,2.6209,2.6813,2.704,2.6363,2.7105,2.7751,2.8147,2.8982,2.9478,2.9448,2.9877,3.0061,2.9927,2.9662,2.9494,2.9494,2.9034,2.8797,2.8797,2.8412,2.8166,2.8012,2.766,2.7619,0.0,0.0,0.0,0.0,0.0,0.0,1.6382,0.0,1.7176,1.7997,1.8413,1.845,1.7927,1.8035,1.8103,1.7822,1.8386,1.8623,1.7912,1.7811,1.754,1.68,1.7304,1.7185,1.5731,1.6241,1.6648,1.6665,1.6665,1.7291,1.8724,1.7461,1.6465,1.6009,1.5992,1.6098,1.6369,1.6385,1.7266,1.9031,1.9066,1.9549,2.0466,2.0466,2.0136,1.9606,2.0203,2.1604,2.3505,2.3749,2.4406,2.5273,2.5488,2.5605,2.5703,2.5703,2.5703,2.5703,2.5703,2.5703,2.5677,2.5623,2.5592,2.5572,2.5517,2.551,2.5509,2.551,2.5508,2.5506,2.5508,2.5498,2.5482,2.5425,2.5399,2.5409,2.5409,2.5409,2.5409,2.5399,2.5457,2.5476,2.5418,2.5428,2.5617,2.6149,2.6453,2.6854,2.7423,2.8021,2.8214,2.7756,2.8978,2.9628,2.9177,2.9984,3.0509,3.0498,3.0448,3.0398,3.0398,2.9962,2.9677,2.9677,2.887,2.8412,2.8368,2.8047,2.7678,2.7303,2.6906,2.7147,1.3961,0.0,0.0,0.0,0.0,0.0,0.0,0.0,0.0,1.7463,1.8234,1.8789,1.845,1.829,1.7931,1.7131,1.7625,1.8031,1.7845,1.7811,1.754,1.68,1.6407,1.6052,1.5629,1.5308,1.5325,0.0,1.59,1.6069,1.6492,1.612,1.5838,1.5712,1.5695,1.5752,1.5827,1.601,1.6624,1.7663,1.7998,1.8596,1.9412,1.9575,1.9463,1.9168,1.9335,1.9954,2.0951,2.2129,2.3277,2.4303,2.4458,2.4961,2.5625,2.5684,2.5665,2.5633,2.5633,2.5599,2.5547,2.5535,2.553,2.5515,2.5453,2.5465,2.5495,2.5449,2.5468,2.5517,2.5565,2.5539,2.5517,2.5542,2.5518,2.5466,2.5466,2.5505,2.5523,2.5479,2.5486,2.5486,2.5486,2.5942,2.6488,2.6928,2.7046,2.7228,2.7583,2.7754,2.7951,2.826,2.9142,2.9858,3.0229,3.0447,3.0568,3.0556,3.0467,3.0398,3.0398,2.9962,2.9568,2.9269,2.9259,2.8729,2.7601,2.75,2.7409,2.7303,2.7178,2.7542,0.0,0.0,0.0,0.0,0.0,0.0,1.5231,1.6145,1.7099,0.0,1.8572,1.8752,1.8489,1.831,1.7966,1.7262,1.7523,1.7693,1.7388,1.7337,1.7067,1.6343,1.612,1.5697,1.4766,1.458,1.4663,1.5122,1.5138,1.5138,1.5138,1.5138,1.5003,1.4682,1.4665,1.4665,1.4665,1.4846,1.5487,1.6653,1.7042,1.785,1.9019,1.9214,1.9198,1.8984,1.8878,1.9002,1.9388,2.0481,2.2009,2.3664,2.3837,2.4563,2.557,2.5609,2.5585,2.5561,2.5562,2.552,2.5505,2.5466,2.5468,2.5447,2.539,2.539,2.5409,2.5409,2.5451,2.5512,2.5556,2.5528,2.5515,2.5546,2.5531,2.5512,2.5533,2.5563,2.5591,2.5549,2.5556,2.5573,2.5554,2.5931,2.6509,2.7299,2.7208,2.7346,2.8197,2.8192,2.8362,2.893,2.9601,3.0182,3.0662,3.0629,3.0583,3.0556,3.0487,3.0417,3.0398,2.9969,2.9548,2.9114,2.9243,2.8977,2.8271,2.8097,2.8032,2.8062,2.8194,2.8688,0.0,0.0,0.0,0.0,0.0,0.0,1.6163,1.6217,1.6446,0.0,1.8727,1.8244,1.7968,1.7907,1.7786,1.7456,1.7462,1.7366,1.6902,1.6775,1.6488,1.5697,1.615,1.5694,1.3599,1.3988,1.4394,1.4394,1.4394,1.4394,1.4394,1.4394,1.4073,1.343,1.3396,1.3379,1.3363,1.3379,1.4195,1.5799,1.6166,1.7235,1.884,1.9127,1.915,1.8949,1.8715,1.8566,1.8542,1.9048,2.0782,2.3157,2.3431,2.4298,2.5432,2.5463,2.5451,2.5434,2.5456,2.5426,2.5407,2.5339,2.533,2.534,2.5283,2.5274,2.5303,2.5351,2.5408,2.5447,2.5437,2.5434,2.5459,2.5455,2.5485,2.5522,2.5582,2.5584,2.5584,2.5584,2.5644,2.5684,2.5625,2.5762,2.6288,2.7449,2.7295,2.7568,2.9,2.9072,2.9179,2.972,3.016,3.0487,3.0678,3.0637,3.0586,3.0529,3.0525,3.0479,3.0417,3.006,2.9628,2.9134,2.907,2.9303,2.9876,2.9242,2.9054,2.9301,2.9521,3.0044,0.0,0.0,0.0,0.0,0.0,0.0,1.3817,1.4504,1.5192,0.0,1.6098,1.6501,1.6226,1.6147,1.5804,1.489,1.5387,1.6286,1.7417,1.7355,1.6803,1.5728,1.5495,1.4885,1.3532,1.3532,1.3616,1.3616,1.3616,1.3616,1.3616,1.3616,1.3549,1.3396,1.3396,1.3294,1.3085,1.3294,1.375,1.4479,1.5555,1.6694,1.7825,1.8677,1.8913,1.8678,1.8623,1.8351,1.8,1.8705,2.0177,2.2078,2.2764,2.3815,2.4957,2.5178,2.5122,2.495,2.512,2.507,2.4921,2.4921,2.4987,2.5084,2.5065,2.5163,2.5264,2.5118,2.5084,2.5084,2.4948,2.5058,2.5194,2.5255,2.5387,2.5496,2.5527,2.5512,2.5512,2.5512,2.5622,2.5703,2.5684,2.6797,2.7714,2.7759,2.8526,2.9285,2.9691,2.9584,2.9653,3.0124,3.0348,3.0533,3.0682,3.0636,3.0622,3.0656,3.0602,3.0567,3.0567,3.0276,2.9851,2.9269,2.9148,2.9888,3.1524,2.9505,2.9215,3.0548,2.99,2.986,0.0,0.0,0.0,1.3495,0.0,0.0,0.0,1.4827,1.5201,1.594,1.608,1.5993,1.5794,1.5605,1.5288,1.4693,1.54,1.6067,1.6309,1.642,1.6239,1.566,1.5004,1.428,1.3464,1.3157,1.3069,1.3191,1.3329,1.3396,1.3396,1.3396,1.3346,1.3191,1.3191,1.3069,1.2797,1.3085,1.3449,1.3929,1.5321,1.6375,1.7143,1.8269,1.8642,1.8391,1.8391,1.8166,1.7862,1.8589,1.9534,2.0676,2.1917,2.328,2.4572,2.4699,2.4662,2.4559,2.4678,2.4526,2.429,2.429,2.4353,2.4445,2.4605,2.4834,2.5024,2.493,2.478,2.4639,2.4572,2.4496,2.4464,2.4549,2.4633,2.4753,2.4957,2.5005,2.5043,2.5168,2.5266,2.535,2.557,2.633,2.6985,2.7216,2.7677,2.8187,2.8692,2.8454,2.8346,2.8587,2.8566,2.879,2.935,2.9508,2.9771,3.0314,3.0486,3.0541,3.0495,3.0335,3.0056,2.9665,2.9743,3.0514,3.1982,3.0772,3.0742,3.1737,3.0899,3.1031,0.0,0.0,0.0,0.0,0.0,1.3851,0.0,0.0,0.0,1.6582,1.6133,0.0,0.0,0.0,0.0,0.0,0.0,0.0,0.0,1.4589,0.0,1.5131,1.4606,1.3955,1.3258,1.2669,1.2523,1.2979,1.3023,1.3143,1.3312,1.3329,1.3208,1.3013,1.2942,1.2797,1.2533,1.2778,1.3089,1.3414,1.5009,1.6008,1.653,1.782,1.8333,1.8187,1.8187,1.8057,1.7862,1.8589,1.9064,1.9477,2.1018,2.2447,2.3654,2.3705,2.3688,2.3691,2.3855,2.3732,2.3485,2.3553,2.361,2.3708,2.4097,2.4375,2.4595,2.4564,2.436,2.4116,2.4008,2.3804,2.3616,2.3584,2.3599,2.3724,2.4041,2.4182,2.4308,2.4545,2.4651,2.486,2.5356,2.5592,2.5938,2.6562,2.6581,2.6827,2.76,2.7365,2.7101,2.7048,2.7001,2.7289,2.804,2.849,2.9098,2.9995,3.0303,3.045,3.0372,3.0283,3.0231,3.0238,3.0485,3.1065,3.2019,3.2019,3.2283,3.2816,3.1843,3.21,0.0,0.0,0.0,0.0,1.2942,0.0,1.3303,0.0,1.3582,1.3837,0.0,1.351,0.0,0.0,0.0,0.0,0.0,0.0,1.1997,1.2029,1.2502,1.3463,1.4201,1.4047,1.2574,1.1782,1.1833,1.2911,1.2251,1.2171,1.3,1.3049,1.3031,1.3013,1.2778,1.2514,1.2251,1.2514,1.2562,1.2391,1.4063,1.5159,1.5782,1.7156,1.7945,1.8187,1.8187,1.8057,1.7862,1.8589,1.8917,1.9056,2.0206,2.0939,2.1409,2.1588,2.1531,2.1498,2.2328,2.2461,2.234,2.2645,2.2858,2.3111,2.3671,2.3879,2.3879,2.3702,2.3619,2.3476,2.2935,2.2906,2.2916,2.2481,2.2523,2.2678,2.2718,2.3037,2.3367,2.3386,2.3729,2.4267,2.5085,2.5717,2.6208,2.6466,2.7007,2.7552,2.8073,2.7977,2.7764,2.7551,2.8017,2.8301,2.812,2.8957,2.9702,3.0235,3.0289,3.0319,3.0319,3.0083,3.0338,3.1133,3.1025,3.1311,3.2103,3.2103,3.2612,3.3623,3.21,3.1494,0.0,0.0,0.0,0.0,0.0,0.0,1.3428,0.0,1.3413,0.0,0.0,0.0,0.0,0.0,0.0,0.0,1.1993,0.0,0.0,0.0,1.2697,0.0,0.0,0.0,1.1092,1.1271,1.1241,1.0765,1.1264,1.2,1.2889,1.2832,1.2703,1.253,1.2431,1.2251,1.1961,1.2231,1.2231,1.1976,1.382,1.4738,1.4892,1.6471,1.7358,1.7676,1.7676,1.7715,1.7828,1.8132,1.8268,1.8302,1.8549,1.9505,2.0714,2.0809,2.0766,2.0767,2.1159,2.1423,2.1643,2.1915,2.2373,2.28,2.2803,2.3104,2.3422,2.3348,2.3012,2.2625,2.2373,2.1815,2.1282,2.107,2.0866,2.0842,2.1356,2.1613,2.1977,2.2722,2.3005,2.331,2.3787,2.4229,2.4642,2.5039,2.5411,2.5807,2.6279,2.6399,2.6193,2.5508,2.5923,2.6348,2.6627,2.757,2.8671,2.9867,3.006,3.02,3.0411,3.0208,3.0272,3.0703,3.1059,3.1302,3.1459,3.1883,3.2349,3.2788,3.1514,3.1446,1.3503,0.0,0.0,0.0,0.0,0.0,0.0,0.0,0.0,0.0,0.0,0.0,0.0,0.0,0.0,0.0,0.0,1.1737,0.0,1.1581,0.0,0.0,0.0,0.0,0.0,1.04,1.0345,0.9571,1.0397,1.1433,1.2537,1.2549,1.2416,1.2226,1.2143,1.1997,1.1805,1.1982,1.2073,1.2096,1.3705,1.4499,1.4623,1.6028,1.6866,1.7175,1.7175,1.7296,1.7542,1.7635,1.7612,1.7502,1.7368,1.8126,1.9324,1.9454,1.9495,1.9546,1.993,2.0346,2.0792,2.1278,2.1578,2.1798,2.1802,2.2163,2.2591,2.2591,2.2218,2.1736,2.1497,2.0574,1.9697,1.945,1.906,1.8958,1.9596,2.0084,2.0671,2.1599,2.2061,2.2365,2.2513,2.2745,2.3003,2.3318,2.3541,2.3927,2.4524,2.5014,2.5056,2.4431,2.4798,2.5274,2.5728,2.6759,2.7962,2.9265,2.942,2.9535,2.9669,2.9725,2.9847,3.0007,3.0782,3.1079,3.0858,3.139,3.1762,3.197,3.1354,3.1661,0.0,0.0,0.0,1.352,0.0,0.0,0.0,0.0,1.2977,0.0,0.0,0.0,0.0,0.0,0.0,0.0,0.0,0.0,0.0,0.0,0.0,0.0,0.0,0.0,0.0,0.8863,0.8924,1.044,0.976,1.0028,1.1743,1.2133,1.2276,1.219,1.1955,1.1805,1.1805,1.1805,1.2141,1.2786,1.349,1.4329,1.5288,1.6002,1.6501,1.6815,1.6815,1.6815,1.6866,1.7175,1.7126,1.6866,1.7175,1.6894,1.6389,1.6785,1.693,1.7123,1.8471,1.918,1.9624,2.0671,2.0321,1.9687,2.0719,2.1055,2.1086,2.1086,2.1055,2.0846,1.9924,1.9163,1.8423,1.7505,1.7288,1.7288,1.7329,1.8536,1.9641,1.9697,2.075,2.1642,2.1625,2.1759,2.1773,2.1508,2.1866,2.2485,2.3437,2.4577,2.5358,2.5524,2.6201,2.6516,2.6212,2.7397,2.8228,2.842,2.8259,2.7992,2.7608,2.8274,2.8848,2.9221,3.0154,3.0583,3.0513,3.054,3.0943,3.1731,3.202,3.2185,0.0,0.0,1.6698,1.4795,0.0,0.0,0.0,0.0,0.0,0.0,0.0,0.0,0.0,0.0,0.0,0.0,0.0,0.0,0.0,0.0,0.0,0.0,0.0,0.0,0.0,0.0,0.8706,0.8801,0.7988,0.7598,0.7885,1.0482,1.1961,1.1955,1.1848,1.1805,1.1805,1.2224,1.2591,1.2816,1.3914,1.4652,1.4985,1.5652,1.6136,1.6474,1.6474,1.6581,1.6815,1.6926,1.6917,1.6789,1.667,1.6305,1.5831,1.6246,1.6204,1.6117,1.7415,1.7916,1.8156,1.8982,1.928,1.9291,1.9359,1.9664,1.9921,1.9921,1.9441,1.8804,1.8484,1.7156,1.5801,1.5473,1.5124,1.5091,1.5844,1.677,1.7877,1.9339,2.0169,2.0782,2.1134,2.0942,2.0863,2.1214,2.1845,2.2445,2.2845,2.4563,2.5594,2.5129,2.6068,2.6567,2.6217,2.7663,2.8388,2.7914,2.8014,2.7884,2.7403,2.8154,2.8759,2.9061,3.0086,3.0599,3.0572,3.0568,3.0717,3.1006,3.2272,3.3001,1.6753,1.7334,0.0,1.6032,1.5983,0.0,1.4318,0.0,1.3806,0.0,0.0,0.0,0.0,0.0,0.0,0.0,0.0,0.0,0.0,1.0718,0.0,0.0,0.0,0.0,0.0,0.7581,0.8436,0.9023,0.7812,0.7614,0.8887,1.1057,1.2224,1.2149,1.2171,1.2171,1.2171,1.2807,1.3271,1.352,1.4378,1.4917,1.5184,1.5604,1.5926,1.6108,1.5953,1.5994,1.6184,1.6169,1.6087,1.5976,1.6019,1.5722,1.5257,1.5664,1.5668,1.5608,1.6398,1.6788,1.7073,1.7775,1.8205,1.8431,1.8431,1.852,1.8602,1.8602,1.7988,1.7237,1.7035,1.5586,1.4133,1.3936,1.3617,1.359,1.4303,1.5513,1.6818,1.819,1.9279,2.0135,2.0635,2.0602,2.0527,2.0599,2.1142,2.1689,2.2229,2.3903,2.5033,2.4968,2.5857,2.6505,2.658,2.7455,2.7677,2.7004,2.7098,2.6833,2.6087,2.6937,2.7695,2.823,2.9426,3.0173,3.0494,3.0574,3.0757,3.1091,3.2212,3.3037]},{"header":{"parameterUnit":"m.s-1","parameterCategory":1,"la1":30.6,"la2":29.2853,"lo1":-89.7004,"lo2":-87.6739,"dy":0.0162,"dx":0.0183,"nx":112,"ny":82,"refTime":"2023-09-13T12:00:00:Z","depth":0,"parameterNumber":3,"parameterNumberName":"V-component_of_WINDS"},"data":[0.0,0.0,0.0,0.0,0.0,0.0,0.0,0.0,0.0,0.0,0.0,0.0,0.0,0.0,0.0,0.0,0.0,0.0,0.0,0.0,0.0,0.0,0.0,0.0,0.0,0.0,0.0,0.0,0.0,0.0,0.0,0.0,0.0,0.0,0.0,0.0,0.0,0.0,0.0,0.0,0.0,0.0,0.0,0.0,0.0,0.0,0.0,0.0,0.0,0.0,0.0,0.0,0.0,0.0,0.0,0.0,0.0,0.0,0.0,0.0,0.0,0.0,0.0,0.0,0.0,0.0,0.0,0.0,0.0,0.0,0.0,0.0,0.0,0.0,0.0,0.0,0.0,0.0,0.0,0.0,0.0,0.0,0.0,0.0,0.0,0.0,0.0,0.0,0.0,0.0,0.6038,0.7304,0.9332,1.0483,1.0194,1.0754,1.0502,0.9219,0.0,0.0,0.0,0.0,0.0,0.0,0.0,0.0,0.0,0.0,0.0,0.0,0.0,0.0,0.0,0.0,0.0,0.0,0.0,0.0,0.0,0.0,0.0,0.0,0.0,0.0,0.0,0.0,0.0,0.0,0.0,0.0,0.0,0.0,0.0,0.0,0.0,0.0,0.0,0.0,0.0,0.0,0.0,0.0,0.0,0.0,0.0,0.0,0.0,0.0,0.0,0.0,0.0,0.0,0.0,0.0,0.0,0.0,0.0,0.0,0.0,0.0,0.0,0.0,0.0,0.0,0.0,0.0,0.0,0.0,0.0,0.0,0.0,0.0,0.0,0.0,0.0,0.0,0.0,0.0,0.0,0.0,0.0,0.0,0.0,0.0,0.0,0.0,0.0,0.0,0.0,0.0,0.0,0.0,0.0,0.0,0.0,0.0,0.0,0.0,0.0,0.0,0.0,0.0,0.6599,0.8658,0.994,1.0575,1.0639,1.0885,1.0704,0.9717,0.0,0.0,0.0,0.0,0.0,0.0,0.0,0.0,0.0,0.0,0.0,0.0,0.0,0.0,0.0,0.0,0.0,0.0,0.0,0.0,0.0,0.0,0.0,0.0,0.0,0.0,0.0,0.0,0.0,0.0,0.0,0.0,0.0,0.0,0.0,0.0,0.0,0.0,0.0,0.0,0.0,0.0,0.0,0.0,0.0,0.0,0.0,0.0,0.0,0.0,0.0,0.0,0.0,0.0,0.0,0.0,0.0,0.0,0.0,0.0,0.0,0.0,0.0,0.0,0.0,0.0,0.0,0.0,0.0,0.0,0.0,0.0,0.0,0.0,0.0,0.0,0.0,0.0,0.0,0.0,0.0,0.0,0.0,0.0,0.0,0.0,0.0,0.0,0.0,0.0,0.0,0.0,0.0,0.0,0.0,0.0,0.0,0.0,0.0,0.0,0.0,0.0,0.0,0.625,0.758,0.9273,1.0186,1.0666,1.0709,1.1364,1.136,1.0382,1.0171,0.0,0.0,0.0,0.0,0.0,0.0,0.0,0.0,0.0,0.0,0.0,0.0,0.0,0.0,0.0,0.0,0.0,0.0,0.0,0.0,0.0,0.0,0.0,0.0,0.0,0.0,0.0,0.0,0.0,0.0,0.0,0.0,0.0,0.0,0.0,0.0,0.0,0.0,0.0,0.0,0.0,0.0,0.0,0.0,0.0,0.0,0.0,0.0,0.0,0.0,0.0,0.0,0.0,0.0,0.0,0.0,0.0,0.0,0.0,0.0,0.0,0.0,0.0,0.0,0.0,0.0,0.0,0.0,0.0,0.0,0.0,0.0,0.0,0.0,0.0,0.0,0.0,0.0,0.0,0.0,0.0,0.0,0.0,0.0,0.0,0.0,0.0,0.0,0.0,0.0,0.0,0.0,0.0,0.0,0.0,0.0,0.0,0.0,0.0,0.0,0.0,0.0,0.7395,0.8441,0.9829,1.053,1.0932,1.1189,1.1859,1.1973,1.1133,1.0687,0.0,0.0,0.0,0.0,0.0,0.0,0.0,0.0,0.0,0.0,0.0,0.0,0.0,0.0,0.0,0.0,0.0,0.0,0.0,0.0,0.0,0.0,0.0,0.0,0.0,0.0,0.0,0.0,0.0,0.0,0.0,0.0,0.0,0.0,0.0,0.0,0.0,0.0,0.0,0.0,0.0,0.0,0.0,0.0,0.0,0.0,0.0,0.0,0.0,0.0,0.0,0.0,0.0,0.0,0.0,0.0,0.0,0.0,0.0,0.0,0.0,0.0,0.0,0.0,0.0,0.0,0.0,0.0,0.0,0.0,0.0,0.0,0.0,0.0,0.0,0.0,0.0,0.0,0.0,0.0,0.0,0.0,0.0,0.0,0.0,0.0,0.0,0.0,0.0,0.0,0.0,0.0,0.0,0.0,0.0,0.0,0.0,0.0,0.0,0.0,0.0,0.0,0.7613,0.8978,1.0632,1.1062,1.1639,1.2674,1.2458,1.218,1.1846,1.0678,0.0,0.0,0.0,0.0,0.0,0.0,0.0,0.0,0.0,0.0,0.0,0.0,0.0,0.0,0.0,0.0,0.0,0.0,0.0,0.0,0.0,0.0,0.0,0.0,0.0,0.0,0.0,0.0,0.0,0.0,0.0,0.0,0.0,0.0,0.0,0.0,0.0,0.0,0.0,0.0,0.0,0.0,0.0,0.0,0.0,0.0,0.0,0.0,0.0,0.0,0.0,0.0,0.0,0.0,0.0,0.0,0.0,0.0,0.0,0.0,0.0,0.0,0.0,0.0,0.0,0.0,0.0,0.0,0.0,0.0,0.0,0.0,0.0,0.0,0.0,0.0,0.0,0.0,0.0,0.0,0.0,0.0,0.0,0.0,0.0,0.0,0.0,0.0,0.0,0.0,0.0,0.0,0.0,0.0,0.0,0.0,0.0,0.0,0.0,0.0,0.0,0.0,0.8247,0.9431,0.0,1.1174,1.1856,1.2449,1.2347,1.2162,1.1918,0.0,0.0,0.0,0.0,0.0,0.0,0.0,0.0,0.0,0.0,0.0,0.0,0.0,0.0,0.0,0.0,0.0,0.0,0.0,0.0,0.0,0.0,0.0,0.0,0.0,0.0,0.0,0.0,0.0,0.0,0.0,0.0,0.0,0.0,0.0,0.0,0.0,0.0,0.0,0.0,0.0,0.0,0.0,0.0,0.0,0.0,0.0,0.0,0.0,0.0,0.0,0.0,0.0,0.0,0.0,0.0,0.0,0.0,0.0,0.0,0.0,0.0,0.0,0.0,0.0,0.0,0.0,0.0,0.0,0.0,0.0,0.0,0.0,0.0,0.0,0.0,0.0,0.0,0.0,0.0,0.0,0.0,0.0,0.0,0.0,0.0,0.0,0.0,0.0,0.0,0.0,0.0,0.0,0.0,0.0,0.0,0.0,0.0,0.0,0.0,0.0,0.0,0.7647,0.8721,0.9834,0.0,1.1627,1.2208,1.2635,1.2377,1.213,1.195,0.0,0.0,0.0,0.0,0.0,0.0,0.0,0.0,0.0,0.0,0.0,0.0,0.0,0.0,0.0,0.0,0.0,0.0,0.0,0.0,0.0,0.0,0.0,0.0,0.0,0.0,0.0,0.0,0.0,0.0,0.0,0.0,0.0,0.0,0.0,0.0,0.0,0.0,0.0,0.0,0.0,0.0,0.0,0.0,0.0,0.0,0.0,0.0,0.0,0.0,0.0,0.0,0.0,0.0,0.0,0.0,0.0,0.0,0.0,0.0,0.0,0.0,0.0,0.0,0.0,0.0,0.0,0.0,0.0,0.0,0.0,0.0,0.0,0.0,0.0,0.0,0.0,0.0,0.0,0.0,0.0,0.0,0.0,0.0,0.0,0.0,0.0,0.0,0.0,0.0,0.0,0.0,0.0,0.0,0.0,0.0,0.0,0.0,0.0,0.0,0.0,0.0,0.8306,0.9062,1.0176,1.2261,1.2498,1.2767,1.3455,1.2715,1.2167,0.0,0.0,0.0,0.0,0.0,0.0,0.0,0.0,0.0,0.0,0.0,0.0,0.0,0.0,0.0,0.0,0.0,0.0,0.0,0.0,0.0,0.0,0.0,0.0,0.0,0.0,0.0,0.0,0.0,0.0,0.0,0.0,0.0,0.0,0.0,0.0,0.0,0.0,0.0,0.0,0.0,0.0,0.0,0.0,0.0,0.0,0.0,0.0,0.0,0.0,0.0,0.0,0.0,0.0,0.0,0.0,0.0,0.0,0.0,0.0,0.0,0.0,0.0,0.0,0.0,0.0,0.0,0.0,0.0,0.0,0.0,0.0,0.0,0.0,0.0,0.0,0.0,0.0,0.0,0.0,0.0,0.0,0.0,0.0,0.0,0.0,0.0,0.0,0.0,0.0,0.0,0.0,0.0,0.0,0.0,0.0,0.0,0.0,0.0,0.0,0.0,0.0,0.0,0.8756,0.9657,1.0613,1.1849,1.2482,1.2859,1.3066,1.2266,1.1887,1.208,0.0,0.0,0.0,0.0,0.0,0.0,0.0,0.0,0.0,0.0,0.0,0.0,0.0,0.0,0.0,0.0,0.0,0.0,0.0,0.0,0.0,0.0,0.0,0.0,0.0,0.0,0.0,0.0,0.0,0.0,0.0,0.0,0.0,0.0,0.0,0.0,0.0,0.0,0.0,0.0,0.0,0.0,0.0,0.0,0.0,0.0,0.0,0.0,0.0,0.0,0.0,0.0,0.0,0.0,0.0,0.0,0.0,0.0,0.0,0.0,0.0,0.0,0.0,0.0,0.0,0.0,0.0,0.0,0.0,0.0,0.0,0.0,0.0,0.0,0.0,0.0,0.0,0.0,0.0,0.0,0.0,0.0,0.0,0.0,0.0,0.0,0.0,0.0,0.0,0.0,0.0,0.0,0.0,0.0,0.0,0.0,0.0,0.0,0.0,0.0,0.0,0.0,0.9334,1.0055,1.0862,1.2092,1.2618,1.2881,1.2881,1.2116,1.1721,1.1937,0.0,0.0,0.0,0.0,0.0,0.0,0.0,0.0,0.0,0.0,0.0,0.0,0.0,0.0,0.0,0.0,0.0,0.0,0.0,0.0,0.0,0.0,0.0,0.0,0.0,0.0,0.0,0.0,0.0,0.0,0.0,0.0,0.0,0.0,0.0,0.0,0.0,0.0,0.0,0.0,0.0,0.0,0.0,0.0,0.0,0.0,0.0,0.0,0.0,0.0,0.0,0.0,0.0,0.0,0.0,0.0,0.0,0.0,0.0,0.0,0.0,0.0,0.0,0.0,0.0,0.0,0.0,0.0,0.0,0.0,0.0,0.0,0.0,0.0,0.0,0.0,0.0,0.0,0.0,0.0,0.0,0.0,0.0,0.0,0.0,0.0,0.0,0.0,0.0,0.0,0.0,0.0,0.0,0.0,0.0,0.0,0.0,0.0,0.0,0.0,0.0,0.0,0.9936,1.0426,1.1156,1.2735,1.2881,1.2881,1.2881,1.2116,1.1659,1.1771,0.0,0.0,0.0,0.0,0.0,0.0,0.0,0.0,0.0,0.0,0.0,0.0,0.0,0.0,0.0,0.0,0.0,0.0,0.0,0.0,0.0,0.0,0.0,0.0,0.0,0.0,0.0,0.0,0.0,0.0,0.0,0.0,0.0,0.0,0.0,0.0,0.0,0.0,0.0,0.0,0.0,0.0,0.0,0.0,0.0,0.0,0.0,0.0,0.0,0.0,0.0,0.0,0.0,0.0,0.0,0.0,0.0,0.0,0.0,0.0,1.0795,0.0,0.0,0.0,0.0,0.0,0.0,0.0,0.0,0.0,0.0,0.0,0.0,0.0,0.0,0.0,0.0,0.0,0.0,0.0,0.0,0.0,0.0,0.0,0.0,0.0,0.0,0.0,0.0,0.0,0.0,0.0,0.0,0.0,0.0,0.0,0.0,0.0,0.0,0.0,0.0,0.0,1.0187,1.1039,1.184,1.2813,1.2881,1.2881,1.2881,1.2116,1.1659,1.1771,1.1048,0.0,0.0,0.0,0.0,0.0,0.0,0.0,0.0,0.0,0.0,0.0,0.0,0.0,0.0,0.0,0.0,0.0,0.0,0.0,0.0,0.0,0.0,0.0,0.0,0.0,0.0,0.0,0.0,0.0,0.0,0.0,0.0,0.0,0.0,0.0,0.0,0.0,0.0,0.0,0.0,0.0,0.0,0.0,0.0,0.0,0.0,0.0,0.0,0.0,0.0,0.0,0.0,0.0,0.0,0.0,0.0,0.0,0.0,0.0,0.0,1.1357,0.0,0.0,0.0,0.0,0.0,0.0,0.0,0.0,0.0,0.0,0.0,0.0,0.0,0.0,0.0,0.0,0.0,0.0,0.0,0.0,0.0,0.0,0.0,0.0,0.0,0.0,0.0,0.0,0.0,0.0,0.0,0.0,0.0,0.0,0.0,0.0,0.0,0.0,0.0,0.0,1.0238,1.1111,1.1916,1.2803,1.2881,1.2881,1.2881,1.2266,1.184,1.1724,1.1223,0.0,0.0,0.0,0.0,0.0,0.0,0.0,0.0,0.0,0.0,0.0,0.0,0.0,0.0,0.0,0.0,0.0,0.0,0.0,0.0,0.0,0.0,0.0,0.0,0.0,0.0,0.0,0.0,0.0,0.0,0.0,0.0,0.0,0.0,0.0,0.0,0.0,0.0,0.0,0.0,0.0,0.0,0.0,0.0,0.0,0.0,0.0,0.0,0.0,0.0,0.0,0.0,0.0,1.7509,1.8054,1.8455,1.8565,1.7952,1.6634,1.4831,1.3164,1.1808,1.2578,0.0,0.0,0.0,0.0,0.0,0.0,0.0,0.0,0.0,0.0,0.0,0.0,0.0,0.0,0.0,0.0,0.0,0.0,0.0,0.0,0.0,0.0,0.0,0.0,1.0167,1.0279,0.8437,0.0,0.0,0.0,0.0,0.0,0.0,0.0,0.0,0.0,0.0,0.0,1.0273,1.1146,1.1968,1.2793,1.2968,1.3017,1.2929,1.2565,1.2152,1.1743,1.1533,1.1085,0.0,0.0,0.0,0.0,0.0,0.0,0.0,0.0,0.0,0.0,0.0,0.0,0.0,0.0,0.0,0.0,0.0,0.0,0.0,0.0,0.0,0.0,0.0,0.0,0.0,0.0,0.0,0.0,0.0,0.0,0.0,0.0,1.2971,1.3231,0.0,0.0,0.0,0.0,0.0,0.0,0.0,0.0,0.0,0.0,0.0,0.0,0.0,1.7375,1.8326,1.9724,2.019,1.9853,2.1031,2.0876,1.9518,2.0049,1.9898,1.9252,1.9304,0.0,1.3232,1.2978,0.0,0.0,0.0,0.0,0.0,0.0,0.0,0.0,0.0,0.0,0.0,0.0,0.0,0.0,0.0,0.0,0.0,0.0,0.0,0.0,0.0,0.0,0.9944,1.0596,1.0965,1.1174,0.0,1.1284,1.0825,0.9746,0.957,0.0,0.0,0.0,0.0,0.0,0.0,0.0,1.0559,1.1805,1.2764,1.2871,1.3372,1.3467,1.2929,1.2955,1.275,1.2139,1.1777,1.1547,1.1544,1.1667,0.0,0.0,0.0,0.0,0.0,0.0,0.0,0.0,0.0,0.0,0.0,0.0,0.0,0.0,0.0,0.0,0.0,0.0,0.0,0.0,0.0,0.0,0.0,0.0,0.0,0.0,0.0,0.0,0.0,1.382,1.4617,1.4502,1.4856,1.4797,0.0,0.0,0.0,0.0,0.0,0.0,0.0,0.0,0.0,2.0496,2.1307,2.1696,2.1699,2.2959,2.3191,2.2407,2.3617,2.394,2.3542,2.3823,2.3308,2.2291,2.245,2.0705,1.755,1.6174,1.4736,1.3292,0.0,0.0,0.0,0.0,1.1828,1.2314,1.1802,1.2088,1.2567,1.2111,0.0,0.0,0.0,0.0,0.0,0.0,0.0,0.0,0.0,0.0,1.1547,1.2079,1.2458,1.2761,1.3114,1.335,1.2924,0.0,1.0624,1.0262,0.9717,0.0,0.0,0.0,0.0,1.0661,1.1116,1.2197,1.3017,1.3372,1.3637,1.3826,1.3931,1.3636,1.3163,1.2399,1.188,1.149,1.131,1.1135,1.1056,0.0,0.0,0.0,0.0,0.0,0.0,0.0,0.0,0.0,0.0,0.0,0.0,0.0,0.0,0.0,0.0,0.0,0.0,0.0,0.0,0.0,0.0,0.0,0.0,0.0,0.0,0.0,0.0,1.5369,1.6403,1.5752,1.6645,1.6885,0.0,0.0,0.0,0.0,0.0,0.0,2.0127,2.1517,2.3048,2.484,2.5558,2.57,2.5327,2.6148,2.6197,2.5422,2.6238,2.6726,2.6879,2.6879,2.6338,2.5281,2.5281,2.4038,2.1839,1.946,1.7338,1.5488,1.5036,1.478,1.4635,1.3922,1.4323,1.5083,1.4069,1.4361,1.4949,1.3951,1.3451,1.3037,1.2168,0.0,0.0,0.0,0.0,1.167,1.1727,1.2272,1.2964,1.3406,1.3886,1.427,1.4421,1.4661,1.4353,0.0,1.1581,1.1011,1.0556,0.0,0.0,0.0,0.0,1.0864,1.1805,1.2628,1.3382,1.3956,1.419,1.4365,1.4652,1.4283,1.3704,1.288,1.2132,1.1582,1.126,1.1027,1.1007,1.1148,0.0,0.0,0.0,0.0,0.0,0.0,0.0,0.0,0.0,0.0,0.0,0.0,0.0,0.0,0.0,0.0,0.0,0.0,0.0,0.0,0.0,0.0,0.0,0.0,0.0,0.0,0.0,0.0,0.0,1.6626,1.894,0.0,0.0,0.0,0.0,2.0474,2.1655,2.3252,2.5321,2.5502,2.6364,2.8094,2.8237,2.8708,2.9739,2.9808,2.9681,2.924,2.9293,2.8866,2.8021,2.8021,2.8009,2.7898,2.7898,2.6806,2.473,2.1908,2.022,1.9437,1.893,1.909,1.9391,1.8288,1.8199,1.8351,1.6987,1.6511,1.6492,1.583,1.5147,1.4366,1.3634,1.3095,0.0,0.0,1.2227,1.2453,1.2622,1.3168,1.3893,1.4579,1.5011,1.5313,1.5352,1.5264,1.4744,0.0,1.2393,1.1613,1.0825,0.0,0.9384,0.991,1.0466,1.1258,1.258,1.3321,1.4003,1.4606,1.5186,1.5276,1.4744,1.4652,1.44,1.3752,1.2775,1.2141,1.2122,1.2112,1.1984,1.1771,1.208,0.0,0.0,0.0,0.0,0.0,0.0,0.0,0.0,0.0,0.0,0.0,0.0,0.0,0.0,0.0,0.0,0.0,0.0,0.0,0.0,0.0,0.0,0.0,0.0,0.0,0.0,0.0,0.0,2.1263,2.293,0.0,2.2422,2.3007,2.3583,2.4003,2.5242,2.6611,2.818,2.901,3.0167,3.1649,3.2093,3.2255,3.2074,3.2407,3.2036,3.0978,3.0735,3.0427,3.0073,2.9466,2.8988,2.8612,2.826,2.7526,2.6445,2.5093,2.2917,2.0515,2.0282,2.0194,2.0128,2.0021,2.0004,2.0064,1.9879,1.9225,1.8176,1.6799,1.6017,1.5436,1.459,1.4265,1.4014,1.3544,1.3669,1.4006,1.4029,1.441,1.4898,1.5128,1.5303,1.541,1.541,1.5362,1.5158,1.4668,1.3288,1.2255,1.2445,1.1043,1.0324,1.1679,1.1641,1.1953,1.3273,1.3663,1.4179,1.5186,1.5454,1.5499,1.5276,1.4686,1.4049,1.3373,1.2101,1.1504,1.1787,1.1523,1.1562,1.2032,1.2186,1.1862,0.0,0.0,0.0,0.0,0.0,0.0,0.0,0.0,0.0,0.0,0.0,0.0,0.0,0.0,0.0,0.0,0.0,0.0,0.0,0.0,0.0,0.0,0.0,0.0,0.0,0.0,2.4632,2.4853,2.6587,2.7365,2.6237,2.6539,2.7099,2.768,2.8763,2.9933,3.118,3.2048,3.3036,3.4143,3.4607,3.4545,3.3981,3.4339,3.3825,3.2567,3.2272,3.196,3.1669,3.1057,3.0248,2.941,2.9039,2.8248,2.7256,2.6892,2.5185,2.2746,2.2557,2.2455,2.2389,2.2249,2.2291,2.2327,2.1715,2.0632,1.925,1.7541,1.6748,1.6377,1.5654,1.5342,1.5156,1.4863,1.5,1.5176,1.5039,1.5312,1.5596,1.5449,1.541,1.541,1.541,1.541,1.541,1.541,1.4055,1.3055,1.3525,1.218,1.1526,1.2896,1.2595,1.2827,1.4489,1.4478,1.4793,1.6053,1.5828,1.5588,1.5588,1.4574,1.377,1.3352,1.1907,1.1295,1.1768,1.1281,1.131,1.1976,1.1978,1.1695,1.12,0.0,0.0,0.0,0.0,0.0,0.0,0.0,0.0,0.0,0.0,0.0,0.0,0.0,0.0,0.0,0.0,0.0,0.0,0.0,0.0,0.0,0.0,0.0,2.2686,2.5935,2.8008,2.7195,2.9879,3.0951,2.8755,2.9784,3.0911,3.1511,3.2228,3.3155,3.4442,3.4502,3.4816,3.5489,3.5504,3.5504,3.5504,3.5504,3.4986,3.4027,3.4027,3.3518,3.2664,3.2593,3.1792,3.0434,3.0408,2.9262,2.7352,2.7326,2.7012,2.6471,2.5837,2.5963,2.6395,2.5259,2.5197,2.5249,2.2425,2.0884,1.9886,1.8019,1.7422,1.7344,1.6885,1.6445,1.6164,1.6145,1.6145,1.5986,1.5566,1.5752,1.5957,1.5557,1.5439,1.5439,1.5449,1.5449,1.5449,1.5449,1.4793,1.4182,1.3889,1.3177,1.2821,1.3438,1.3331,0.0,1.6223,1.582,1.5867,1.7277,1.6329,1.5623,1.5591,1.4365,1.3674,1.3779,1.2268,1.1653,1.2161,1.1567,1.1358,1.1621,1.1554,1.1225,1.0618,0.0,0.0,0.0,0.0,0.0,0.0,0.0,0.0,0.0,0.0,0.0,0.0,0.0,0.0,0.0,0.0,0.0,0.0,0.0,0.0,0.0,0.0,2.705,2.6995,3.0037,3.2482,3.3212,3.4036,3.428,3.3621,3.3501,3.3469,3.3649,3.4292,3.4846,3.5205,3.522,3.531,3.5489,3.5504,3.5504,3.5504,3.5504,3.5359,3.5067,3.4327,3.3876,3.3602,3.289,3.2134,3.1278,3.0842,2.9738,2.8131,2.7754,2.7182,2.6508,2.6289,2.6314,2.6496,2.6126,2.6101,2.5847,2.2867,2.1943,2.168,1.9113,1.8291,1.8154,1.7422,1.7119,1.6953,1.6641,1.6553,1.6523,1.6396,1.6221,1.6113,1.6318,1.6123,1.5977,1.6299,1.6367,1.6367,1.6367,1.6181,1.5817,1.507,1.4057,1.357,1.4317,1.4538,0.0,1.6151,1.615,1.6515,1.7713,1.6658,1.5739,1.5433,1.4253,1.3409,1.3152,1.2142,1.1723,1.2161,1.2027,1.2117,1.2541,1.2267,1.1859,0.0,0.0,0.0,0.0,0.0,0.0,0.0,0.0,0.0,0.0,0.0,0.0,0.0,0.0,0.0,0.0,0.0,0.0,0.0,0.0,0.0,0.0,2.8841,3.172,3.2865,3.4268,3.55,3.6509,3.6584,3.6369,3.6071,3.5351,3.4906,3.4906,3.528,3.5504,3.5504,3.5504,3.5504,3.5504,3.5504,3.5504,3.5504,3.5504,3.5504,3.5504,3.4905,3.461,3.461,3.3753,3.2794,3.1836,3.1204,3.027,2.904,2.8093,2.7691,0.0,0.0,0.0,0.0,0.0,2.6533,2.6177,2.3812,2.2822,2.2221,1.9955,1.8854,1.8281,1.7793,1.7529,1.7334,1.708,1.7002,1.6963,1.6777,1.667,1.6631,1.6709,1.6533,1.6416,1.668,1.6665,1.6665,1.6665,1.6665,0.0,1.6055,1.5241,1.4953,1.583,1.5817,1.617,1.7274,1.6938,1.6907,1.7843,1.6356,1.5235,1.494,1.3818,0.0,0.0,0.0,1.1863,1.2032,1.2167,0.0,0.0,0.0,1.181,1.1792,1.072,0.0,0.0,0.8136,0.7755,0.0,0.0,0.0,0.0,0.0,0.0,0.0,0.0,0.0,0.0,0.0,0.0,0.0,0.0,0.0,0.0,3.3488,3.6346,3.8888,3.8221,3.7623,3.8133,3.8026,3.7616,3.6783,3.6054,3.5619,3.5504,3.5504,3.5504,3.5504,0.0,0.0,0.0,0.0,3.5474,3.5385,3.5474,3.5474,3.5385,3.5474,3.5504,3.5489,3.4801,3.3706,3.2304,3.1637,3.0911,3.0053,2.8673,2.8625,2.9184,2.7322,2.6584,2.6533,2.6533,2.6533,2.6296,2.4788,0.0,0.0,2.054,1.9155,1.8008,1.8008,1.7744,1.7451,1.7451,1.7451,1.7363,1.6973,1.7129,1.7305,1.6953,1.6836,1.6816,1.6865,1.6875,1.6875,1.6875,1.6875,1.6875,1.6875,1.6527,1.6617,1.7462,1.7158,1.7442,1.8939,1.7836,1.7179,1.7808,0.0,0.0,1.4374,1.3412,1.2832,1.2881,1.2415,1.2062,1.1921,1.2233,1.2431,1.2529,1.1819,1.1592,1.1922,1.1266,1.0864,1.0762,0.8908,0.8249,0.0,0.0,0.0,0.0,0.0,0.0,0.0,0.0,0.0,0.0,0.0,0.0,0.0,0.0,0.0,3.3486,3.6455,3.8805,4.0544,4.0543,4.0439,4.0551,3.945,3.8414,3.7632,3.6859,3.6165,3.5554,3.5504,3.5504,3.5504,3.5504,3.5504,3.5504,3.5504,3.5235,3.4681,3.5235,3.5235,3.4681,0.0,0.0,3.5489,3.4801,3.405,3.3193,3.2525,3.1775,3.096,3.0643,2.9831,2.8739,2.7602,2.6854,2.6533,2.6533,2.6533,2.6296,2.4788,2.335,2.198,2.054,1.9155,1.8008,1.8008,1.7959,0.0,1.7891,1.7891,1.7871,1.7783,1.7578,1.7451,1.7705,1.75,1.7353,1.7695,1.7764,1.7764,1.7764,1.7764,1.7764,1.7764,1.7668,1.7697,1.7913,1.855,1.9127,1.9456,1.8425,1.7734,1.7875,1.5976,1.4655,1.4415,1.3665,1.3082,1.29,1.2803,1.2706,1.2706,1.2735,1.2783,1.2832,1.2676,1.2618,1.2666,1.1981,1.1316,1.0813,1.0399,0.9953,0.0,0.0,0.0,0.0,0.0,0.0,0.0,0.0,0.0,0.0,0.0,2.6243,0.0,0.0,3.4362,3.7585,3.921,4.0493,4.1593,4.1102,4.0646,4.0646,3.9601,3.8745,3.8414,3.7674,3.7055,3.6662,3.6662,3.6477,3.6054,3.6054,3.5894,3.5504,3.5504,3.534,3.4996,3.5325,3.5325,3.4996,3.534,3.5504,3.5474,3.4457,3.3799,3.344,3.2452,3.1946,3.188,3.2072,3.0769,2.8607,2.8438,2.7646,2.6533,2.6533,2.6533,2.6414,2.5691,2.4282,2.2705,2.2037,2.0664,1.9299,1.9299,1.9299,1.9299,1.9299,1.9299,1.9177,1.8787,1.8502,1.8258,1.8094,1.7852,1.7754,1.7969,1.8008,1.8008,1.8008,1.8008,1.8008,1.8008,1.8354,1.8723,1.8851,1.8913,1.9121,1.9523,1.8499,1.752,1.6939,1.5456,1.4297,1.3985,1.3437,1.3056,1.29,1.2881,1.2881,1.2881,1.2881,1.2881,1.2881,1.2881,1.2881,1.2881,1.255,1.2197,1.1841,1.1841,1.0931,0.0,0.0,0.0,0.0,0.0,0.0,0.0,0.0,2.3824,2.6543,2.9055,3.1627,3.4644,3.6406,3.832,4.0965,4.1288,4.1407,4.1999,4.1052,4.024,4.0104,3.9542,3.9086,3.8908,3.8358,3.7978,3.7806,3.7822,3.7515,3.6843,3.6843,3.6569,3.5973,3.5797,3.5672,3.5537,3.5494,3.5429,3.531,3.5444,3.5429,3.5265,3.4053,3.3425,3.3245,3.2183,3.2018,3.2557,3.294,3.1545,2.9241,2.9789,2.8782,2.7018,2.6665,2.6533,2.6533,2.6533,2.516,2.3501,2.3501,2.219,2.0602,2.0702,2.0736,2.0758,2.0913,2.0935,2.0729,1.992,1.9764,1.9653,1.8694,1.8464,1.8368,1.8289,1.8144,1.8008,1.8008,1.8076,1.8135,1.8135,1.8843,1.953,1.9802,1.9284,1.9034,1.9701,1.8596,1.7269,1.6051,1.4797,1.3926,1.3428,1.3076,1.2881,1.2881,1.2881,1.2881,1.2881,1.2881,1.2881,1.2881,1.2881,1.2881,1.2881,1.2881,1.2774,1.251,1.2618,1.1493,1.285,1.393,1.6612,2.0279,2.2062,2.4785,0.0,0.0,3.2497,3.5791,3.7203,3.8167,3.9227,3.9598,4.0273,4.1914,4.1627,4.1238,4.1322,4.1187,4.0832,4.0155,4.002,3.9679,3.8962,3.8799,3.8525,3.7863,3.7822,3.7748,3.769,3.769,3.7648,3.7531,3.6859,3.6214,3.5596,3.5543,3.519,3.4607,3.522,3.519,3.4562,3.3829,3.3185,3.2617,3.2467,3.2437,3.2557,3.294,3.2557,3.176,3.1636,3.058,2.8939,2.7151,2.6533,2.6533,2.6533,2.516,2.3501,2.3501,2.219,2.0669,2.1183,2.1306,2.1396,2.1902,2.2026,2.1857,2.1286,2.1498,2.1598,2.0543,2.0071,1.9735,1.926,1.8529,1.8008,1.8008,1.8311,1.8494,1.8494,1.9231,2.0009,2.0451,2.0588,2.0606,2.0342,1.9194,1.7778,1.6083,1.4797,1.3818,1.3018,1.291,1.2881,1.2881,1.2881,1.2881,1.2881,1.2881,1.2881,1.2881,1.2881,1.2881,1.2881,1.2881,1.2264,1.1074,1.1665,1.1765,1.666,1.8852,0.0,0.0,2.6502,3.0053,3.3369,3.4593,3.5861,3.8672,4.0491,4.1525,4.1407,4.1728,4.2083,0.0,4.1677,4.1204,4.1204,4.046,3.9648,3.8903,3.8819,3.9024,3.9527,3.961,3.9437,3.9172,3.9119,3.8941,3.8486,3.8414,3.8246,3.7806,3.7456,3.6958,3.6181,3.5753,3.5214,3.4472,3.4382,3.4188,3.3888,3.3215,3.2557,3.1943,3.1943,3.1943,3.1959,3.2505,3.2528,3.2062,3.161,3.0634,2.9359,2.8213,2.746,2.6892,2.6647,2.5722,2.4706,2.4706,2.3993,2.3099,2.3316,2.3388,2.3436,2.3652,2.3713,2.352,2.2831,2.2791,2.2703,2.1744,2.1396,2.1011,1.9995,1.9899,1.9832,1.9301,1.9787,2.0133,1.9928,2.018,2.0371,2.0232,2.0206,2.0007,1.9438,1.8403,1.7116,1.5467,1.4374,1.3623,1.3271,1.3018,1.2881,1.2881,1.2881,1.2881,1.2881,1.2881,1.2881,1.2881,1.2881,1.2881,1.2881,1.2881,1.2353,1.1366,1.1665,1.1814,1.9184,0.0,0.0,2.6617,3.0844,3.474,3.5334,3.7018,3.9002,4.0983,4.2439,4.325,4.2709,4.2709,4.2625,4.2083,4.1373,4.0832,4.0629,3.9495,3.8413,3.7686,3.7415,3.777,3.9039,3.9546,3.9868,4.0054,4.007,3.985,3.9262,3.9262,3.8978,3.843,3.8012,3.7444,3.6667,3.5758,3.4926,3.4203,3.3724,3.3395,3.32,3.2542,3.1988,3.1482,3.1482,3.1482,3.1526,3.2243,3.2404,3.2198,3.1941,3.1197,3.0119,2.9336,2.8229,2.6992,2.6603,2.6076,2.5598,2.5598,2.5247,2.4845,2.4996,2.5034,2.5071,2.5222,2.5272,2.509,2.431,2.4171,2.4073,2.3159,2.2651,2.2125,2.1226,2.1127,2.1127,2.0719,2.1294,2.1709,2.1447,2.136,2.1058,2.0243,1.9942,1.9467,1.8533,1.7438,1.6229,1.4919,1.4121,1.3633,1.3516,1.3125,1.2881,1.2881,1.2881,1.2881,1.2881,1.2881,1.2881,1.2881,1.2881,1.2881,1.2881,1.2715,1.2246,1.1516,1.1516,1.1416,1.8546,0.0,2.5123,3.0941,3.5112,3.8516,4.1338,4.2621,4.3415,4.4282,4.3893,4.3403,4.3386,4.2236,4.1271,4.1238,4.0595,3.9868,3.9157,3.8413,3.7652,3.6907,3.6146,3.5994,0.0,3.8176,3.9326,4.002,4.007,4.007,4.007,4.007,4.007,4.002,3.8598,3.7497,3.6806,3.5258,3.4222,3.3529,3.3499,3.3155,3.2527,3.1869,3.1497,3.1482,3.1482,3.1482,3.1526,3.2243,3.2527,3.2542,3.3154,3.2867,3.1861,3.0448,2.8505,2.6546,2.6533,2.6076,2.5598,2.5598,2.5247,2.4921,2.5423,2.5573,2.5686,2.6251,2.6483,2.6289,2.5711,2.5988,2.6138,2.5006,2.3759,2.2992,2.3317,2.2047,2.1075,2.1967,2.2498,2.2835,2.2846,2.2704,2.2242,2.0938,2.0243,1.9456,1.8185,1.6497,1.5264,1.4834,1.4385,1.3902,1.3545,1.3125,1.2881,1.2881,1.2881,1.2881,1.2881,1.2881,1.2881,1.2881,1.2881,1.2881,1.2881,1.2187,1.1466,1.0813,1.0813,1.0466,2.1479,0.0,3.1482,3.4775,3.8605,4.183,4.2811,4.3234,4.3504,4.3758,4.1802,3.993,3.9479,3.812,3.7148,3.7213,3.7997,3.8548,3.8311,3.8481,3.7787,3.552,3.5926,0.0,0.0,0.0,0.0,3.9276,3.8903,3.9056,4.002,3.9631,3.958,4.0054,3.9598,3.8733,3.7465,3.6502,3.5204,3.3459,3.2613,3.2078,3.1854,3.1571,3.1482,3.1482,3.1482,3.1482,3.1497,3.1764,3.2123,3.2497,3.2273,3.1928,3.1343,2.9897,2.8473,2.7229,2.6714,2.6395,2.6163,2.6163,2.605,2.5937,2.6113,2.6163,2.6214,2.6471,2.6533,2.6483,2.6214,2.6382,2.6433,2.6,2.5617,2.4879,2.3433,2.3593,2.3718,2.2831,2.3733,2.459,2.4319,2.3956,2.2867,2.0535,1.911,1.7981,1.7249,1.6384,1.5576,1.4863,1.4394,1.3965,1.3545,1.3125,1.2881,1.2881,1.2881,1.2881,1.2881,1.2881,1.2881,1.2881,1.2881,1.2881,1.2881,1.2666,1.194,1.0813,1.0813,1.0415,2.584,3.0668,3.5172,3.8517,4.1415,4.342,4.342,4.342,4.3115,4.2066,3.9546,3.7269,3.6204,3.4605,3.3532,3.3972,3.504,3.6089,3.6835,3.7121,3.678,3.547,3.5926,3.6079,0.0,0.0,0.0,3.8481,3.865,3.8971,3.9648,3.9495,3.9597,4.007,3.9817,3.8992,3.7458,3.6768,3.5451,3.356,3.2662,3.2104,3.1894,3.1894,3.1739,3.1482,3.1482,3.1482,3.1482,3.1482,3.1779,3.2123,3.1704,3.1264,3.0725,2.9457,2.8427,2.7604,2.6782,2.6533,2.6533,2.6533,2.6533,2.6533,2.6533,2.6533,2.6533,2.6533,2.6533,2.6533,2.6533,2.6533,2.6533,2.6533,2.5943,2.5109,2.392,2.3979,2.4108,2.327,2.405,2.4737,2.4331,2.3433,2.1978,1.9799,1.8108,1.7051,1.6768,1.6074,1.5391,1.4844,1.4258,1.3799,1.3525,1.3125,1.2881,1.2881,1.2881,1.2881,1.2881,1.2881,1.2881,1.2881,1.2881,1.2881,1.2881,1.2618,1.2039,1.1166,1.0914,1.0415,3.1195,3.407,3.6375,4.2001,4.342,4.342,4.3365,4.3213,4.2267,3.9345,3.7082,3.5079,0.0,0.0,3.0599,3.1662,3.205,3.2923,3.5027,3.4868,3.5088,0.0,0.0,0.0,0.0,0.0,0.0,3.7804,0.0,3.9665,3.9089,3.9665,4.0037,4.007,3.9377,3.8337,3.6852,3.6042,3.497,3.3633,3.3649,3.3235,3.2586,3.2586,3.2231,3.1482,3.1482,3.1482,3.1482,3.1482,3.1482,3.1482,3.1482,3.1029,3.0208,2.9317,2.8427,2.7604,2.6782,2.6533,2.6533,2.6533,2.6533,2.6533,2.6533,2.6533,2.6533,2.6533,2.6533,2.6533,2.6533,2.6533,2.6533,2.6533,2.4981,2.3818,2.4707,2.3441,2.2403,2.3294,2.3492,2.3397,2.2984,2.1348,1.9765,1.8784,1.7519,1.6665,1.6665,1.5615,1.4805,1.4756,1.4023,1.3525,1.3477,1.3105,1.2881,1.2881,1.2881,1.2881,1.2881,1.2881,1.2881,1.2881,1.2881,1.2881,1.2881,1.2187,1.1765,1.1715,1.1065,1.0364,3.408,3.7866,4.1543,4.2989,4.342,4.3238,4.2682,4.0567,3.8065,3.589,3.187,2.8223,0.0,0.0,0.0,2.9194,3.2403,0.0,3.6983,3.7995,0.0,3.6924,0.0,3.777,3.6874,3.7601,0.0,0.0,3.7736,3.8261,3.9715,3.9462,3.9512,4.0054,3.9377,3.8584,3.7631,3.5824,3.4725,3.4333,3.3836,3.3235,3.2586,3.2586,3.2231,3.1482,3.1482,3.1482,3.1482,3.1482,3.1482,3.1482,3.1482,3.1029,3.0208,2.9317,2.8427,2.7604,2.6782,2.6533,2.6533,2.6533,2.6533,2.6533,2.6533,2.6533,2.6533,2.6533,2.6533,2.6533,2.6533,2.6533,2.6533,2.6533,2.5511,2.448,2.3963,2.4036,2.412,2.3599,2.3858,2.3931,2.3438,2.153,1.975,1.874,1.7516,1.6665,1.6665,1.5869,1.501,1.4365,1.4102,1.3721,1.3096,1.2939,1.2881,1.2881,1.2881,1.2881,1.2881,1.2881,1.2881,1.2881,1.2881,1.2881,1.2881,1.2187,1.1566,1.1065,1.0364,0.971,3.7796,4.084,4.342,4.342,4.342,4.2715,4.0038,3.7672,3.4905,3.072,2.6886,0.0,2.2338,2.2848,0.0,0.0,0.0,0.0,3.6316,3.7761,3.8434,0.0,3.8971,0.0,3.8311,3.8404,3.8556,0.0,3.8464,3.8633,3.9546,3.9512,3.9648,4.007,3.9681,3.8971,3.7922,3.6008,3.5052,3.5035,3.4657,3.3953,3.3039,3.3039,3.2477,3.1482,0.0,3.1482,3.1482,3.1482,3.1482,3.1482,3.1482,3.0777,2.969,2.9192,2.8247,2.7095,2.6658,2.6533,2.6533,2.6533,2.6533,2.6533,2.6533,2.6533,2.6533,2.6533,2.6533,2.6533,2.6533,2.6533,2.6533,2.6533,2.5734,2.4862,2.4264,2.3891,2.3514,2.2925,2.2789,2.2569,2.2389,2.0869,1.9442,1.8481,1.7432,1.6665,1.6665,1.5801,1.4951,1.4473,1.4082,1.3662,1.3193,1.2988,1.2881,1.2881,1.2881,1.2881,1.2881,1.2881,1.2881,1.2881,1.2881,1.2881,1.2881,1.2187,1.1616,1.1216,1.0559,0.9865,4.1321,4.2796,4.3365,4.3238,4.3006,4.1536,3.6572,3.4529,3.1823,2.5066,0.0,2.0703,1.9284,1.975,2.1332,2.443,0.0,3.0268,3.4675,3.6,3.7398,3.9649,4.002,4.007,4.007,3.8818,3.8529,3.9969,4.002,3.9682,3.9174,3.9732,4.0037,3.9935,3.9834,3.914,3.777,3.6332,3.5622,3.5622,3.5515,3.48,3.3582,3.3495,3.2772,3.1482,3.1482,3.1482,3.1482,3.1482,3.1482,3.1482,3.1482,3.0464,2.9002,2.9002,2.792,2.6533,2.6533,2.6533,2.6533,2.6533,2.6533,2.6533,2.6533,2.6533,2.6533,2.6533,2.6533,2.6533,2.6533,2.6533,2.6533,2.6533,2.5734,2.5004,2.5004,2.3661,2.2403,2.2542,2.1656,2.0815,2.0966,1.9918,1.8824,1.8065,1.7295,1.6777,1.666,1.5605,1.4844,1.4795,1.4121,1.3652,1.3594,1.3203,1.2969,1.2969,1.291,1.2881,1.2881,1.2881,1.2881,1.2881,1.2881,1.2832,1.2764,1.203,1.1616,1.1516,1.0864,1.0218,4.2047,4.2812,4.3238,4.2567,4.1046,3.8774,3.4903,3.102,0.0,0.0,1.87,1.6613,1.4765,1.7172,2.0331,2.3103,2.652,3.0461,3.5033,3.6401,3.7451,0.0,3.9731,4.007,4.007,3.9268,0.0,0.0,3.9489,3.9318,3.9884,4.0003,3.98,3.9191,3.8599,3.7872,3.6992,3.6079,3.5622,3.5577,3.5052,3.4333,3.3582,3.3039,3.2327,3.1482,3.1482,0.0,3.1482,3.1482,3.1482,3.1482,3.1482,3.0464,2.9002,2.9002,2.792,2.6533,2.6533,2.6533,2.6533,2.6533,2.6533,2.6533,2.6533,2.6533,2.6533,2.6533,2.6533,2.6533,2.6533,2.6533,2.6533,2.6533,2.5734,2.5004,2.5004,2.4707,2.4707,2.5569,2.3642,2.192,2.192,1.9918,1.8083,1.7615,1.7363,1.7012,1.6269,1.5664,1.5176,1.4824,1.4648,1.4414,1.4053,1.3643,1.3398,1.3398,1.3076,1.2881,1.2881,1.2881,1.2881,1.2881,1.2881,1.2608,1.1972,1.1316,1.0669,1.0115,0.9465,0.9061,4.0988,4.1579,4.1871,4.0766,3.9198,3.6528,3.1173,0.0,0.0,0.0,1.5369,1.4126,1.3262,1.5698,0.0,2.077,2.4191,2.8046,3.2278,3.4069,0.0,3.7562,3.8477,3.9049,0.0,3.8761,3.8816,4.002,3.9368,3.9262,4.007,3.9715,3.936,3.9005,3.8278,3.7736,3.7381,3.6992,3.6603,3.6231,3.5523,3.4806,3.4126,3.3052,3.2231,3.1482,3.1482,3.1482,3.1482,3.1482,3.1482,3.1467,3.1029,3.0133,2.8939,2.8492,2.7537,2.6533,2.6533,2.6533,2.6533,2.6533,2.6533,2.6533,2.6533,2.6251,2.6076,2.6445,2.6239,2.6076,2.6445,2.6533,2.6533,2.6533,2.6094,2.5664,2.5087,2.5004,2.5158,2.5664,2.3792,2.2115,2.2195,2.0247,1.8459,1.7801,1.7529,1.7227,1.6807,1.6367,1.584,1.5186,1.4912,1.4697,1.4492,1.3877,1.3506,1.3506,1.3115,1.2881,1.2881,1.2881,1.2881,1.2881,1.251,1.2129,1.1814,1.0762,1.0115,0.9762,0.9106,0.8804,3.8914,3.9907,4.0222,3.8922,3.731,3.424,2.7692,2.3774,0.0,0.0,1.2739,1.2329,1.2395,0.0,1.631,0.0,2.094,2.4372,2.8449,3.0763,3.3052,0.0,3.6943,0.0,3.858,3.7962,0.0,3.9506,3.9156,3.9179,3.9851,3.9292,3.8988,3.8988,3.8278,3.799,3.8142,3.799,3.7506,3.6787,3.6026,3.5253,3.4409,3.3146,3.2201,3.1482,3.1482,3.1482,3.1482,3.1482,3.1409,3.1161,3.0524,2.9628,2.862,2.792,2.7162,2.6533,2.6533,2.6533,2.6533,2.6533,2.6533,2.6533,2.6533,2.6138,2.5875,2.6395,2.5902,2.5406,2.5934,2.6046,2.6083,2.6427,2.6533,2.6314,2.5511,2.53,2.53,2.53,2.3572,2.2115,2.2195,2.045,1.8787,1.8076,1.7734,1.749,1.7393,1.708,1.6572,1.5781,1.5312,1.5059,1.5059,1.4277,1.3779,1.3779,1.3389,1.3105,1.3018,1.3018,1.2969,1.2881,1.2187,1.1715,1.1566,1.0364,0.9718,0.9562,0.9061,0.8804,3.6061,3.7904,3.887,3.7951,3.5354,3.1625,2.6331,0.0,1.7704,1.2663,1.1325,1.1016,1.0825,1.1899,0.0,0.0,0.0,1.9938,2.4559,2.7364,3.0107,3.338,0.0,0.0,3.779,3.7203,0.0,3.7921,3.858,3.898,3.9074,3.9039,3.8988,3.8988,3.8278,3.8227,3.8886,3.8227,3.7483,3.6719,3.6027,3.499,3.3603,3.2877,3.2152,3.1482,3.1482,3.1482,0.0,3.1482,3.1087,3.0389,3.0329,2.9254,2.7802,2.7736,2.7162,2.6533,2.6533,2.6533,2.6533,2.6533,2.6533,2.6533,2.6533,2.6496,2.6458,2.6508,2.5524,2.4458,2.4506,2.453,2.4869,2.6189,2.6533,2.6452,2.6383,2.6383,2.6383,2.6383,2.408,2.2195,2.2195,1.9907,1.8076,1.8008,1.7978,1.7812,1.7432,1.7344,1.7139,1.6597,1.6211,1.6007,1.6007,1.5166,1.4668,1.4668,1.4258,1.3848,1.3467,1.3447,1.3271,1.2891,1.2187,1.1516,1.0914,1.0167,0.9465,0.891,0.8804,0.8804,3.2558,3.531,3.7167,3.6039,3.2707,2.8553,2.4189,0.0,1.4715,1.1371,1.0494,1.0244,1.0137,1.1161,1.2298,0.0,0.0,0.0,2.0329,2.2206,2.488,2.9434,3.1448,0.0,0.0,0.0,3.6904,3.7748,3.8092,3.7871,3.7068,3.7836,3.8125,3.7669,3.698,3.6903,3.7636,3.7343,3.7041,3.6702,3.5982,3.5326,3.4697,3.3184,3.2362,3.2093,3.1704,3.1482,0.0,3.097,3.0584,3.0208,2.9129,2.8298,2.767,2.7162,2.6782,2.6533,2.6533,2.6533,2.6383,2.5804,2.5594,2.5734,2.6314,2.5623,2.467,2.5054,2.4113,2.2949,2.3029,2.3661,2.4522,2.5378,2.6094,2.6533,2.6533,2.6533,2.6314,2.5734,2.3723,2.1989,2.1435,1.9517,1.8008,1.8008,1.8008,1.7949,1.7783,1.7764,1.7695,1.7519,1.6641,1.6125,1.6125,1.5273,1.4785,1.4785,1.4141,1.3682,1.3516,1.3262,1.3047,1.2881,1.1783,1.1065,1.0813,0.971,0.9061,0.8811,0.8985,0.8971,2.7544,3.0926,3.3576,3.2465,2.9066,2.4967,0.0,0.0,1.2133,0.9909,0.9385,0.9354,0.9372,1.0349,1.1245,0.0,0.0,1.4234,1.6916,1.8478,2.0849,0.0,0.0,2.9421,0.0,3.4786,3.6276,3.7381,3.7456,3.6953,3.5774,3.668,3.6903,3.6219,3.586,3.6032,3.6734,3.6964,3.6924,3.6653,3.5923,3.538,3.4925,3.3231,3.2407,3.2198,3.1734,3.1351,0.0,3.0524,3.0011,2.938,2.8182,2.7433,2.705,2.665,2.6202,2.5847,2.5834,2.5726,2.5475,2.4673,2.4342,2.4507,2.538,2.4501,2.3314,2.3733,2.2731,2.1583,2.2082,2.2926,2.3987,2.5131,2.582,2.6251,2.6496,2.6395,2.5965,2.5193,2.3444,2.192,2.0966,1.9251,1.8008,1.8008,1.8008,1.8008,1.8008,1.8008,1.8008,1.8008,1.6963,1.626,1.626,1.5469,1.4971,1.4971,1.4287,1.3828,1.3691,1.3291,1.3008,1.2881,1.1534,1.0813,1.0813,0.9465,0.8804,0.8811,0.905,0.9077,2.0579,2.4401,2.74,2.6902,2.4177,2.0673,0.0,0.0,1.0255,0.8139,0.7874,0.8064,0.8277,0.9088,0.9941,1.0608,1.1347,0.0,1.4743,1.6918,0.0,0.0,0.0,2.5256,2.8384,3.191,3.4736,3.6477,3.66,0.0,3.5719,3.5694,3.5428,3.4723,3.538,3.6069,3.6814,3.7438,3.7381,3.6584,3.5918,3.485,3.3484,3.2811,3.2153,3.1482,3.1482,3.1029,0.0,3.0329,2.9254,2.7736,2.7736,2.6867,2.5674,2.6251,2.5541,2.4232,2.4333,2.3956,2.3436,2.3037,2.2809,2.2804,2.3369,2.325,2.2939,2.2939,2.1538,2.0439,2.1855,2.2195,2.2937,2.5822,2.6025,2.5762,2.6339,2.6013,2.5493,2.5051,2.3444,2.192,2.0966,1.9251,1.8008,1.8008,1.8008,1.8008,1.8008,1.8008,1.8008,1.8008,1.7236,1.6665,1.6665,1.5908,1.54,1.54,1.501,1.458,1.4087,1.3721,1.3311,1.2891,1.1534,1.0813,1.0813,0.9465,0.8804,0.8811,0.905,0.9183,1.6053,1.9168,2.1496,2.0916,1.8251,1.5246,1.3418,1.0134,0.7372,0.6914,0.6814,0.7036,0.7631,0.8374,0.9044,0.9584,1.038,0.0,0.0,0.0,0.0,1.8104,2.3066,2.6993,0.0,0.0,3.283,3.352,3.3617,3.3557,3.3521,3.3533,3.365,3.395,3.4123,3.4304,3.4523,3.4793,3.4729,3.4501,3.4304,3.3909,3.3469,3.2811,3.2392,3.2183,3.1676,3.1029,3.0269,2.9628,2.8748,2.763,2.6657,2.6003,2.5507,2.4762,2.4109,2.3665,2.3445,2.3254,2.2983,2.2431,2.2264,2.2137,2.1628,2.1439,2.1105,2.0234,1.9322,1.9039,2.0754,2.147,2.2217,2.4438,2.4982,2.5121,2.531,2.4711,2.4042,2.35,2.2225,2.0991,2.0303,1.9466,1.8779,1.8486,1.8437,1.833,1.8047,1.8008,1.79,1.7607,1.707,1.6665,1.6665,1.5918,1.541,1.541,1.4736,1.4277,1.4087,1.3457,1.3018,1.2881,1.1534,1.0886,1.114,0.9566,0.9018,0.9412,0.9499,0.9546,0.0,1.3772,1.5792,1.5263,1.3082,0.0,0.0,0.0,0.5376,0.5773,0.604,0.6382,0.6834,0.784,0.8553,0.8447,0.9094,0.989,0.0,0.0,0.0,1.6407,0.0,0.0,0.0,2.9039,3.0581,3.1156,3.1775,3.2135,3.2001,3.2303,3.2576,3.2788,3.2998,3.3138,3.3138,3.3382,3.3499,3.3499,3.3245,3.3125,3.3095,3.2437,3.2138,3.2123,3.1661,3.0837,0.0,2.9192,2.8163,2.6854,2.5924,2.5347,2.4841,2.3893,2.3105,2.2576,2.1998,2.174,2.1485,2.0865,2.091,2.1059,2.0147,2.0048,2.0092,1.8941,1.8447,1.8567,2.0136,2.0956,2.1866,2.3517,2.3941,2.4079,2.4484,2.3711,2.2811,2.249,2.1675,2.0814,2.0013,1.957,1.9141,1.8701,1.8562,1.8486,1.8057,1.8008,1.791,1.7646,1.709,1.6665,1.6665,1.5918,1.541,1.541,1.4554,1.4077,1.4077,1.333,1.2774,1.2501,1.1375,1.0775,1.0748,0.9521,0.9272,0.9846,0.9846,0.9846,0.0,0.8374,1.0215,0.9855,0.0,0.0,0.0,0.0,0.0,0.4627,0.5349,0.5865,0.5844,0.7247,0.8123,0.7176,0.7583,0.8312,0.0,1.0146,0.0,0.0,1.793,0.0,2.2442,2.5807,2.8227,2.9069,3.0748,3.1503,3.0907,3.1748,3.1976,3.1366,3.1931,3.2318,3.2437,3.3051,3.3365,3.335,3.2647,3.2332,3.2347,3.1734,3.1407,0.0,3.1394,3.045,2.8862,2.8898,2.7586,2.5586,2.5444,2.4806,2.3854,2.337,2.2269,2.093,2.0243,1.9656,1.918,1.8799,1.9228,1.9727,1.8926,1.9238,1.9687,1.8838,1.8594,1.8804,1.9844,2.0695,2.1608,2.3026,2.2965,2.2858,2.3762,2.2914,2.1886,2.1914,2.1544,2.0999,2.0053,1.959,1.917,1.863,1.8562,1.8486,1.8057,1.8008,1.7998,1.7969,1.7227,1.6719,1.6689,1.5898,1.541,1.541,1.4583,1.4107,1.4077,1.335,1.2588,1.1814,1.1141,1.0454,0.9747,0.9412,0.9528,1.0114,1.014,1.0134,0.267,0.0,0.4005,0.3965,0.3529,0.3114,0.0,0.0,0.0,0.0,0.0,0.3666,0.4142,0.4981,0.5534,0.5514,0.6252,0.7268,0.8558,0.0,0.0,1.3632,1.647,1.8705,1.9772,2.3106,2.5213,2.5362,2.6841,2.7736,2.7895,2.9157,2.9783,2.958,2.9769,3.0424,3.1706,3.1913,3.2003,3.1988,3.0821,3.0522,3.0971,3.0821,3.0391,2.9827,3.0366,2.9566,2.7946,2.7571,2.6661,2.5444,2.3932,2.32,2.2755,2.0973,2.0083,1.9642,1.9132,1.8832,1.8828,1.9053,1.9268,1.9394,1.9199,1.9277,1.9258,1.8398,1.8154,1.8429,1.976,1.9921,2.0257,2.197,2.1935,2.164,2.1878,2.1388,2.0938,2.0946,2.0541,2.0202,1.9912,1.9834,1.9512,1.875,1.8562,1.8486,1.8057,1.8008,1.7881,1.7568,1.7051,1.6592,1.625,1.5723,1.541,1.541,1.4922,1.4482,1.4087,1.3633,1.2874,1.1823,1.0886,1.0034,0.9343,0.9711,0.998,1.012,1.0347,1.0334,0.1193,0.1508,0.1834,0.2005,0.1878,0.1733,0.0,0.0,0.0,0.0,0.0,0.0,0.3025,0.4105,0.473,0.4065,0.5292,0.0,0.0,0.0,0.0,1.2198,1.4645,1.6779,0.0,2.0226,2.1914,2.279,2.3767,2.4809,2.5869,2.7019,2.7858,2.8207,2.8207,2.8788,2.9956,2.997,2.987,2.9551,2.8871,2.8711,2.903,2.903,2.8958,2.8799,2.9185,2.8588,2.7314,2.6997,2.5846,2.4186,2.3135,2.2315,2.1544,1.9911,1.9299,1.9208,1.8527,1.8052,1.7722,1.7948,1.7859,1.7679,1.7496,1.7569,1.7769,1.8139,1.8301,1.8439,1.9008,1.9375,1.9796,2.0831,2.0997,2.0906,2.0906,2.0582,2.0224,2.0021,1.9979,1.9853,1.9658,1.9629,1.9404,1.873,1.8562,1.8418,1.7803,1.7725,1.7559,1.7129,1.6689,1.6328,1.6145,1.5664,1.5235,1.4864,1.4839,1.4501,1.3885,1.3801,1.3195,1.1887,1.0824,1.0077,0.9639,0.996,1.0187,1.0321,1.0551,1.0474,0.0407,0.091,0.1551,0.1876,0.1807,0.1601,0.0,0.0,0.0,0.0,0.0,0.0,0.0,0.0,0.0,0.0,0.0,0.0,0.6472,0.8212,0.9729,1.0528,1.2516,0.0,1.6333,1.732,1.8665,2.0487,2.1258,2.2306,2.3802,2.4886,2.5836,2.6499,2.6499,2.6715,2.7161,2.7679,2.7714,2.7329,2.7076,2.7048,2.7131,2.7131,2.7377,2.7707,0.0,0.0,2.6555,2.6463,2.4937,2.265,2.2438,2.1555,2.0268,1.9431,1.911,1.8977,1.8124,1.7285,1.6567,1.6419,1.6076,1.5632,1.5325,1.545,1.6054,1.766,1.8174,1.8238,1.8027,1.8801,1.9624,1.9686,2.0006,2.0286,2.0286,2.0005,1.9697,1.9268,1.9531,1.9687,1.9258,1.9189,1.9043,1.8603,1.8545,1.8281,1.7568,1.7346,1.7031,1.6664,1.6047,1.5741,1.5741,1.5298,1.4688,1.3897,1.4372,1.4298,1.3546,1.3653,1.3241,1.2117,1.1068,1.0463,1.0288,1.0288,1.0383,1.0624,1.0624,1.0624,-0.0776,-0.031,0.05,0.1239,0.1352,0.1241,0.1199,0.0,0.0,0.0,0.0,0.0,0.0,0.0,0.0,0.0,0.0,0.5804,0.0,0.0,0.8016,0.7757,0.0,1.1682,1.3033,1.4714,1.6084,1.6918,1.8705,1.9707,1.9617,2.1665,2.2896,2.2963,2.2951,2.2788,2.2437,2.5248,2.6882,2.7315,2.6201,2.5993,2.6549,2.6549,2.6198,2.5621,0.0,2.5903,2.5089,2.4621,2.3726,2.2614,2.1388,2.0335,1.9365,1.8529,1.8202,1.8056,1.7139,1.6706,1.6498,1.5649,1.5338,1.5309,1.5251,1.5275,1.5317,1.5672,1.6307,1.7075,1.7813,1.8125,1.8389,1.8755,1.8823,1.8942,1.8942,1.9144,1.9258,1.8818,1.9082,1.9248,1.8818,1.874,1.8594,1.8164,1.8105,1.8057,1.793,1.6949,1.6287,1.6223,1.4839,1.3979,1.3979,1.3576,1.3061,1.2197,1.3301,1.3708,1.3195,1.2546,1.2457,1.2913,1.2202,1.159,1.11,1.11,1.0913,1.0624,1.0624,1.0624,-0.1643,-0.15,-0.1004,-0.0235,0.0427,0.1069,0.153,0.0,0.0,0.0,0.0,0.0,0.0,0.0,0.0,0.0,0.0,0.5537,0.6118,0.6905,0.7318,0.0,0.0,1.0103,1.1175,1.192,1.2897,1.4275,1.5046,1.5796,1.6578,1.8193,1.9305,1.976,2.0285,2.0336,1.9857,2.1848,2.3381,2.4378,2.3756,2.3654,2.3957,2.4413,2.409,2.3125,0.0,2.3772,2.293,2.2692,2.1892,2.0774,2.0161,1.9365,1.8529,1.8144,1.7571,1.6908,1.6702,1.58,1.4759,1.4466,1.4027,1.3665,1.3665,1.3665,1.3738,1.4243,1.5438,1.6706,1.7139,1.781,1.8398,1.8594,1.8818,1.8926,1.8621,1.8984,1.9092,1.8428,1.8643,1.8799,1.8369,1.8301,1.8232,1.8037,1.8008,1.7697,1.6751,1.6112,1.542,1.4554,1.376,1.3256,1.3256,1.3099,1.2826,1.2451,1.2595,1.2789,1.3038,1.2488,1.2241,1.2372,1.1845,1.1337,1.0951,1.0951,1.0788,1.0624,1.0624,1.0624,-0.245,-0.2486,-0.2343,-0.2064,0.0,0.0342,0.1257,0.0,0.0,0.0,0.0,0.0,0.0,0.0,0.0,0.0641,0.2601,0.4558,0.6058,0.6702,0.6929,0.6697,0.7758,0.8918,0.9756,0.9644,1.0158,1.1923,1.1906,1.2462,1.3805,1.5055,1.5928,1.6631,1.7529,1.7875,1.7533,1.8228,1.9574,2.144,2.1322,2.1393,2.1616,2.2116,2.1961,2.1216,2.1946,2.1816,2.1216,2.1216,2.0479,1.9288,1.9183,1.8563,1.7658,1.7533,1.6872,1.5957,1.5876,1.471,1.3304,1.3265,1.2774,1.2211,1.2278,1.2258,1.2357,1.3142,1.4585,1.6,1.6498,1.7297,1.8043,1.827,1.8516,1.8623,1.8389,1.8603,1.8672,1.8115,1.8271,1.8389,1.8066,1.8008,1.794,1.7725,1.7647,1.71,1.5546,1.505,1.435,1.3021,1.2629,1.2458,1.2458,1.2458,1.2458,1.2458,1.202,1.2043,1.2575,1.2397,1.2182,1.2074,1.1881,1.1518,1.0863,1.1233,1.1233,1.0863,1.0863,1.0863,-0.3216,-0.3035,-0.2972,-0.4154,-0.3099,0.0,-0.0541,-0.1,0.0,0.0,0.0,0.0,0.0,0.0,-0.0605,0.0851,0.0904,0.2028,0.5789,0.0,0.6652,0.6664,0.6836,0.7327,0.841,0.8328,0.8607,0.9849,1.0436,1.0867,1.1003,1.2551,1.3447,1.3508,1.428,1.4658,1.4632,1.4698,1.6481,2.002,1.9689,1.9889,2.0707,2.0296,2.029,2.0646,2.0711,2.0711,2.0646,2.0646,2.0107,1.9257,1.8826,1.791,1.6738,1.6223,1.583,1.5355,1.3997,1.3414,1.3127,1.231,1.1968,1.1951,1.2218,1.2118,1.1957,1.2298,1.3091,1.4307,1.614,1.6374,1.6331,1.7263,1.7187,1.7021,1.7393,1.75,1.7617,1.7949,1.8037,1.8047,1.8018,1.8008,1.7716,1.6853,1.6706,1.6198,1.49,1.3759,1.2905,1.2482,1.1411,1.0744,1.0744,1.0744,1.0744,1.0744,1.1406,1.1691,1.1435,1.1707,1.2174,1.2887,1.364,1.321,1.171,1.3235,1.3174,1.171,1.171,1.171,-0.3662,-0.3709,-0.3814,-0.4266,0.0,0.0,0.0,0.0,0.0,0.0,0.0,0.0,0.0,0.0,-0.1958,0.0063,0.0597,0.1067,0.2192,0.4711,0.6441,0.6589,0.6548,0.6647,0.7196,0.714,0.7175,0.7347,0.8221,0.87,0.8563,0.9814,1.0457,1.0457,1.1321,1.1646,1.1379,1.25,1.3774,1.5214,1.6422,1.7179,1.749,1.8403,1.8311,1.7506,1.8554,1.8701,1.8142,1.8142,1.7961,1.7725,1.7835,1.708,1.5974,1.6026,1.4967,1.3575,1.3347,1.2655,1.188,1.2101,1.2017,1.1924,1.2218,1.2225,1.2164,1.2271,1.2592,1.3121,1.4253,1.5198,1.5975,1.6151,1.6443,1.6855,1.7285,1.7168,1.7187,1.7881,1.7803,1.7494,1.717,1.7139,1.6784,1.5869,1.5523,1.4967,1.3739,1.3002,1.2282,1.139,1.0876,1.0624,1.0624,1.0624,1.0624,1.0624,1.0863,1.0996,1.0877,1.1465,1.1958,1.2266,1.3061,1.3122,1.2573,1.3183,1.287,1.1834,1.1834,1.1531,-0.396,-0.4123,-0.4202,0.0,0.0,0.0,0.0,0.0,0.0,0.0,0.0,0.0,0.0,0.0,0.0,0.0,-0.0202,0.0499,0.0152,0.2565,0.4574,0.5433,0.5956,0.6373,0.6437,0.6437,0.635,0.6141,0.6653,0.6925,0.68,0.75,0.7831,0.7831,0.8748,0.904,0.8809,1.0149,1.0896,1.0934,1.247,1.3872,1.524,1.622,1.6268,1.5579,1.6723,1.7004,1.6665,1.6665,1.665,1.6553,1.659,1.5972,1.5061,1.492,1.3754,1.2262,1.2489,1.1864,1.1089,1.1697,1.1817,1.1784,1.2078,1.2164,1.2184,1.2278,1.2305,1.2357,1.2663,1.3774,1.4956,1.5231,1.5629,1.6114,1.6801,1.6738,1.6728,1.7461,1.7373,1.7033,1.6451,1.6378,1.5964,1.4779,1.4437,1.3774,1.2476,1.2094,1.1582,1.0721,1.0624,1.0624,1.0624,1.0624,1.0624,1.0624,1.0624,1.0624,1.0624,1.1108,1.1531,1.1834,1.2573,1.3009,1.3009,1.3494,1.3235,1.2205,1.2251,1.1814,-0.4194,-0.4223,0.0,0.0,0.0,0.0,0.0,0.0,0.0,0.0,0.0,0.0,0.0,0.0,0.0,-0.3756,-0.1681,0.007,0.0361,0.0145,0.0798,0.2832,0.4963,0.623,0.6302,0.6299,0.6299,0.6299,0.5927,0.5762,0.5762,0.5771,0.5765,0.5765,0.6441,0.6843,0.7102,0.7489,0.7792,0.7957,0.8021,1.0198,1.4188,1.3758,1.4238,1.5432,1.5432,1.5899,1.6646,1.6655,1.6455,1.5994,1.5179,1.4626,1.401,1.2696,1.2049,1.1692,1.1207,1.0989,1.0989,1.0995,1.1189,1.1483,1.1784,1.187,1.1937,1.2225,1.2298,1.2164,1.1577,1.2037,1.3084,1.4514,1.4553,1.4561,1.5846,1.6115,1.6191,1.6641,1.6665,1.6526,1.5966,1.5896,1.529,1.3523,1.3252,1.2745,1.1195,1.0989,1.0875,1.0658,1.0624,1.0624,1.0624,1.0624,1.0624,1.0624,1.0624,1.0624,1.0624,1.0624,1.0989,1.1834,1.2573,1.3009,1.3009,1.4628,1.4569,1.3017,1.3247,1.2838,-0.4712,0.0,0.0,0.0,0.0,0.0,0.0,0.0,0.0,0.0,0.0,0.0,0.0,0.0,0.0,-0.4179,-0.3857,-0.2723,-0.0205,0.007,0.0212,0.0847,0.1508,0.2471,0.393,0.408,0.4074,0.4066,0.3956,0.3793,0.3658,0.3648,0.3608,0.3608,0.3816,0.4433,0.5547,0.588,0.6136,0.6193,0.7823,0.8995,0.9894,1.0302,1.0892,1.166,1.2263,1.3374,1.4728,1.5496,1.5723,1.5576,1.5069,1.4259,1.3285,1.2592,1.1752,1.0968,1.1019,1.0862,1.0755,1.1169,1.1356,1.1483,1.1784,1.2011,1.2191,1.2278,1.2151,1.1911,1.1523,1.1478,1.1825,1.3248,1.3873,1.4561,1.5846,1.582,1.583,1.6582,1.6027,1.5242,1.4709,1.4172,1.3375,1.2171,1.1784,1.1441,1.0799,1.0688,1.0719,1.0631,1.0624,1.0624,1.0624,1.0624,1.0624,1.0624,1.0624,1.0624,1.0624,1.117,1.1834,1.2634,1.3425,1.4145,1.4688,1.5177,1.4569,1.3009,1.3055,1.2367,-0.5232,0.0,0.0,0.0,0.0,0.0,0.0,0.0,0.0,0.0,0.0,0.0,0.0,-0.5596,0.0,-0.5276,-0.5171,-0.44,-0.24,-0.0875,0.0,0.0,0.0,0.0486,0.1734,0.1895,0.1851,0.1883,0.1893,0.1784,0.1633,0.1612,0.1602,0.1602,0.1599,0.2026,0.2963,0.3737,0.4538,0.5424,0.6821,0.6929,0.5974,0.7529,0.8682,0.9557,1.0712,1.1898,1.3203,1.399,1.4237,1.4087,1.3796,1.3078,1.2103,1.1788,1.1136,1.0428,1.0715,1.0509,1.0162,1.0435,1.0613,1.0734,1.0974,1.152,1.2104,1.1991,1.1911,1.1777,1.1363,1.1042,1.1219,1.2629,1.3254,1.3865,1.5254,1.5352,1.5206,1.5428,1.5004,1.4382,1.3477,1.2953,1.2306,1.1384,1.1009,1.0755,1.0645,1.0624,1.0624,1.0624,1.0624,1.0624,1.0624,1.0624,1.0624,1.0624,1.0624,1.0624,1.0624,1.1045,1.1717,1.2512,1.3304,1.4145,1.4932,1.5235,1.4569,1.3017,1.3244,1.2419,-0.5936,0.0,0.0,0.0,0.0,0.0,0.0,0.0,0.0,0.0,0.0,0.0,-0.6731,-0.6689,-0.6582,-0.6733,-0.5962,-0.5339,-0.536,-0.2531,-0.0387,-0.0198,-0.0065,0.0,0.0,0.0,0.0,0.0,-0.0239,-0.041,-0.041,-0.0171,-0.0056,-0.0224,-0.0335,-0.034,-0.0175,0.1169,0.2858,0.4806,0.487,0.4119,0.2692,0.5419,0.7254,0.8433,1.0144,1.1249,1.1894,1.2389,1.2347,1.2049,1.1842,1.1398,1.0868,1.0643,1.0374,1.016,1.0392,0.9983,0.9274,0.9204,0.9444,0.9722,0.9722,1.071,1.1804,1.151,1.1623,1.1703,1.1136,1.0755,1.0947,1.2472,1.2592,1.2705,1.4261,1.4646,1.443,1.3636,1.3767,1.3588,1.2345,1.2077,1.1833,1.108,1.0728,1.0624,1.0624,1.0624,1.0624,1.0624,1.0624,1.0624,1.0624,1.0624,1.0624,1.0624,1.0624,1.0624,1.0624,1.0624,1.0989,1.1772,1.2512,1.3304,1.4085,1.4815,1.4392,1.2903,1.3461,1.2755,0.0,-0.793,0.0,0.0,0.0,0.0,0.0,0.0,0.0,0.0,0.0,-0.6233,-0.7175,-0.7393,-0.7402,-0.7341,-0.7154,-0.6529,-0.5139,-0.4397,-0.3435,-0.1935,-0.0676,0.0,0.0,0.0,0.0,0.0,-0.2195,-0.3524,-0.3524,-0.1292,-0.0503,-0.1675,-0.2914,-0.2923,-0.1748,-0.0865,-0.0234,0.0236,0.1002,0.1592,0.2067,0.4315,0.5445,0.5793,0.8559,0.9804,1.0122,1.1599,1.217,1.2025,1.158,1.1195,1.0868,1.0643,1.0374,1.0038,0.9693,0.9466,0.921,0.8484,0.8909,0.9722,0.9722,1.071,1.1804,1.151,1.147,1.1436,1.1082,1.0601,1.0445,1.1443,1.1621,1.1811,1.2879,1.3227,1.328,1.2881,1.2514,1.222,1.1924,1.1389,1.0903,1.0719,1.0665,1.0624,1.0624,1.0624,1.0624,1.0624,1.0624,1.0624,1.0624,1.0624,1.0624,1.0624,1.0624,1.0624,1.0624,1.0624,1.0989,1.1772,1.1958,1.2451,1.3252,1.3425,1.3,1.2089,1.2432,1.2007,0.0,0.0,0.0,0.0,0.0,0.0,0.0,0.0,0.0,0.0,0.0,-0.6801,-0.7749,-0.7992,-0.8035,-0.7973,-0.786,-0.7382,-0.6078,-0.5302,-0.4476,-0.3582,-0.2699,-0.1865,-0.1142,-0.0409,0.0,0.0,-0.2778,-0.4514,-0.4514,-0.3026,-0.2178,-0.2174,-0.3702,-0.4104,-0.3302,-0.2954,-0.2803,-0.2746,-0.2229,-0.1313,-0.0057,0.2447,0.4013,0.4773,0.6368,0.7422,0.8178,0.9632,0.9952,0.9515,0.9867,0.9542,0.8851,0.9132,0.9027,0.8739,0.8684,0.842,0.7962,0.7502,0.7775,0.8266,0.8266,0.9462,1.076,1.0482,1.0775,1.1149,1.0862,1.0347,1.0059,1.0608,1.0755,1.1035,1.1888,1.2282,1.2257,1.1623,1.1557,1.142,1.0866,1.0227,0.9618,0.9366,0.9716,0.9977,0.9977,1.0364,1.0624,1.0624,1.0624,1.0624,1.0624,1.0428,1.0408,1.0618,1.0428,1.0414,1.0618,1.0624,1.0807,1.1226,1.1586,1.202,1.2451,1.2826,1.2573,1.1779,1.2208,1.1983,0.0,0.0,0.0,0.0,0.0,0.0,0.0,0.0,0.0,0.0,-0.8352,-0.7373,-0.8363,-0.8527,-0.8527,-0.8527,-0.8474,-0.8107,-0.7343,-0.597,-0.5063,-0.5085,-0.49,-0.425,-0.2956,-0.1583,-0.0669,-0.039,-0.2912,-0.4507,-0.4507,-0.4473,-0.3889,-0.2599,-0.3753,-0.4416,-0.4412,-0.4549,-0.456,-0.4453,-0.448,-0.3808,-0.251,-0.0056,0.1998,0.3762,0.4262,0.5148,0.6322,0.7389,0.7301,0.6737,0.7897,0.7626,0.6663,0.7395,0.7481,0.7294,0.7578,0.72,0.6561,0.6432,0.6496,0.6621,0.6621,0.8027,0.9598,0.9338,1.0076,1.0922,1.0698,1.016,0.9806,0.9813,0.99,1.0144,1.0939,1.1367,1.1311,1.0272,1.0622,1.0703,0.9655,0.9081,0.8572,0.8058,0.8681,0.9285,0.9268,1.0047,1.0604,1.0488,1.0481,1.0461,1.0477,1.0187,1.0167,1.0461,1.0254,1.0247,1.0611,1.0624,1.0624,1.0624,1.1226,1.1586,1.1586,1.2274,1.2266,1.1608,1.2153,1.2027,0.0,0.0,0.0,0.0,0.0,0.0,0.0,0.0,0.0,0.0,-0.8639,-0.7907,-0.8899,-0.9069,-0.9069,-0.9069,-0.9092,-0.8718,-0.7744,-0.7404,-0.7068,-0.6444,-0.5973,-0.5618,-0.5441,-0.4498,-0.3324,-0.1988,-0.3508,-0.4484,-0.4484,-0.4311,-0.4131,-0.3956,-0.3952,-0.3989,-0.4083,-0.4828,-0.485,-0.4231,-0.4416,-0.4366,-0.4196,-0.3805,-0.2062,0.0722,0.3382,0.4604,0.4867,0.5819,0.6372,0.6668,0.7145,0.7032,0.6698,0.729,0.7379,0.7052,0.6584,0.6358,0.6115,0.5398,0.564,0.6298,0.6298,0.7798,0.9454,0.9122,0.9983,1.0922,1.0698,1.0307,0.982,0.9008,0.861,0.8664,0.9336,0.9948,1.0123,0.9451,0.9676,0.9661,0.8851,0.8699,0.8443,0.7814,0.8483,0.9072,0.9308,1.0047,1.0461,1.02,1.0174,1.0074,0.982,0.9766,0.9866,1.016,1.014,1.0247,1.0611,1.0624,1.0624,1.0624,1.0681,1.0744,1.0744,1.0863,1.087,1.0751,1.1091,1.1181,0.0,0.0,0.0,0.0,0.0,0.0,0.0,0.0,0.0,-1.0475,-0.9815,-0.9169,-0.9503,-0.9819,-1.0076,-1.0076,-1.0076,-0.9813,-0.8995,-0.8495,-0.8019,-0.7289,-0.6511,-0.6106,-0.6284,-0.6168,-0.5597,-0.4341,-0.5433,-0.6132,-0.6132,-0.5766,-0.5496,-0.5328,-0.5405,-0.5264,-0.4997,-0.5699,-0.5859,-0.5543,-0.5042,-0.4919,-0.5066,-0.4643,-0.2845,0.0056,0.1387,0.2441,0.3332,0.4597,0.5218,0.5474,0.6161,0.6027,0.5487,0.5801,0.5847,0.5748,0.5644,0.5589,0.5533,0.5057,0.5175,0.5476,0.5476,0.61,0.6983,0.7608,0.8404,0.903,0.8918,0.8639,0.83,0.7838,0.7515,0.7395,0.7669,0.8413,0.908,0.9174,0.8873,0.8391,0.7783,0.7286,0.6837,0.6201,0.7358,0.8231,0.8209,0.9451,1.02,0.9907,0.9873,0.9643,0.9155,0.902,0.9132,0.9474,0.9425,0.9735,1.0548,1.0624,1.0624,1.0624,1.0624,1.0624,1.0624,1.0624,1.0624,1.0631,1.0862,1.0995,0.0,0.0,0.0,0.0,0.0,0.0,0.0,0.0,-1.0234,0.0,-1.0428,-1.0043,-1.0014,-1.0447,-1.0705,-1.0524,-1.0573,-1.0448,-0.9826,-0.9235,-0.8721,-0.8229,-0.7476,-0.7126,-0.7321,-0.753,-0.7386,-0.6618,-0.7095,-0.7419,-0.7535,-0.7021,-0.6719,-0.6589,-0.6507,-0.6276,-0.5882,-0.6187,-0.6498,-0.677,-0.5806,-0.5492,-0.5685,-0.5163,-0.3496,-0.1029,-0.0717,0.0278,0.1726,0.2888,0.3564,0.3978,0.4684,0.4746,0.4497,0.4602,0.464,0.466,0.4904,0.47,0.4336,0.4222,0.4222,0.4222,0.4222,0.4153,0.4446,0.5799,0.673,0.7294,0.7478,0.7353,0.7156,0.6867,0.6621,0.6509,0.6673,0.7312,0.7973,0.8546,0.8009,0.7236,0.6626,0.6093,0.5534,0.4956,0.6437,0.7619,0.7446,0.9053,1.0087,0.9726,0.9564,0.9187,0.8457,0.8206,0.8229,0.8606,0.855,0.8918,0.9894,1.0168,1.0301,1.0301,1.0491,1.0624,1.0624,1.0807,1.0926,1.0933,1.1347,1.1517,0.0,0.0,0.0,0.0,0.0,0.0,0.0,0.0,0.0,0.0,-0.9765,-0.991,-1.0435,-1.0697,-1.0541,-0.9719,-0.9945,-1.0051,-0.957,-0.9476,-0.9422,-0.943,-0.936,-0.936,-0.9329,-0.8781,-0.844,-0.8353,-0.7775,-0.7551,-0.7952,-0.7457,-0.7328,-0.7715,-0.6698,-0.6099,-0.607,-0.5741,-0.615,-0.7257,-0.6509,-0.6145,-0.6154,-0.6103,-0.5331,-0.3889,-0.2653,-0.1225,0.0111,0.0222,0.1057,0.2343,0.2397,0.3244,0.4497,0.4504,0.4507,0.4507,0.4518,0.3602,0.2355,0.2355,0.2355,0.2355,0.2355,0.2334,0.2663,0.418,0.5576,0.6676,0.7354,0.7472,0.7229,0.6262,0.605,0.6221,0.6904,0.6854,0.6778,0.7161,0.6905,0.6426,0.5719,0.5555,0.5345,0.4793,0.6298,0.7566,0.7634,0.9387,1.0383,0.9746,0.9184,0.858,0.7977,0.7465,0.7275,0.7551,0.7566,0.7729,0.8146,0.8941,0.9338,0.9338,1.0174,1.0624,1.0624,1.1351,1.1772,1.1772,1.2536,1.2911,0.0,0.0,0.0,0.0,0.0,0.0,0.0,-0.9573,-0.9334,-0.9865,-0.9961,-1.0004,-1.0229,-1.0848,-1.1205,-1.0919,-1.1002,-1.0904,-1.031,-1.0202,-1.0013,-0.9557,-0.9117,-0.902,-0.9471,-0.8881,-0.8663,-0.909,-0.8882,-0.8835,-0.8947,-0.8776,-0.8656,-0.8646,-0.8401,-0.8305,-0.8305,-0.7469,-0.7424,-0.8201,-0.6949,-0.6422,-0.6569,-0.6131,-0.5691,-0.5189,-0.4712,-0.3896,-0.2713,-0.0774,0.0335,0.0781,0.0781,0.1116,0.1732,0.2683,0.3019,0.3188,0.416,0.4163,0.3365,0.1398,0.0783,0.0447,-0.1509,-0.0729,0.0903,0.1466,0.3359,0.5258,0.5494,0.5551,0.5474,0.5121,0.5046,0.5102,0.5378,0.6041,0.6613,0.6743,0.6306,0.5814,0.5542,0.5164,0.5005,0.5457,0.707,0.8627,0.9601,1.1019,1.1508,1.0464,1.0284,0.9309,0.6983,0.675,0.6515,0.5978,0.6608,0.7292,0.7957,0.8812,0.9274,0.9274,1.0174,1.0624,1.0624,1.1413,1.1834,1.1834,1.2634,1.3009,0.0,0.0,0.0,0.0,0.0,0.0,0.0,0.0,-0.9467,-0.9826,-0.9742,-0.9742,-1.0113,-1.0554,-1.0954,-1.1133,-1.1292,-1.1161,-1.0581,-1.052,-1.0252,-0.9598,-0.9262,-0.9174,-0.9332,-0.9065,-0.9047,-0.9504,-0.9538,0.0,-0.9942,-0.9675,-0.9325,-0.8797,-0.8981,-0.898,-0.881,-0.8076,-0.7953,-0.8326,-0.7306,-0.6865,-0.7036,-0.656,-0.6191,-0.5935,-0.6196,-0.579,-0.4797,-0.2493,-0.0936,0.0,0.0,0.0,0.0112,0.1117,0.1452,0.162,0.2637,0.2977,0.2469,-0.0504,-0.1514,-0.1793,-0.3256,-0.2687,-0.1283,-0.0278,0.1448,0.313,0.3585,0.3752,0.3863,0.4369,0.4473,0.4522,0.4522,0.5234,0.5887,0.5887,0.5504,0.5175,0.5171,0.4794,0.4845,0.5848,0.7517,0.9189,1.0523,1.1659,1.1968,1.1123,1.054,0.9017,0.5855,0.5568,0.5463,0.5192,0.5875,0.6527,0.7116,0.8226,0.8877,0.8877,1.0281,1.0982,1.0982,1.1841,1.232,1.2618,1.3416,1.3545,0.0,0.0,0.0,0.0,0.0,0.0,-0.9081,0.0,-0.9133,-0.9419,-0.903,-0.8999,-1.004,-0.9843,-0.9677,-1.0186,-1.0615,-1.0752,-1.0342,-1.0283,-1.0127,-0.9651,-0.999,-0.9922,-0.9082,-0.933,-0.9563,-0.9573,-0.9573,-0.9933,-1.0811,-1.003,-0.9173,-0.8245,-0.8236,-0.7982,-0.746,-0.7424,-0.7508,-0.7641,-0.7607,-0.7553,-0.75,-0.75,-0.7032,-0.6276,-0.6956,-0.676,-0.5915,-0.494,-0.2835,-0.011,-0.0056,0.0,0.0,0.0,-0.0056,-0.0112,-0.0112,-0.0112,-0.056,-0.3487,-0.4455,-0.4222,-0.2738,-0.3302,-0.3869,-0.0947,-0.0111,0.0278,0.1728,0.2119,0.251,0.4027,0.4421,0.448,0.448,0.448,0.448,0.4421,0.4432,0.4435,0.4425,0.4484,0.4863,0.5857,0.7585,0.9116,1.0253,1.125,1.1759,1.1639,0.9907,0.7593,0.4686,0.3881,0.4084,0.5309,0.5369,0.5428,0.5428,0.7055,0.8021,0.8021,1.0508,1.1841,1.1896,1.2634,1.3425,1.4213,1.4991,1.451,-0.5998,0.0,0.0,0.0,0.0,0.0,0.0,0.0,0.0,-0.8659,-0.8406,-0.8316,-0.8999,-0.9319,-0.9584,-0.9742,-1.0176,-1.041,-1.0303,-1.0283,-1.0127,-0.9651,-0.9473,-0.9268,-0.9023,-0.8838,-0.8848,0.0,-0.918,-0.9277,-0.9521,-0.9307,-0.9052,-0.8799,-0.8789,-0.8687,-0.8549,-0.8158,-0.8153,-0.8472,-0.7686,-0.7466,-0.7794,-0.7319,-0.7228,-0.7454,-0.7616,-0.791,-0.8095,-0.6713,-0.5001,-0.3038,-0.0854,0.0,0.0,0.0,-0.1401,-0.3261,-0.3261,-0.2521,-0.173,-0.2571,-0.3588,-0.4442,-0.3974,-0.4147,-0.4324,-0.3463,-0.2452,-0.1226,0.0223,0.0613,0.0724,0.1115,0.2907,0.449,0.449,0.4497,0.4157,0.3072,0.2847,0.2847,0.2847,0.3877,0.5089,0.6217,0.8333,1.0384,1.1994,1.2429,1.2371,1.1851,0.9539,0.7237,0.5262,0.3806,0.3618,0.5319,0.5372,0.5428,0.5428,0.7055,0.827,0.8879,1.1085,1.2641,1.3537,1.3786,1.3965,1.4213,1.4451,1.3657,0.0,0.0,0.0,0.0,0.0,0.0,-0.8617,-0.845,-0.8248,0.0,-0.8464,-0.8398,-0.8918,-0.9279,-0.9603,-0.9866,-1.0117,-1.0215,-1.0039,-1.001,-0.9853,-0.9388,-0.9307,-0.9062,-0.8525,-0.8418,-0.8509,-0.873,-0.874,-0.874,-0.874,-0.874,-0.8662,-0.8477,-0.8467,-0.8467,-0.8467,-0.8145,-0.8191,-0.8531,-0.7677,-0.7485,-0.7878,-0.728,-0.7321,-0.7912,-0.816,-0.851,-0.8887,-0.8379,-0.7098,-0.5246,-0.2821,-0.1502,-0.0893,-0.0894,-0.2014,-0.3649,-0.4278,-0.3928,-0.3188,-0.3183,-0.3749,-0.4487,-0.4477,-0.4477,-0.448,-0.448,-0.386,-0.2963,-0.2124,-0.1394,-0.078,-0.0167,0.1338,0.2963,0.4216,0.4507,0.4225,0.3307,0.2124,0.1284,0.1283,0.2098,0.349,0.5616,0.793,0.9953,1.1178,1.2112,1.2259,1.1396,0.9833,0.7946,0.5614,0.3761,0.3485,0.5319,0.5376,0.5432,0.5428,0.685,0.8125,0.918,1.1667,1.3512,1.4639,1.4162,1.39,1.3839,1.3523,1.2923,0.0,0.0,0.0,0.0,0.0,0.0,-0.8459,-0.8397,-0.8335,0.0,-0.8782,-0.8751,-0.9304,-0.9421,-0.9607,-1.0078,-1.0184,-1.0077,-0.9709,-0.9734,-0.9567,-0.9062,-0.9371,-0.9107,-0.7812,-0.8076,-0.8311,-0.8311,-0.8311,-0.8311,-0.8311,-0.8311,-0.8125,-0.7715,-0.7695,-0.7725,-0.7754,-0.7725,-0.7909,-0.8268,-0.7754,-0.7628,-0.79,-0.7342,-0.7447,-0.7995,-0.848,-0.8756,-0.8943,-0.981,-0.8875,-0.675,-0.5302,-0.3903,-0.2617,-0.2508,-0.2619,-0.2954,-0.4203,-0.4712,-0.4709,-0.4754,-0.4695,-0.4639,-0.4629,-0.457,-0.4519,-0.4584,-0.4595,-0.4601,-0.4657,-0.3574,-0.2115,-0.0833,-0.0389,0.0501,0.3198,0.3766,0.3766,0.3766,0.1737,0.0,0.0,0.0,0.1033,0.4102,0.6616,0.8429,0.9283,1.0581,1.091,0.9657,0.9437,0.8169,0.5065,0.3355,0.3282,0.5246,0.5382,0.5306,0.509,0.6252,0.7593,0.9116,1.2041,1.4056,1.5059,1.4183,1.3625,1.3276,1.2531,1.2291,0.0,0.0,0.0,0.0,0.0,0.0,-0.8098,-0.7875,-0.7699,0.0,-0.807,-0.8093,-0.8673,-0.8859,-0.9033,-0.9305,-0.9429,-0.9641,-1.0106,-1.0479,-1.0297,-0.9126,-0.9403,-0.9166,-0.7812,-0.7773,-0.7822,-0.7822,-0.7822,-0.7822,-0.7822,-0.7822,-0.7783,-0.7695,-0.7695,-0.787,-0.8176,-0.787,-0.8059,-0.8743,-0.8271,-0.8008,-0.7983,-0.7784,-0.8028,-0.8561,-0.8635,-0.9199,-1.0029,-1.0529,-0.9462,-0.7387,-0.6635,-0.5883,-0.5078,-0.4326,-0.5054,-0.6337,-0.58,-0.5845,-0.6213,-0.6213,-0.5769,-0.5332,-0.5328,-0.4948,-0.4625,-0.5167,-0.5332,-0.5332,-0.5588,-0.4871,-0.399,-0.3718,-0.2668,-0.1615,-0.1003,-0.0891,-0.0891,-0.0891,-0.0391,0.0,0.0,0.0,0.0242,0.0909,0.3882,0.7031,0.9934,0.8066,0.5898,0.4301,0.2922,0.1801,0.1138,0.0735,0.194,0.5199,0.5396,0.4773,0.328,0.4863,0.6755,0.8809,1.1851,1.3542,1.3707,1.4311,1.4013,1.281,1.2385,1.1913,0.0,0.0,0.0,-0.748,0.0,0.0,0.0,-0.7555,-0.7373,-0.7774,-0.7886,-0.8061,-0.8486,-0.8829,-0.9141,-0.9361,-0.9483,-0.9702,-1.0093,-1.0062,-0.9758,-0.9087,-0.9195,-0.888,-0.7813,-0.8023,-0.8166,-0.8004,-0.7812,-0.7695,-0.7695,-0.7695,-0.7783,-0.8004,-0.8004,-0.8166,-0.8551,-0.8176,-0.8404,-0.9176,-0.8537,-0.8388,-0.8688,-0.8422,-0.8594,-0.9119,-0.9119,-0.9558,-1.0312,-1.0732,-1.0061,-0.8723,-0.8523,-0.7733,-0.6699,-0.6215,-0.6666,-0.745,-0.6902,-0.7149,-0.7659,-0.7659,-0.7388,-0.7009,-0.6651,-0.6077,-0.5605,-0.5928,-0.6293,-0.6602,-0.6699,-0.6679,-0.6498,-0.6007,-0.5292,-0.47,-0.4457,-0.4409,-0.4416,-0.4381,-0.3776,-0.2832,-0.134,-0.1726,-0.1887,-0.0772,0.145,0.3461,0.4866,0.3368,0.1362,-0.0624,-0.3065,-0.411,-0.3085,-0.2452,-0.091,0.1854,0.2466,0.227,0.1398,0.3055,0.5774,0.9639,1.1942,1.3189,1.3329,1.3862,1.3447,1.2262,1.1938,1.1757,0.0,0.0,0.0,0.0,0.0,-0.7481,0.0,0.0,0.0,-0.7557,-0.7912,0.0,0.0,0.0,0.0,0.0,0.0,0.0,0.0,-0.9161,0.0,-0.9137,-0.9171,-0.8848,-0.8045,-0.8425,-0.8607,-0.8308,-0.7942,-0.7742,-0.7802,-0.7812,-0.7976,-0.829,-0.8365,-0.8551,-0.8899,-0.8578,-0.8746,-0.948,-0.8885,-0.8828,-0.9257,-0.908,-0.9191,-0.9518,-0.9518,-0.9804,-1.0312,-1.0732,-1.0567,-1.0085,-1.0194,-0.9298,-0.7972,-0.7817,-0.7869,-0.7984,-0.7924,-0.8346,-0.9015,-0.9219,-0.9181,-0.8923,-0.8063,-0.7452,-0.7052,-0.716,-0.7564,-0.8069,-0.8325,-0.8723,-0.8947,-0.8294,-0.8011,-0.7823,-0.7407,-0.7278,-0.72,-0.7154,-0.7069,-0.5968,-0.2777,-0.3711,-0.4282,-0.2499,-0.1451,-0.123,-0.2293,-0.2515,-0.3328,-0.538,-0.787,-0.8604,-0.6861,-0.5538,-0.4025,-0.2229,-0.1721,-0.1529,-0.1525,0.0793,0.4383,0.9317,1.1096,1.2158,1.2452,1.2452,1.2311,1.1944,1.159,1.1683,0.0,0.0,0.0,0.0,-0.8365,0.0,-0.8232,0.0,-0.7724,-0.7709,0.0,-0.8118,0.0,0.0,0.0,0.0,0.0,0.0,-0.8439,-0.8152,-0.8393,-0.9647,-0.999,-0.9836,-0.901,-0.8639,-0.8401,-0.8305,-0.7994,-0.7904,-0.8202,-0.8233,-0.8262,-0.829,-0.8578,-0.8926,-0.9316,-0.8926,-0.896,-0.9422,-0.9847,-0.9611,-0.8793,-0.9657,-0.9845,-0.9518,-0.9518,-0.9804,-1.0312,-1.0732,-1.0867,-1.0781,-1.0631,-1.0043,-0.9198,-0.8613,-0.8754,-0.9236,-0.9021,-0.9419,-1.0181,-1.1045,-1.0964,-1.0229,-0.8968,-0.8515,-0.8573,-0.9158,-0.9423,-0.9724,-1.0939,-1.0864,-1.0565,-1.1025,-1.0623,-1.0097,-1.0055,-0.966,-0.9264,-0.9271,-0.8813,-0.7131,-0.2914,-0.4535,-0.6292,-0.6049,-0.5864,-0.6551,-0.865,-0.8888,-0.929,-1.0301,-1.0336,-0.9952,-0.9273,-0.7691,-0.6246,-0.4992,-0.63,-0.707,-0.707,-0.2368,0.1789,0.507,0.7807,0.9275,0.9281,0.9281,1.0361,1.2238,1.1683,1.1463,0.0,0.0,0.0,0.0,0.0,0.0,-0.7989,0.0,-0.7627,0.0,0.0,0.0,0.0,0.0,0.0,0.0,-0.8204,0.0,0.0,0.0,-0.8767,0.0,0.0,0.0,-0.9144,-0.8571,-0.8318,-0.8679,-0.8221,-0.8056,-0.841,-0.8533,-0.869,-0.8937,-0.9074,-0.9316,-0.9686,-0.9343,-0.9343,-0.9698,-1.0087,-1.0177,-0.995,-1.0748,-1.0847,-1.036,-1.036,-1.0331,-1.0293,-1.0469,-1.0547,-1.0566,-1.0763,-1.0535,-1.0103,-0.9814,-0.9905,-1.0129,-1.0036,-1.0565,-1.1508,-1.2589,-1.2211,-1.1306,-1.1122,-1.0529,-1.0003,-1.0273,-1.0914,-1.1653,-1.2211,-1.2914,-1.3558,-1.3814,-1.3876,-1.3664,-1.2959,-1.2604,-1.212,-1.1021,-1.0605,-0.9715,-0.75,-0.8343,-0.9213,-0.8867,-0.875,-0.9329,-1.102,-1.1138,-1.1321,-1.1894,-1.2295,-1.2077,-1.0894,-0.9967,-0.8697,-0.7033,-0.7148,-0.732,-0.7442,-0.3977,-0.033,0.3295,0.5616,0.7155,0.7844,0.8468,0.9276,1.0259,1.0392,1.0598,-1.0315,0.0,0.0,0.0,0.0,0.0,0.0,0.0,0.0,0.0,0.0,0.0,0.0,0.0,0.0,0.0,0.0,-0.8333,0.0,-0.8648,0.0,0.0,0.0,0.0,0.0,-0.8385,-0.8266,-0.8809,-0.8233,-0.8155,-0.886,-0.891,-0.9062,-0.9381,-0.9487,-0.9672,-0.9905,-0.9659,-0.9733,-1.0105,-1.0469,-1.0778,-1.1069,-1.1699,-1.17,-1.1207,-1.1207,-1.1019,-1.0697,-1.0544,-1.0582,-1.0725,-1.0905,-1.1053,-1.11,-1.0951,-1.0918,-1.0946,-1.1219,-1.1985,-1.3055,-1.3818,-1.3418,-1.2712,-1.3165,-1.2667,-1.1886,-1.1886,-1.257,-1.3385,-1.3695,-1.4879,-1.6022,-1.6321,-1.6715,-1.6773,-1.5868,-1.5342,-1.4609,-1.3236,-1.2609,-1.2143,-1.1657,-1.1589,-1.1469,-1.0997,-1.1165,-1.167,-1.2699,-1.2814,-1.2905,-1.3127,-1.3959,-1.3866,-1.2341,-1.1635,-1.0316,-0.8047,-0.754,-0.7159,-0.685,-0.5308,-0.2611,0.1376,0.31,0.4784,0.663,0.7464,0.7919,0.7971,0.8917,0.9604,0.0,0.0,0.0,-1.0706,0.0,0.0,0.0,0.0,-0.8347,0.0,0.0,0.0,0.0,0.0,0.0,0.0,0.0,0.0,0.0,0.0,0.0,0.0,0.0,0.0,0.0,-0.8193,-0.8214,-0.8492,-0.7903,-0.8193,-0.9766,-0.9437,-0.9251,-0.9396,-0.9724,-0.9905,-0.9905,-0.9905,-1.0143,-1.0681,-1.127,-1.1603,-1.1678,-1.2224,-1.221,-1.1774,-1.1774,-1.1774,-1.17,-1.1207,-1.1282,-1.17,-1.1207,-1.1557,-1.2294,-1.1918,-1.1745,-1.1879,-1.2814,-1.3807,-1.472,-1.4677,-1.4696,-1.4701,-1.4643,-1.4606,-1.456,-1.456,-1.4606,-1.4869,-1.599,-1.6658,-1.733,-1.8446,-1.8702,-1.8702,-1.8664,-1.7437,-1.6336,-1.6237,-1.4869,-1.3721,-1.3711,-1.301,-1.2444,-1.2355,-1.3399,-1.4324,-1.4645,-1.4767,-1.4788,-1.4736,-1.5127,-1.4849,-1.3645,-1.2413,-1.0554,-0.7881,-0.8371,-0.796,-0.631,-0.6723,-0.5217,-0.1467,-0.0329,0.1938,0.5449,0.5522,0.5595,0.5738,0.7687,0.8624,0.0,0.0,-1.3765,-1.1927,0.0,0.0,0.0,0.0,0.0,0.0,0.0,0.0,0.0,0.0,0.0,0.0,0.0,0.0,0.0,0.0,0.0,0.0,0.0,0.0,0.0,0.0,-0.7873,-0.7287,-0.6584,-0.6319,-0.6646,-0.8564,-0.9686,-0.9724,-0.9854,-0.9905,-0.9905,-1.0257,-1.0518,-1.0706,-1.1676,-1.2132,-1.2189,-1.2731,-1.272,-1.2246,-1.2246,-1.2102,-1.1774,-1.1579,-1.1627,-1.1811,-1.1945,-1.2342,-1.282,-1.2354,-1.2378,-1.2649,-1.2945,-1.3318,-1.3682,-1.411,-1.4463,-1.4803,-1.5193,-1.5501,-1.5775,-1.5775,-1.6241,-1.6857,-1.7236,-1.8398,-1.96,-1.9983,-2.0346,-2.0395,-1.9741,-1.9038,-1.8113,-1.6663,-1.5616,-1.4824,-1.4457,-1.446,-1.4608,-1.4923,-1.5654,-1.6457,-1.7293,-1.6568,-1.5838,-1.555,-1.5432,-1.4878,-1.372,-1.1957,-1.0403,-0.9272,-0.8967,-0.8193,-0.6832,-0.6889,-0.5982,-0.4149,-0.1379,0.0601,0.1803,0.4228,0.5416,0.5467,0.6346,0.7165,-1.4308,-1.474,0.0,-1.3099,-1.2943,0.0,-1.0986,0.0,-1.0594,0.0,0.0,0.0,0.0,0.0,0.0,0.0,0.0,0.0,0.0,-0.9194,0.0,0.0,0.0,0.0,0.0,-0.7884,-0.7936,-0.8018,-0.6702,-0.6361,-0.7457,-0.9278,-1.0257,-1.0194,-1.0168,-1.0168,-1.0168,-1.0747,-1.1136,-1.1295,-1.2065,-1.2517,-1.2685,-1.3035,-1.3012,-1.2756,-1.2918,-1.2836,-1.2531,-1.2519,-1.2625,-1.2765,-1.2742,-1.3076,-1.3557,-1.3085,-1.3323,-1.3809,-1.3821,-1.3963,-1.4262,-1.4915,-1.5344,-1.5741,-1.6307,-1.6822,-1.7195,-1.7195,-1.7754,-1.8403,-1.859,-1.9771,-2.0953,-2.1154,-2.1477,-2.154,-2.0908,-2.0125,-1.9178,-1.7798,-1.6612,-1.566,-1.5061,-1.5106,-1.5468,-1.6239,-1.6968,-1.7721,-1.8324,-1.7607,-1.6885,-1.6526,-1.6079,-1.5225,-1.391,-1.2802,-1.1677,-1.0366,-1.0064,-0.9239,-0.7727,-0.7597,-0.7034,-0.5936,-0.3288,-0.1581,-0.0932,0.2071,0.3845,0.4439,0.4599,0.5159]}]]